[[{"header":{"parameterUnit":"m.s-1","parameterCategory":1,"la1":31.0,"la2":29.5877,"lo1":-88.7671,"lo2":-86.6584,"dx":0.0162,"dy":0.0185,"nx":115,"ny":88,"refTime":"2022-11-14T06:00:00:Z","depth":0,"parameterNumber":2,"parameterNumberName":"U-component_of_WINDS"},"data":[0.0,0.0,0.0,0.0,0.0,0.0,0.0,0.0,0.0,0.0,0.0,0.0,0.0,0.0,0.0,0.0,0.0,0.0,0.0,0.0,0.0,0.0,0.0,0.0,0.0,0.0,0.0,0.0,0.0,0.0,0.0,0.0,0.0,0.0,0.0,0.0,0.0,0.0,0.0,0.0,0.0,0.0,0.0,0.0,0.0,0.0,0.0,0.0,0.0,0.0,0.0,0.0,0.0,0.0,0.0,0.0,0.0,0.0,0.0,0.0,0.0,0.0,0.0,0.0,0.0,0.0,0.0,0.0,0.0,0.0,0.0,0.0,0.0,0.0,0.0,0.0,0.0,0.0,0.0,0.0,0.0,0.0,0.0,0.0,0.0,0.0,0.0,0.0,0.0,0.0,0.0,0.0,0.0,0.0,0.0,0.0,0.0,0.0,0.0,0.0,0.0,0.0,0.0,0.0,0.0,0.0,0.0,0.0,0.0,0.0,0.0,0.0,0.0,0.0,0.0,0.0,0.0,0.0,0.0,0.0,0.0,0.0,0.0,0.0,0.0,0.0,0.0,0.0,0.0,0.0,0.0,0.0,0.0,0.0,0.0,0.0,0.0,0.0,0.0,0.0,0.0,0.0,0.0,0.0,0.0,0.0,0.0,0.0,0.0,0.0,0.0,0.0,0.0,0.0,0.0,0.0,0.0,0.0,0.0,0.0,0.0,0.0,0.0,0.0,0.0,0.0,0.0,0.0,0.0,0.0,0.0,0.0,0.0,0.0,0.0,0.0,0.0,0.0,0.0,0.0,0.0,0.0,0.0,0.0,0.0,0.0,0.0,0.0,0.0,0.0,0.0,0.0,0.0,0.0,0.0,0.0,0.0,0.0,0.0,0.0,0.0,0.0,0.0,0.0,0.0,0.0,0.0,0.0,0.0,0.0,0.0,0.0,0.0,0.0,0.0,0.0,0.0,0.0,0.0,0.0,0.0,0.0,0.0,0.0,0.0,0.0,0.0,0.0,0.0,0.0,0.0,0.0,0.0,0.0,0.0,0.0,0.0,0.0,0.0,0.0,0.0,0.0,0.0,0.0,0.0,0.0,0.0,0.0,0.0,0.0,0.0,0.0,0.0,0.0,0.0,0.0,0.0,0.0,0.0,0.0,0.0,0.0,0.0,0.0,0.0,0.0,0.0,0.0,0.0,0.0,0.0,0.0,0.0,0.0,0.0,0.0,0.0,0.0,0.0,0.0,0.0,0.0,0.0,0.0,0.0,0.0,0.0,0.0,0.0,0.0,0.0,0.0,0.0,0.0,0.0,0.0,0.0,0.0,0.0,0.0,0.0,0.0,0.0,0.0,0.0,0.0,0.0,0.0,0.0,0.0,0.0,0.0,0.0,0.0,0.0,0.0,0.0,0.0,0.0,0.0,0.0,0.0,0.0,0.0,0.0,0.0,0.0,0.0,0.0,0.0,0.0,0.0,0.0,0.0,0.0,0.0,0.0,0.0,0.0,0.0,0.0,0.0,0.0,0.0,0.0,0.0,0.0,0.0,0.0,0.0,0.0,0.0,0.0,0.0,0.0,0.0,0.0,0.0,0.0,0.0,0.0,0.0,0.0,0.0,0.0,0.0,0.0,0.0,0.0,0.0,0.0,0.0,0.0,0.0,0.0,0.0,0.0,0.0,0.0,0.0,0.0,0.0,0.0,0.0,0.0,0.0,0.0,0.0,0.0,0.0,0.0,0.0,0.0,0.0,0.0,0.0,0.0,0.0,0.0,0.0,0.0,0.0,0.0,0.0,0.0,0.0,0.0,0.0,0.0,0.0,0.0,0.0,0.0,0.0,0.0,0.0,0.0,0.0,0.0,0.0,0.0,0.0,0.0,0.0,0.0,0.0,0.0,0.0,0.0,0.0,0.0,0.0,0.0,0.0,0.0,0.0,0.0,0.0,0.0,0.0,0.0,0.0,0.0,0.0,0.0,0.0,0.0,0.0,0.0,0.0,0.0,0.0,0.0,0.0,0.0,0.0,0.0,0.0,0.0,0.0,0.0,0.0,0.0,0.0,0.0,0.0,0.0,0.0,0.0,0.0,0.0,0.0,0.0,0.0,0.0,0.0,0.0,0.0,0.0,0.0,0.0,0.0,0.0,0.0,0.0,0.0,0.0,0.0,0.0,0.0,0.0,0.0,0.0,0.0,0.0,0.0,0.0,0.0,0.0,0.0,0.0,0.0,0.0,0.0,0.0,0.0,0.0,0.0,0.0,0.0,0.0,0.0,0.0,0.0,0.0,0.0,0.0,0.0,0.0,0.0,0.0,0.0,0.0,0.0,0.0,0.0,0.0,0.0,0.0,0.0,0.0,0.0,0.0,0.0,0.0,0.0,0.0,0.0,0.0,0.0,0.0,0.0,0.0,0.0,0.0,0.0,0.0,0.0,0.0,0.0,0.0,0.0,0.0,0.0,0.0,0.0,0.0,0.0,0.0,0.0,0.0,0.0,0.0,0.0,0.0,0.0,0.0,0.0,0.0,0.0,0.0,0.0,0.0,0.0,0.0,0.0,0.0,0.0,0.0,0.0,0.0,0.0,0.0,0.0,0.0,0.0,0.0,0.0,0.0,0.0,0.0,0.0,0.0,0.0,0.0,0.0,0.0,0.0,0.0,0.0,0.0,0.0,0.0,0.0,0.0,0.0,0.0,0.0,0.0,0.0,0.0,0.0,0.0,0.0,0.0,0.0,0.0,0.0,0.0,0.0,0.0,0.0,0.0,0.0,0.0,0.0,0.0,0.0,0.0,0.0,0.0,0.0,0.0,0.0,0.0,0.0,0.0,0.0,0.0,0.0,0.0,0.0,0.0,0.0,0.0,0.0,0.0,0.0,0.0,0.0,0.0,0.0,0.0,0.0,0.0,0.0,0.0,0.0,0.0,0.0,0.0,0.0,0.0,0.0,0.0,0.0,0.0,0.0,0.0,0.0,0.0,0.0,0.0,0.0,0.0,0.0,0.0,0.0,0.0,0.0,0.0,0.0,0.0,0.0,0.0,0.0,0.0,0.0,0.0,0.0,0.0,0.0,0.0,0.0,0.0,0.0,0.0,0.0,0.0,0.0,0.0,0.0,0.0,0.0,0.0,0.0,0.0,0.0,0.0,0.0,0.0,0.0,0.0,0.0,0.0,0.0,0.0,0.0,0.0,0.0,0.0,0.0,0.0,0.0,0.0,0.0,0.0,0.0,0.0,0.0,0.0,0.0,0.0,0.0,0.0,0.0,0.0,0.0,0.0,0.0,0.0,0.0,0.0,0.0,0.0,0.0,0.0,0.0,0.0,0.0,0.0,0.0,0.0,0.0,0.0,0.0,0.0,0.0,0.0,0.0,0.0,0.0,0.0,0.0,0.0,0.0,0.0,0.0,0.0,0.0,0.0,0.0,0.0,0.0,0.0,0.0,0.0,0.0,0.0,0.0,0.0,0.0,0.0,0.0,0.0,0.0,0.0,0.0,0.0,0.0,0.0,0.0,0.0,0.0,0.0,0.0,0.0,0.0,0.0,0.0,0.0,0.0,0.0,0.0,0.0,0.0,0.0,0.0,0.0,0.0,0.0,0.0,0.0,0.0,0.0,0.0,0.0,0.0,0.0,0.0,0.0,0.0,0.0,0.0,0.0,0.0,0.0,0.0,0.0,0.0,0.0,0.0,0.0,0.0,0.0,0.0,0.0,0.0,0.0,0.0,0.0,0.0,0.0,0.0,0.0,0.0,0.0,0.0,0.0,0.0,0.0,0.0,0.0,0.0,0.0,0.0,0.0,0.0,0.0,0.0,0.0,0.0,0.0,0.0,0.0,0.0,0.0,0.0,0.0,0.0,0.0,0.0,0.0,0.0,0.0,0.0,0.0,0.0,0.0,0.0,0.0,0.0,0.0,0.0,0.0,0.0,0.0,0.0,0.0,0.0,0.0,0.0,0.0,0.0,0.0,0.0,0.0,0.0,0.0,0.0,0.0,0.0,0.0,0.0,0.0,0.0,0.0,0.0,0.0,0.0,0.0,0.0,0.0,0.0,0.0,0.0,0.0,0.0,0.0,0.0,0.0,0.0,0.0,0.0,0.0,0.0,0.0,0.0,0.0,0.0,0.0,0.0,0.0,0.0,0.0,0.0,0.0,0.0,0.0,0.0,0.0,0.0,0.0,0.0,0.0,0.0,0.0,0.0,0.0,0.0,0.0,0.0,0.0,0.0,0.0,0.0,0.0,0.0,0.0,0.0,0.0,0.0,-2.0169,0.0,0.0,0.0,-2.1068,0.0,0.0,0.0,0.0,0.0,0.0,0.0,0.0,0.0,0.0,0.0,0.0,0.0,0.0,0.0,0.0,0.0,0.0,0.0,0.0,0.0,0.0,0.0,0.0,0.0,0.0,0.0,0.0,0.0,0.0,0.0,0.0,0.0,0.0,0.0,0.0,0.0,0.0,0.0,0.0,0.0,0.0,0.0,0.0,0.0,0.0,0.0,0.0,0.0,0.0,0.0,0.0,0.0,0.0,0.0,0.0,0.0,0.0,0.0,0.0,0.0,0.0,0.0,0.0,0.0,0.0,0.0,0.0,0.0,0.0,0.0,0.0,0.0,0.0,0.0,0.0,0.0,0.0,0.0,0.0,0.0,0.0,0.0,0.0,0.0,0.0,0.0,0.0,0.0,0.0,0.0,0.0,0.0,0.0,0.0,0.0,0.0,0.0,0.0,0.0,0.0,0.0,0.0,0.0,0.0,0.0,0.0,0.0,0.0,0.0,-2.0944,-2.1334,-2.1554,-2.1602,-2.1602,0.0,0.0,0.0,0.0,0.0,0.0,0.0,0.0,0.0,0.0,0.0,0.0,0.0,0.0,0.0,0.0,0.0,0.0,0.0,0.0,0.0,0.0,0.0,0.0,0.0,0.0,0.0,0.0,0.0,0.0,0.0,0.0,0.0,0.0,0.0,0.0,0.0,0.0,0.0,0.0,0.0,0.0,0.0,0.0,0.0,0.0,0.0,0.0,0.0,0.0,0.0,0.0,0.0,0.0,0.0,0.0,0.0,0.0,0.0,0.0,0.0,0.0,0.0,0.0,0.0,0.0,0.0,0.0,0.0,0.0,0.0,0.0,0.0,0.0,0.0,0.0,0.0,0.0,0.0,0.0,0.0,0.0,0.0,0.0,0.0,0.0,0.0,0.0,0.0,0.0,0.0,0.0,0.0,0.0,0.0,0.0,0.0,0.0,0.0,0.0,0.0,0.0,0.0,0.0,0.0,0.0,0.0,0.0,0.0,0.0,0.0,0.0,-2.246,-2.2488,-2.2205,0.0,0.0,0.0,0.0,0.0,0.0,0.0,0.0,0.0,0.0,0.0,0.0,0.0,0.0,0.0,0.0,0.0,0.0,0.0,0.0,0.0,0.0,0.0,0.0,0.0,0.0,0.0,0.0,0.0,0.0,0.0,0.0,0.0,0.0,0.0,0.0,0.0,0.0,0.0,0.0,0.0,0.0,0.0,0.0,0.0,0.0,0.0,0.0,0.0,0.0,0.0,0.0,0.0,0.0,0.0,0.0,0.0,0.0,0.0,0.0,0.0,0.0,0.0,0.0,0.0,0.0,0.0,0.0,0.0,0.0,0.0,0.0,0.0,0.0,0.0,0.0,0.0,0.0,0.0,0.0,0.0,0.0,0.0,0.0,0.0,0.0,0.0,0.0,0.0,0.0,0.0,0.0,0.0,0.0,0.0,0.0,0.0,0.0,0.0,0.0,0.0,0.0,0.0,0.0,0.0,0.0,0.0,0.0,0.0,0.0,-2.3226,-2.3521,-2.4086,0.0,-2.2923,0.0,0.0,0.0,0.0,0.0,0.0,0.0,0.0,0.0,0.0,0.0,0.0,0.0,0.0,0.0,0.0,0.0,0.0,0.0,0.0,0.0,0.0,0.0,0.0,0.0,0.0,0.0,0.0,0.0,0.0,0.0,0.0,0.0,0.0,0.0,0.0,0.0,0.0,0.0,0.0,0.0,0.0,0.0,0.0,0.0,0.0,0.0,0.0,0.0,0.0,0.0,0.0,0.0,0.0,0.0,0.0,0.0,0.0,0.0,0.0,0.0,0.0,0.0,0.0,0.0,0.0,0.0,0.0,0.0,0.0,0.0,0.0,0.0,0.0,0.0,0.0,0.0,0.0,0.0,0.0,0.0,0.0,0.0,0.0,0.0,0.0,0.0,0.0,0.0,0.0,0.0,0.0,0.0,0.0,0.0,0.0,0.0,0.0,0.0,0.0,0.0,0.0,0.0,0.0,0.0,0.0,0.0,0.0,0.0,0.0,-2.3815,-2.3938,-2.4028,-2.3817,0.0,0.0,0.0,0.0,0.0,0.0,0.0,0.0,0.0,0.0,0.0,0.0,0.0,0.0,0.0,0.0,0.0,0.0,0.0,0.0,0.0,0.0,0.0,0.0,0.0,0.0,0.0,0.0,0.0,0.0,0.0,0.0,0.0,0.0,0.0,0.0,0.0,0.0,0.0,0.0,0.0,0.0,0.0,0.0,0.0,0.0,0.0,0.0,0.0,0.0,0.0,0.0,0.0,0.0,0.0,0.0,0.0,0.0,0.0,0.0,0.0,0.0,0.0,0.0,0.0,0.0,0.0,0.0,0.0,0.0,0.0,0.0,0.0,0.0,0.0,0.0,0.0,0.0,0.0,0.0,0.0,0.0,0.0,0.0,0.0,0.0,0.0,0.0,0.0,0.0,0.0,0.0,0.0,0.0,0.0,0.0,0.0,0.0,0.0,0.0,0.0,0.0,0.0,0.0,0.0,0.0,0.0,0.0,0.0,0.0,-2.4082,-2.4705,-2.4963,-2.4549,-2.4086,-2.3575,0.0,0.0,0.0,0.0,0.0,0.0,0.0,0.0,0.0,0.0,0.0,0.0,0.0,0.0,0.0,0.0,0.0,0.0,0.0,0.0,0.0,0.0,0.0,0.0,0.0,0.0,0.0,0.0,0.0,0.0,0.0,0.0,0.0,0.0,0.0,0.0,0.0,0.0,0.0,0.0,0.0,0.0,0.0,0.0,0.0,0.0,0.0,0.0,0.0,0.0,0.0,0.0,0.0,0.0,0.0,0.0,0.0,0.0,0.0,0.0,0.0,0.0,0.0,0.0,0.0,0.0,0.0,0.0,0.0,0.0,0.0,0.0,0.0,0.0,0.0,0.0,0.0,0.0,0.0,0.0,0.0,0.0,0.0,0.0,0.0,0.0,0.0,0.0,0.0,0.0,0.0,0.0,0.0,0.0,0.0,0.0,0.0,0.0,0.0,0.0,0.0,0.0,0.0,0.0,0.0,0.0,0.0,0.0,-2.4507,-2.5288,-2.6201,-2.7149,-2.6344,-2.5379,0.0,0.0,0.0,0.0,0.0,0.0,0.0,0.0,0.0,0.0,0.0,0.0,0.0,0.0,0.0,0.0,0.0,0.0,0.0,0.0,0.0,0.0,0.0,0.0,0.0,0.0,0.0,0.0,0.0,0.0,0.0,0.0,0.0,0.0,0.0,0.0,0.0,0.0,0.0,0.0,0.0,0.0,0.0,0.0,0.0,0.0,0.0,0.0,0.0,0.0,0.0,0.0,0.0,0.0,0.0,0.0,0.0,0.0,0.0,0.0,0.0,0.0,0.0,0.0,0.0,0.0,0.0,0.0,0.0,0.0,0.0,0.0,0.0,0.0,0.0,0.0,0.0,0.0,0.0,0.0,0.0,0.0,0.0,0.0,0.0,0.0,0.0,0.0,0.0,0.0,0.0,0.0,0.0,0.0,0.0,0.0,0.0,0.0,0.0,0.0,0.0,0.0,0.0,0.0,0.0,0.0,0.0,0.0,0.0,-2.5014,-2.5908,-2.6759,-2.7327,-2.6482,-2.5487,0.0,0.0,0.0,0.0,0.0,0.0,0.0,0.0,0.0,0.0,0.0,0.0,0.0,0.0,0.0,0.0,0.0,0.0,0.0,0.0,0.0,0.0,0.0,0.0,0.0,0.0,0.0,0.0,0.0,0.0,0.0,0.0,0.0,0.0,0.0,0.0,0.0,0.0,0.0,0.0,0.0,0.0,0.0,0.0,0.0,0.0,0.0,0.0,0.0,0.0,0.0,0.0,0.0,0.0,0.0,0.0,0.0,0.0,0.0,0.0,0.0,0.0,0.0,0.0,0.0,0.0,0.0,0.0,0.0,0.0,0.0,0.0,0.0,0.0,0.0,0.0,0.0,0.0,0.0,0.0,0.0,0.0,0.0,0.0,0.0,0.0,0.0,0.0,0.0,0.0,0.0,0.0,0.0,0.0,0.0,0.0,0.0,0.0,0.0,0.0,0.0,0.0,0.0,0.0,0.0,0.0,0.0,0.0,0.0,-2.6214,-2.7504,-2.8111,-2.801,-2.7358,-2.6433,0.0,0.0,0.0,0.0,0.0,0.0,0.0,0.0,0.0,0.0,0.0,0.0,0.0,0.0,0.0,0.0,0.0,0.0,0.0,0.0,0.0,0.0,0.0,0.0,0.0,0.0,0.0,0.0,0.0,0.0,0.0,0.0,0.0,0.0,0.0,0.0,0.0,0.0,0.0,0.0,0.0,0.0,0.0,0.0,0.0,0.0,0.0,0.0,0.0,0.0,0.0,0.0,0.0,0.0,0.0,0.0,0.0,0.0,0.0,0.0,0.0,0.0,0.0,0.0,0.0,0.0,0.0,0.0,0.0,0.0,0.0,0.0,0.0,0.0,0.0,0.0,0.0,0.0,0.0,0.0,0.0,0.0,0.0,0.0,0.0,0.0,0.0,0.0,0.0,0.0,0.0,0.0,0.0,0.0,0.0,0.0,0.0,0.0,0.0,0.0,0.0,0.0,0.0,0.0,0.0,0.0,0.0,0.0,-2.6754,-2.8301,-3.0038,-3.0388,-2.9351,-2.9182,-2.8291,0.0,0.0,0.0,0.0,0.0,0.0,0.0,0.0,0.0,0.0,0.0,0.0,0.0,0.0,0.0,0.0,0.0,0.0,0.0,0.0,0.0,0.0,0.0,0.0,0.0,0.0,0.0,0.0,0.0,0.0,0.0,0.0,0.0,0.0,0.0,0.0,0.0,0.0,0.0,0.0,0.0,0.0,0.0,0.0,0.0,0.0,0.0,0.0,0.0,0.0,0.0,0.0,0.0,0.0,0.0,0.0,0.0,0.0,0.0,0.0,0.0,0.0,0.0,0.0,0.0,0.0,0.0,0.0,0.0,0.0,0.0,0.0,0.0,0.0,0.0,0.0,0.0,0.0,0.0,0.0,0.0,0.0,0.0,0.0,0.0,0.0,0.0,0.0,0.0,0.0,0.0,0.0,0.0,0.0,0.0,0.0,0.0,0.0,0.0,0.0,0.0,0.0,0.0,0.0,0.0,0.0,0.0,0.0,0.0,-3.1075,-3.1501,-3.1723,-3.154,-3.0601,-2.932,0.0,0.0,0.0,0.0,0.0,0.0,0.0,0.0,0.0,0.0,0.0,0.0,0.0,0.0,0.0,0.0,0.0,0.0,0.0,0.0,0.0,0.0,0.0,0.0,0.0,0.0,0.0,0.0,0.0,0.0,0.0,0.0,0.0,0.0,0.0,0.0,0.0,0.0,0.0,0.0,0.0,0.0,0.0,0.0,0.0,0.0,0.0,0.0,0.0,0.0,0.0,0.0,0.0,0.0,0.0,0.0,0.0,0.0,0.0,0.0,0.0,0.0,0.0,0.0,0.0,0.0,0.0,0.0,0.0,0.0,0.0,0.0,0.0,0.0,0.0,0.0,0.0,0.0,0.0,0.0,0.0,0.0,0.0,0.0,0.0,0.0,0.0,0.0,0.0,0.0,0.0,0.0,0.0,0.0,0.0,0.0,0.0,0.0,0.0,0.0,0.0,0.0,0.0,0.0,0.0,0.0,0.0,0.0,0.0,-3.5368,-3.4648,-3.4126,-3.3839,-3.2825,-3.1454,-2.9686,0.0,0.0,0.0,0.0,0.0,0.0,0.0,0.0,0.0,0.0,0.0,0.0,0.0,0.0,0.0,0.0,0.0,0.0,0.0,0.0,0.0,0.0,0.0,0.0,0.0,0.0,0.0,0.0,0.0,0.0,0.0,0.0,0.0,0.0,0.0,0.0,0.0,0.0,0.0,0.0,0.0,0.0,0.0,0.0,0.0,0.0,0.0,0.0,0.0,0.0,0.0,0.0,0.0,0.0,0.0,0.0,0.0,0.0,0.0,0.0,0.0,0.0,0.0,0.0,0.0,0.0,0.0,0.0,0.0,0.0,0.0,0.0,0.0,0.0,0.0,0.0,0.0,0.0,0.0,0.0,0.0,0.0,0.0,0.0,0.0,0.0,0.0,0.0,0.0,0.0,0.0,0.0,0.0,0.0,0.0,0.0,0.0,0.0,0.0,0.0,0.0,0.0,0.0,0.0,0.0,0.0,0.0,0.0,-4.0755,-3.9179,-3.7725,-3.6273,-3.5725,-3.4456,0.0,0.0,0.0,0.0,0.0,0.0,0.0,0.0,0.0,0.0,0.0,0.0,0.0,0.0,0.0,0.0,0.0,0.0,0.0,0.0,0.0,0.0,0.0,0.0,0.0,0.0,0.0,0.0,0.0,0.0,0.0,0.0,0.0,0.0,0.0,0.0,0.0,0.0,0.0,0.0,0.0,0.0,0.0,0.0,0.0,0.0,0.0,0.0,0.0,0.0,0.0,0.0,0.0,0.0,0.0,0.0,0.0,0.0,0.0,0.0,0.0,0.0,0.0,0.0,0.0,0.0,0.0,0.0,0.0,0.0,0.0,0.0,0.0,0.0,0.0,0.0,0.0,0.0,0.0,0.0,0.0,0.0,0.0,0.0,0.0,0.0,0.0,0.0,0.0,0.0,0.0,0.0,0.0,0.0,0.0,0.0,0.0,0.0,0.0,0.0,0.0,0.0,0.0,0.0,0.0,0.0,0.0,0.0,0.0,-4.3838,-4.3402,-4.2096,-4.002,-3.8346,-3.6607,0.0,0.0,0.0,0.0,0.0,0.0,0.0,0.0,0.0,0.0,0.0,0.0,0.0,0.0,0.0,0.0,0.0,0.0,0.0,0.0,0.0,0.0,0.0,0.0,0.0,0.0,0.0,0.0,0.0,0.0,0.0,0.0,0.0,0.0,0.0,0.0,0.0,0.0,0.0,0.0,0.0,0.0,0.0,0.0,0.0,0.0,0.0,0.0,0.0,0.0,0.0,0.0,0.0,0.0,0.0,0.0,0.0,0.0,0.0,0.0,0.0,0.0,0.0,0.0,0.0,0.0,0.0,0.0,0.0,0.0,0.0,0.0,0.0,0.0,0.0,0.0,0.0,0.0,0.0,0.0,0.0,0.0,0.0,0.0,0.0,0.0,0.0,0.0,0.0,0.0,0.0,0.0,0.0,0.0,0.0,0.0,0.0,0.0,0.0,0.0,0.0,0.0,0.0,0.0,0.0,0.0,0.0,0.0,-4.4143,-4.6137,-4.6256,-4.5515,-4.3767,-4.1426,-3.9183,0.0,0.0,0.0,0.0,0.0,0.0,0.0,0.0,0.0,0.0,0.0,0.0,0.0,0.0,0.0,0.0,0.0,0.0,0.0,0.0,0.0,0.0,0.0,0.0,0.0,0.0,0.0,0.0,0.0,0.0,0.0,0.0,0.0,0.0,0.0,0.0,0.0,0.0,0.0,0.0,0.0,0.0,0.0,0.0,0.0,0.0,0.0,0.0,0.0,0.0,0.0,0.0,0.0,0.0,0.0,0.0,0.0,0.0,0.0,0.0,0.0,0.0,0.0,0.0,0.0,0.0,0.0,0.0,0.0,0.0,0.0,0.0,0.0,0.0,0.0,0.0,0.0,0.0,0.0,0.0,0.0,0.0,0.0,0.0,0.0,0.0,0.0,0.0,0.0,0.0,0.0,0.0,0.0,0.0,0.0,0.0,0.0,0.0,0.0,0.0,0.0,0.0,0.0,0.0,0.0,0.0,0.0,0.0,-4.608,-4.7835,-4.8265,-4.8079,-4.7205,-4.4613,-4.1853,0.0,0.0,0.0,0.0,0.0,0.0,0.0,0.0,0.0,0.0,0.0,0.0,0.0,0.0,0.0,0.0,0.0,0.0,0.0,0.0,0.0,0.0,0.0,0.0,0.0,0.0,0.0,0.0,0.0,0.0,0.0,0.0,0.0,0.0,0.0,0.0,0.0,0.0,0.0,0.0,0.0,0.0,0.0,0.0,0.0,0.0,0.0,0.0,0.0,0.0,0.0,0.0,0.0,0.0,0.0,0.0,0.0,0.0,0.0,0.0,0.0,0.0,0.0,0.0,0.0,0.0,0.0,0.0,0.0,0.0,0.0,0.0,0.0,0.0,0.0,0.0,0.0,0.0,0.0,0.0,0.0,0.0,0.0,0.0,0.0,0.0,0.0,0.0,0.0,0.0,0.0,0.0,0.0,0.0,0.0,0.0,0.0,0.0,0.0,0.0,0.0,0.0,0.0,0.0,0.0,0.0,0.0,0.0,-4.8115,-5.0122,-4.9991,-4.9647,-4.9165,-4.6268,-4.357,0.0,0.0,0.0,0.0,0.0,0.0,0.0,0.0,0.0,0.0,0.0,0.0,0.0,0.0,0.0,0.0,0.0,0.0,0.0,0.0,0.0,0.0,0.0,0.0,0.0,0.0,0.0,0.0,0.0,0.0,0.0,0.0,0.0,0.0,0.0,0.0,0.0,0.0,0.0,0.0,0.0,0.0,0.0,0.0,0.0,0.0,0.0,0.0,-2.1146,0.0,0.0,0.0,0.0,0.0,0.0,0.0,0.0,0.0,0.0,0.0,0.0,0.0,0.0,0.0,0.0,0.0,0.0,0.0,0.0,0.0,0.0,0.0,0.0,0.0,0.0,0.0,0.0,0.0,0.0,0.0,0.0,0.0,0.0,0.0,0.0,0.0,0.0,0.0,0.0,0.0,0.0,0.0,0.0,0.0,0.0,0.0,0.0,0.0,0.0,0.0,0.0,0.0,0.0,0.0,0.0,0.0,0.0,0.0,-4.9977,-5.1574,-5.1712,-5.1356,-5.0581,-4.8296,-4.5685,0.0,0.0,0.0,0.0,0.0,0.0,0.0,0.0,0.0,0.0,0.0,0.0,0.0,0.0,0.0,0.0,0.0,0.0,0.0,0.0,0.0,0.0,0.0,0.0,0.0,0.0,0.0,0.0,0.0,0.0,0.0,0.0,0.0,0.0,0.0,0.0,0.0,0.0,0.0,0.0,0.0,0.0,0.0,0.0,0.0,0.0,0.0,0.0,0.0,0.0,0.0,0.0,0.0,0.0,0.0,0.0,0.0,0.0,0.0,0.0,0.0,0.0,0.0,0.0,0.0,0.0,0.0,0.0,0.0,0.0,0.0,0.0,0.0,0.0,0.0,0.0,0.0,0.0,0.0,0.0,0.0,0.0,0.0,0.0,0.0,0.0,0.0,0.0,0.0,0.0,0.0,0.0,0.0,0.0,0.0,0.0,0.0,0.0,0.0,0.0,0.0,0.0,0.0,0.0,0.0,0.0,0.0,-4.9629,-5.1674,-5.2729,-5.3209,-5.306,-5.2121,-5.0408,-4.7951,-4.456,0.0,0.0,0.0,0.0,0.0,0.0,0.0,0.0,0.0,0.0,0.0,0.0,0.0,0.0,0.0,0.0,0.0,0.0,0.0,0.0,0.0,0.0,0.0,0.0,0.0,0.0,0.0,0.0,0.0,0.0,0.0,0.0,0.0,0.0,0.0,0.0,0.0,0.0,-2.7,-2.7726,0.0,0.0,0.0,0.0,0.0,0.0,0.0,0.0,-2.729,0.0,0.0,0.0,0.0,0.0,0.0,0.0,0.0,0.0,0.0,0.0,0.0,0.0,0.0,0.0,0.0,0.0,0.0,0.0,0.0,0.0,0.0,0.0,0.0,0.0,0.0,0.0,0.0,0.0,0.0,0.0,0.0,0.0,0.0,0.0,0.0,0.0,0.0,0.0,0.0,0.0,0.0,0.0,0.0,0.0,0.0,0.0,0.0,0.0,0.0,0.0,0.0,0.0,0.0,0.0,0.0,-4.7341,-5.1307,-5.3429,-5.3375,-5.4226,-5.4616,-5.4529,-5.2122,-4.9567,-4.6991,0.0,0.0,0.0,0.0,0.0,0.0,0.0,0.0,0.0,0.0,0.0,0.0,0.0,0.0,0.0,0.0,0.0,0.0,0.0,0.0,0.0,0.0,0.0,0.0,0.0,0.0,0.0,0.0,0.0,0.0,0.0,0.0,0.0,0.0,0.0,0.0,0.0,0.0,0.0,-3.1286,-3.1685,0.0,0.0,0.0,0.0,0.0,0.0,0.0,0.0,-2.9404,0.0,0.0,0.0,0.0,0.0,0.0,0.0,0.0,0.0,0.0,0.0,0.0,0.0,0.0,0.0,0.0,0.0,0.0,0.0,0.0,0.0,0.0,0.0,0.0,0.0,0.0,0.0,0.0,0.0,0.0,0.0,0.0,0.0,0.0,0.0,0.0,0.0,0.0,0.0,0.0,0.0,0.0,0.0,0.0,0.0,0.0,0.0,0.0,0.0,0.0,0.0,0.0,0.0,0.0,0.0,-5.0253,-5.402,-5.5933,-5.6148,-5.6803,-5.6861,-5.6104,-5.3743,-5.128,0.0,0.0,0.0,0.0,0.0,0.0,0.0,0.0,0.0,0.0,0.0,0.0,0.0,0.0,0.0,0.0,0.0,0.0,0.0,0.0,0.0,0.0,0.0,0.0,0.0,0.0,0.0,0.0,0.0,0.0,0.0,0.0,0.0,0.0,0.0,0.0,0.0,0.0,0.0,0.0,-3.4089,-3.4944,-3.4616,0.0,0.0,0.0,0.0,0.0,0.0,-3.4123,-3.3455,0.0,0.0,0.0,0.0,0.0,0.0,0.0,0.0,0.0,0.0,0.0,0.0,0.0,0.0,0.0,0.0,0.0,0.0,0.0,0.0,0.0,0.0,0.0,0.0,0.0,0.0,0.0,0.0,0.0,0.0,0.0,0.0,0.0,0.0,0.0,0.0,0.0,0.0,0.0,0.0,0.0,0.0,0.0,0.0,0.0,0.0,0.0,0.0,0.0,0.0,0.0,0.0,0.0,0.0,0.0,-5.3305,-5.6599,-5.8637,-5.927,-5.9379,-5.9006,-5.8032,-5.5463,-5.297,0.0,0.0,0.0,0.0,0.0,0.0,0.0,0.0,0.0,0.0,0.0,0.0,0.0,0.0,0.0,0.0,0.0,0.0,0.0,0.0,0.0,0.0,0.0,0.0,0.0,0.0,0.0,0.0,0.0,0.0,0.0,0.0,0.0,0.0,0.0,0.0,0.0,0.0,0.0,0.0,0.0,-3.7938,-3.808,-3.8054,0.0,0.0,0.0,0.0,-3.8616,-3.8191,0.0,0.0,0.0,0.0,0.0,0.0,0.0,0.0,0.0,0.0,0.0,0.0,0.0,0.0,0.0,0.0,0.0,0.0,0.0,0.0,0.0,0.0,0.0,0.0,0.0,0.0,0.0,0.0,0.0,0.0,0.0,0.0,0.0,0.0,0.0,0.0,0.0,0.0,0.0,0.0,0.0,0.0,0.0,0.0,0.0,0.0,0.0,0.0,0.0,0.0,0.0,0.0,0.0,0.0,0.0,0.0,-5.5204,-5.8141,-6.0496,-6.1962,-6.0836,-6.0544,-6.127,-5.79,-5.5003,0.0,0.0,0.0,0.0,0.0,0.0,0.0,0.0,0.0,0.0,0.0,0.0,0.0,0.0,0.0,0.0,0.0,0.0,0.0,0.0,0.0,0.0,0.0,0.0,0.0,0.0,0.0,0.0,0.0,0.0,0.0,0.0,0.0,0.0,0.0,0.0,0.0,0.0,0.0,0.0,0.0,-4.0854,-4.1099,-4.2073,-4.2695,0.0,0.0,-4.2241,-4.1491,-4.0926,0.0,0.0,0.0,0.0,0.0,0.0,0.0,0.0,0.0,0.0,0.0,0.0,0.0,0.0,0.0,0.0,0.0,0.0,0.0,0.0,0.0,0.0,0.0,0.0,0.0,0.0,0.0,0.0,0.0,0.0,0.0,0.0,0.0,0.0,0.0,0.0,0.0,0.0,0.0,0.0,0.0,0.0,0.0,0.0,0.0,0.0,0.0,0.0,0.0,0.0,0.0,0.0,0.0,0.0,0.0,-5.4039,-5.7871,-6.0774,-6.2828,-6.3923,-6.3611,-6.3162,-6.2612,-6.0069,-5.7152,0.0,0.0,0.0,0.0,0.0,0.0,0.0,0.0,0.0,0.0,0.0,0.0,0.0,0.0,0.0,0.0,0.0,0.0,0.0,0.0,0.0,0.0,0.0,0.0,0.0,0.0,0.0,0.0,0.0,0.0,0.0,0.0,0.0,0.0,0.0,0.0,0.0,0.0,0.0,0.0,0.0,0.0,-4.3993,-4.5132,0.0,0.0,0.0,-4.614,-4.5576,0.0,0.0,0.0,0.0,0.0,0.0,0.0,0.0,0.0,0.0,0.0,0.0,0.0,0.0,0.0,0.0,0.0,0.0,0.0,0.0,0.0,0.0,0.0,0.0,0.0,0.0,0.0,0.0,0.0,0.0,0.0,0.0,0.0,0.0,0.0,0.0,0.0,0.0,0.0,0.0,0.0,0.0,0.0,0.0,0.0,0.0,0.0,0.0,0.0,0.0,0.0,0.0,0.0,0.0,0.0,0.0,0.0,-6.077,-6.3169,-6.4992,-6.6121,-6.6151,-6.561,-6.4417,-6.2491,0.0,0.0,0.0,0.0,0.0,0.0,0.0,0.0,0.0,0.0,0.0,0.0,0.0,0.0,0.0,0.0,0.0,0.0,0.0,0.0,0.0,0.0,0.0,0.0,0.0,0.0,0.0,-3.359,0.0,0.0,0.0,0.0,0.0,0.0,0.0,0.0,0.0,0.0,0.0,0.0,0.0,0.0,-4.591,-4.679,-4.8047,-4.8954,0.0,0.0,-4.9529,-4.9167,-4.7787,-4.6455,0.0,0.0,0.0,0.0,0.0,0.0,0.0,0.0,0.0,0.0,0.0,0.0,0.0,0.0,0.0,0.0,0.0,0.0,0.0,0.0,0.0,0.0,0.0,0.0,0.0,0.0,0.0,0.0,0.0,0.0,0.0,0.0,0.0,0.0,0.0,0.0,0.0,0.0,0.0,0.0,0.0,0.0,0.0,0.0,0.0,0.0,0.0,0.0,0.0,0.0,0.0,0.0,0.0,0.0,0.0,-6.3659,-6.4835,-6.6719,-6.9278,-6.812,-6.7532,-6.7585,-6.5526,-6.3334,0.0,0.0,0.0,0.0,0.0,0.0,0.0,0.0,0.0,0.0,0.0,0.0,0.0,0.0,0.0,0.0,0.0,0.0,0.0,0.0,0.0,0.0,0.0,0.0,0.0,0.0,0.0,0.0,0.0,0.0,0.0,0.0,0.0,0.0,0.0,0.0,0.0,0.0,0.0,0.0,0.0,-4.8325,-4.9197,-5.0822,-5.1993,0.0,0.0,-5.1815,-5.1277,-4.9917,-4.8525,-4.7244,0.0,0.0,0.0,0.0,0.0,0.0,0.0,0.0,0.0,0.0,0.0,0.0,0.0,0.0,0.0,0.0,0.0,0.0,0.0,0.0,0.0,0.0,0.0,0.0,0.0,0.0,0.0,0.0,0.0,0.0,0.0,0.0,0.0,0.0,0.0,0.0,0.0,0.0,0.0,0.0,0.0,0.0,0.0,0.0,0.0,0.0,0.0,0.0,0.0,0.0,0.0,0.0,0.0,-6.0867,-6.6282,-6.8055,-6.9739,-7.1231,-7.1289,-7.0775,-6.9736,-6.8411,-6.6279,0.0,0.0,0.0,0.0,0.0,0.0,0.0,0.0,0.0,0.0,0.0,0.0,0.0,0.0,0.0,0.0,0.0,0.0,0.0,0.0,0.0,0.0,0.0,0.0,0.0,0.0,0.0,0.0,-4.093,-4.1472,-4.1158,0.0,0.0,0.0,0.0,0.0,0.0,0.0,0.0,0.0,0.0,-5.0714,-5.2117,-5.3243,0.0,0.0,-5.4578,-5.4485,-5.3526,-5.2561,-5.1386,-4.9831,-4.843,0.0,0.0,0.0,0.0,0.0,0.0,0.0,0.0,0.0,0.0,0.0,0.0,0.0,0.0,0.0,0.0,0.0,0.0,0.0,0.0,0.0,0.0,0.0,0.0,0.0,0.0,0.0,0.0,0.0,0.0,0.0,0.0,0.0,0.0,0.0,0.0,0.0,0.0,0.0,0.0,0.0,0.0,0.0,0.0,0.0,0.0,0.0,0.0,0.0,0.0,0.0,0.0,-6.3285,-6.8302,-7.0731,-7.2329,-7.3046,-7.3753,-7.339,-7.2157,-7.1232,-6.9403,0.0,0.0,0.0,0.0,0.0,0.0,0.0,0.0,0.0,0.0,0.0,0.0,0.0,0.0,0.0,0.0,0.0,0.0,0.0,0.0,0.0,0.0,0.0,0.0,0.0,0.0,0.0,0.0,-4.3706,-4.3809,-4.3738,0.0,0.0,0.0,0.0,0.0,0.0,0.0,0.0,0.0,0.0,-5.3357,-5.5054,-5.5753,-5.6085,-5.6426,-5.6581,-5.647,-5.5612,-5.479,-5.3652,-5.2322,0.0,0.0,0.0,0.0,0.0,0.0,0.0,0.0,0.0,0.0,0.0,0.0,0.0,0.0,0.0,0.0,0.0,0.0,0.0,0.0,0.0,0.0,0.0,0.0,0.0,0.0,0.0,0.0,0.0,0.0,-4.0167,0.0,0.0,0.0,0.0,0.0,0.0,0.0,0.0,0.0,0.0,0.0,0.0,0.0,0.0,0.0,0.0,0.0,0.0,0.0,0.0,0.0,0.0,-6.5971,-6.9841,-7.2368,-7.4062,-7.4958,-7.5178,-7.5172,-7.4774,-7.4085,-7.2862,-7.1041,0.0,0.0,0.0,0.0,0.0,0.0,0.0,0.0,0.0,0.0,0.0,0.0,0.0,0.0,0.0,0.0,0.0,0.0,0.0,0.0,0.0,0.0,0.0,0.0,0.0,0.0,-4.6835,-4.6378,-4.6127,0.0,0.0,0.0,0.0,0.0,0.0,0.0,0.0,0.0,0.0,-5.4982,-5.6287,-5.794,-5.8285,-5.8295,-5.869,-5.7897,-5.7384,-5.7673,-5.6168,-5.4893,0.0,0.0,0.0,0.0,0.0,0.0,0.0,0.0,0.0,0.0,0.0,0.0,0.0,0.0,0.0,0.0,0.0,0.0,0.0,0.0,0.0,0.0,0.0,0.0,0.0,0.0,0.0,-3.5198,-3.7956,0.0,0.0,0.0,0.0,0.0,0.0,0.0,0.0,0.0,0.0,0.0,-6.7148,-6.793,0.0,0.0,0.0,0.0,0.0,0.0,0.0,0.0,0.0,0.0,0.0,0.0,-6.9309,-7.3296,-7.5451,-7.691,-7.7758,-7.8611,-7.8423,-7.7041,-7.7252,-7.5871,-7.2582,0.0,0.0,0.0,0.0,0.0,0.0,0.0,0.0,0.0,0.0,0.0,0.0,0.0,0.0,0.0,0.0,0.0,0.0,0.0,0.0,0.0,0.0,0.0,0.0,0.0,-5.133,0.0,0.0,0.0,0.0,0.0,0.0,0.0,0.0,0.0,0.0,0.0,-5.5284,-5.7626,-5.8524,-5.9497,-6.0935,-6.1068,-6.0954,0.0,0.0,0.0,0.0,0.0,0.0,0.0,0.0,0.0,0.0,0.0,0.0,0.0,0.0,-5.0643,-4.7741,-4.6899,-4.6576,-4.6175,0.0,0.0,0.0,0.0,0.0,0.0,0.0,0.0,0.0,0.0,0.0,0.0,0.0,0.0,-3.8183,0.0,-4.3857,0.0,0.0,0.0,0.0,0.0,0.0,0.0,0.0,-6.997,-7.1762,-7.3132,-7.3894,-7.3769,0.0,-7.2896,-7.0898,0.0,0.0,0.0,0.0,0.0,0.0,0.0,0.0,-7.2585,-7.5956,-7.8296,-7.9712,-8.0221,-8.1305,-8.1251,-7.9905,-7.9679,-7.8283,-7.532,-7.2192,-6.9033,0.0,0.0,0.0,0.0,0.0,0.0,0.0,0.0,0.0,0.0,0.0,0.0,0.0,0.0,0.0,0.0,0.0,0.0,0.0,0.0,0.0,0.0,0.0,-5.5281,0.0,0.0,0.0,0.0,0.0,0.0,0.0,0.0,0.0,-5.5581,-5.7113,-5.9171,-6.123,-6.1891,-6.2575,-6.3683,0.0,0.0,0.0,0.0,0.0,0.0,0.0,-6.0461,-5.9817,-5.9439,-5.9065,-5.7997,-5.7772,-5.7644,-5.7674,0.0,0.0,-5.1747,-5.0644,-5.0342,-5.014,-4.9812,-4.9884,-5.0426,-5.0531,-5.077,0.0,0.0,0.0,0.0,0.0,0.0,0.0,0.0,-3.8303,-4.146,0.0,-4.7913,0.0,0.0,0.0,0.0,0.0,-6.773,0.0,0.0,-7.5501,-7.7044,-7.8825,-7.9183,-7.9385,-7.9585,-7.9665,-7.9689,-7.9214,-7.1338,0.0,0.0,0.0,0.0,0.0,0.0,-7.5777,-7.7767,-8.0951,-8.2486,-8.2251,-8.3041,-8.3484,-8.3375,-8.1525,-8.0188,-7.9324,-7.6406,-7.3308,-7.0202,-6.7065,0.0,0.0,0.0,0.0,0.0,0.0,0.0,0.0,0.0,0.0,0.0,0.0,0.0,0.0,0.0,0.0,0.0,0.0,0.0,0.0,-5.7907,0.0,0.0,0.0,0.0,0.0,0.0,0.0,0.0,0.0,0.0,-5.9919,-6.1122,-6.2794,-6.4652,0.0,0.0,0.0,0.0,-6.4872,-6.4729,-6.4136,-6.3877,-6.3784,-6.3227,-6.2666,-6.2511,0.0,0.0,-6.0947,-6.1189,-6.1371,-6.1309,-6.1102,-5.9644,-5.5679,-5.4628,-5.4232,-5.3994,-5.4093,-5.4505,-5.496,-5.4991,-5.5333,-3.0439,0.0,0.0,0.0,0.0,-3.3448,-3.5448,-3.8234,-4.0983,-4.4366,-4.8191,-5.2149,0.0,0.0,0.0,0.0,0.0,0.0,-7.5994,-7.8446,-8.0197,-8.1776,-8.3123,-8.3966,-8.4172,-8.3852,-8.3948,-8.3742,-8.3152,-8.0817,-7.8032,-7.4983,0.0,0.0,0.0,0.0,-8.0621,-8.2027,-8.3766,-8.4778,-8.486,-8.5472,-8.5603,-8.5275,-8.4044,-8.2632,-8.1182,-7.9621,-7.7291,-7.4212,-7.1194,0.0,0.0,0.0,0.0,0.0,0.0,0.0,0.0,0.0,0.0,0.0,0.0,0.0,0.0,0.0,0.0,0.0,0.0,0.0,-6.3685,-6.3344,-6.2927,0.0,0.0,0.0,0.0,0.0,0.0,0.0,0.0,0.0,-6.7435,-6.6452,-6.6369,0.0,0.0,-6.9267,-6.9931,-6.9694,-6.9303,-6.888,-6.8243,0.0,-6.7456,-6.6642,-6.6129,-6.6362,-6.5808,-6.5161,-6.494,-6.4685,-6.467,-6.467,-6.4392,-6.3735,-6.2319,-6.0008,-5.8537,-5.8051,-5.7945,-5.7768,-5.7724,-5.8164,-5.865,-3.2925,-3.2342,-3.2033,-3.2711,-3.4399,-3.5492,-3.7575,-4.0158,-4.3504,-4.7253,-5.1327,-5.5821,-6.0385,-6.4871,-6.9471,0.0,0.0,0.0,-8.0339,-8.2418,-8.4088,-8.5514,-8.6722,-8.7834,-8.8246,-8.8057,-8.8204,-8.8091,-8.775,-8.7816,-8.6561,-8.3925,0.0,0.0,-8.1561,-8.2996,-8.4225,-8.513,-8.6349,-8.6982,-8.6959,-8.7398,-8.7399,-8.7031,-8.6127,-8.5049,-8.4025,-8.2818,-8.0973,-7.8507,-7.5717,-7.2643,0.0,0.0,0.0,0.0,0.0,0.0,0.0,0.0,0.0,0.0,0.0,-5.3763,-5.626,0.0,0.0,0.0,-6.3137,-6.5303,-6.8185,-6.7481,0.0,0.0,0.0,0.0,0.0,0.0,0.0,-6.7522,-6.9262,-7.1045,-7.305,-7.2161,-7.1453,-7.2063,-7.2228,-7.2365,-7.2506,0.0,-7.2339,-7.1743,-7.1409,-7.1196,-7.0801,-7.0099,-6.9609,-6.9536,-6.9093,-6.8713,-6.8329,-6.8131,-6.805,-6.8021,-6.7766,-6.7423,-6.6902,-6.5076,-6.3092,-6.1718,-6.1212,-6.1119,-6.1091,-6.151,-6.1789,-3.4522,-3.4531,-3.415,-3.4392,-3.5411,-3.7081,-3.921,-4.1542,-4.5776,-4.9875,-5.4178,-5.91,-6.4326,-7.006,-7.7389,0.0,-8.146,-8.2575,-8.4177,-8.6177,-8.7307,-8.8466,-8.9684,-9.0723,-9.1457,-9.1848,-9.2083,-9.2321,-9.2546,-9.267,-9.2833,-9.2773,-8.8071,-8.5858,-8.6238,-8.6645,-8.707,-8.7598,-8.8805,-8.9228,-8.89,-8.9122,-8.9122,-8.8917,-8.8091,-8.7528,-8.7378,-8.5957,-8.4348,-8.259,-8.0361,-7.7292,-7.3447,0.0,0.0,0.0,0.0,0.0,0.0,0.0,0.0,0.0,0.0,0.0,0.0,0.0,0.0,0.0,-6.8802,0.0,-7.0766,-7.0904,0.0,0.0,0.0,-6.96,-7.0239,-6.9983,-7.0845,-7.3756,0.0,0.0,-7.7317,-7.7835,-7.7509,-7.6107,-7.5398,-7.4962,-7.4762,-7.4847,-7.451,-7.4107,-7.4225,-7.4272,-7.3936,-7.357,-7.3046,-7.2483,-7.2068,-7.1752,-7.1367,-7.1367,-7.1268,-7.1337,-7.1038,-7.0629,-7.0003,-6.9376,-6.8366,-6.5309,-6.4496,-6.4438,-6.4728,-6.468,-6.4737,-3.5836,-3.6503,-3.6448,-3.625,-3.6467,-3.8309,-4.0416,-4.28,-4.6825,-5.1108,-5.6002,-6.1647,-6.9027,-7.7373,-8.11,-8.3588,-8.5072,-8.6175,-8.7524,-8.9064,-8.9612,-9.0548,-9.1819,-9.2312,-9.2795,-9.3219,-9.3551,-9.3814,-9.4201,-9.5003,-9.541,-9.546,-9.4879,-9.3302,-9.0846,-9.1316,-9.1655,-9.1571,-9.2271,-9.2411,-9.1953,-9.188,-9.1719,-9.1331,-9.1128,-9.0344,-8.8926,-8.8511,-8.7283,-8.5122,-8.3273,-8.1283,-7.9191,-7.6028,0.0,0.0,0.0,0.0,0.0,0.0,0.0,0.0,0.0,-6.5348,-6.8296,0.0,-7.1143,0.0,-7.4203,-7.4952,-7.5679,-7.5277,0.0,0.0,-7.4542,-7.433,-7.4977,-7.5332,-7.5964,-7.7086,-7.831,-7.9634,-8.1232,-8.1594,-8.2056,-8.2578,-8.0274,-7.8597,-7.9013,-7.8822,-7.8389,-7.7899,-7.7628,-7.7253,-7.6959,-7.6446,-7.5958,-7.5465,-7.5216,-7.4809,-7.443,-7.4206,-7.4078,-7.4078,-7.3723,-7.3404,-7.2962,-7.257,-7.2038,-7.0837,-6.853,-6.6506,-6.6487,-6.6776,-6.7122,-3.716,-3.7409,-3.7602,-3.7632,-3.7712,-3.954,-4.1691,-4.4322,-4.8537,-5.3076,-5.8086,-6.6198,-7.4022,-8.1121,-8.3821,-8.6156,-8.8211,-8.9261,-9.035,-9.1455,-9.2183,-9.3029,-9.3921,-9.4734,-9.5304,-9.5752,-9.6172,-9.6553,-9.6895,-9.7559,-9.7962,-9.8046,-9.8546,-9.7809,-9.5879,-9.5016,-9.431,-9.3729,-9.3843,-9.3769,-9.3409,-9.3254,-9.3009,-9.2741,-9.2695,-9.21,-9.0987,-9.0656,-8.9669,-8.7969,-8.6343,-8.4719,-8.3088,-8.0353,-7.7837,0.0,0.0,0.0,0.0,0.0,0.0,0.0,0.0,0.0,0.0,0.0,-7.6544,-7.8516,-7.8949,-7.9324,-7.9632,-7.9332,-7.9324,-7.9596,-7.9099,-7.8898,-7.9562,-8.0151,-8.0804,-8.1379,-8.2706,-8.3882,-8.4541,-8.4967,-8.5614,-8.6736,-8.4948,-8.3114,-8.196,-8.1751,-8.178,-8.1223,-8.1213,-8.1173,-8.082,-8.0223,-7.9861,-7.9495,-7.9125,-7.8784,-7.8408,-7.8155,-7.7807,-7.7399,-7.6825,-7.6222,-7.5569,-7.4898,-7.4415,-7.3668,-7.2219,-7.0669,-6.9693,-6.9796,-7.0149,-3.8127,-3.8077,-3.8644,-3.8859,-3.9339,-4.1235,-4.3342,-4.5675,-5.0197,-5.542,-6.1418,-7.136,-7.8496,-8.338,-8.5907,-8.8418,-9.0718,-9.1728,-9.2631,-9.3314,-9.4446,-9.518,-9.5687,-9.6968,-9.7773,-9.8232,-9.8862,-9.9336,-9.9716,-10.0164,-10.0448,-10.0548,-10.0734,-10.0733,-10.0428,-9.8228,-9.6486,-9.5301,-9.4884,-9.4607,-9.4459,-9.415,-9.3977,-9.3831,-9.3677,-9.3478,-9.3148,-9.2546,-9.1739,-9.0814,-8.9332,-8.7846,-8.624,-8.3982,-8.2373,0.0,-7.9267,0.0,0.0,0.0,0.0,0.0,0.0,0.0,0.0,-7.9603,-8.1382,-8.293,-8.3325,-8.3399,-8.3238,-8.3337,-8.3399,-8.3399,-8.33,-8.3408,-8.4092,-8.4595,-8.5233,-8.5834,-8.6938,-8.7705,-8.7774,-8.8128,-8.8634,-8.9534,-8.9182,-8.7572,-8.4781,-8.4659,-8.4809,-8.4052,-8.4677,-8.4688,-8.4207,-8.3985,-8.3596,-8.3421,-8.2961,-8.2729,-8.2072,-8.1854,-8.16,-8.0649,-7.9953,-7.9096,-7.784,-7.7144,-7.6572,-7.5913,-7.5574,-7.4979,-7.3416,-7.2992,-7.316,-3.9166,-3.952,-4.0086,-4.0847,-4.1785,-4.3529,-4.4696,-4.5675,-4.9867,-5.7737,-6.8207,-7.4737,-8.0528,-8.5498,-8.7706,-8.9823,-9.2004,-9.2903,-9.3599,-9.4259,-9.5001,-9.5539,-9.6005,-9.6686,-9.7272,-9.7952,-9.9086,-9.9895,-10.0354,-10.1982,-10.2927,-10.3138,-10.3881,-10.3608,-10.2332,0.0,0.0,0.0,-9.8122,-9.7648,-9.7455,-9.6669,-9.6193,-9.6004,-9.5919,0.0,-9.4561,-9.4331,-9.3792,-9.283,-9.1911,0.0,0.0,0.0,0.0,0.0,0.0,0.0,0.0,0.0,0.0,0.0,-8.471,-8.4816,-8.3633,-8.5197,-8.6401,-8.6423,-8.7154,-8.7508,-8.7369,-8.7369,-8.7369,-8.7369,-8.7369,-8.7608,-8.8391,-8.8591,-8.8902,-8.9533,-8.9711,-9.0284,-9.1338,-9.1178,-9.1433,-9.243,-9.2228,-9.1362,-9.0069,-8.8607,-8.7676,-8.7223,-8.6888,-8.6475,-8.5996,-8.5805,-8.553,-8.5086,-8.4738,-8.4537,-8.4129,-8.3616,-8.3309,-8.2961,-8.238,-8.1851,-8.1249,-8.0872,-8.0143,-7.9257,-7.9068,-7.828,-7.5297,-7.4605,-7.4721,-4.0838,0.0,-4.1658,-4.2343,0.0,-4.4546,-4.6179,-4.8011,-5.1743,-5.9929,-7.1086,-7.6576,-8.1822,-8.6607,-8.9358,-9.188,-9.4034,-9.5036,-9.5749,-9.6421,-9.7027,-9.7533,-9.7979,-9.8692,-9.9254,-9.9858,-10.0604,-10.136,-10.2164,-10.3645,-10.4312,-10.4209,-10.4793,-10.4687,-10.3982,-10.4027,-10.2773,-10.009,-9.9579,-9.9257,-9.9093,-9.8624,-9.8256,-9.8103,-9.8003,0.0,0.0,0.0,0.0,0.0,0.0,0.0,0.0,0.0,0.0,-9.009,-8.8815,-8.8238,-8.8661,-8.8282,-8.8205,-8.8589,-9.0063,-9.0187,-8.8428,-8.9184,-8.9779,-8.9956,-9.0372,-9.0637,-9.0533,-9.0533,-9.0533,-9.0495,-9.0533,-9.0819,-9.1504,-9.1939,-9.2392,-9.2951,-9.3297,-9.3774,-9.4334,-9.4057,-9.4064,-9.4816,-9.4439,-9.3958,-9.3543,-9.1701,-9.0234,-9.0015,-8.9536,-8.9117,-8.8905,-8.8584,-8.8225,-8.8041,-8.7632,-8.7183,-8.6875,-8.6414,-8.5931,-8.5248,-8.4674,-8.4249,-8.3495,-8.2911,-8.2445,-8.1999,-8.1687,-8.1151,-7.9287,-7.803,-7.7024,-4.2416,-4.2602,-4.3021,-4.3656,-4.4343,-4.5718,-4.8188,-5.1745,0.0,0.0,0.0,-7.7685,-8.2777,-8.7322,-9.0632,-9.3344,-9.5603,-9.6669,-9.7471,-9.8152,-9.884,-9.9385,-9.9834,-10.0711,-10.1321,-10.1862,-10.2129,-10.2838,-10.3821,-10.4942,-10.5325,-10.502,-10.5264,-10.5359,-10.5321,-10.5348,-10.3936,-10.1244,-10.0759,-10.0459,-10.0203,-9.9997,-9.9853,-9.9646,-9.9614,-9.9421,-9.9095,-9.8501,-9.7781,-9.696,-9.6371,-9.5631,-9.4744,-9.401,-9.3585,-9.3392,-9.2813,-9.2427,-9.2427,-9.2427,-9.2775,-9.3616,-9.4248,-9.3823,-9.2126,-9.2083,-9.246,-9.3174,-9.332,-9.3473,-9.3625,-9.3625,-9.3663,-9.3663,-9.3625,-9.3838,-9.4285,-9.4882,-9.5427,-9.6014,-9.6364,-9.6762,-9.6722,-9.6441,-9.6404,-9.675,-9.6388,-9.6031,-9.5845,-9.4028,-9.2436,-9.2435,-9.221,-9.208,-9.2154,-9.1885,-9.1438,-9.1057,-9.0529,-9.0024,-8.9593,-8.9228,-8.8543,-8.7598,-8.7042,-8.638,-8.5617,-8.4965,-8.4478,-8.4227,-8.402,-8.3747,-8.343,-8.1672,-8.0165,-4.3587,-4.3992,-4.4598,-4.5168,-4.5718,-4.7725,-5.1691,-5.7261,-6.0863,-6.6246,-7.2606,-7.809,-8.3306,-8.8013,-9.0452,-9.2778,-9.4855,-9.583,-9.6796,0.0,-9.839,-9.9113,-9.9612,-10.0303,-10.0947,-10.1581,-10.2678,-10.355,-10.4291,-10.5512,-10.6218,-10.6387,-10.6679,-10.6575,-10.6099,-10.5477,-10.4957,-10.4584,-10.3125,-10.2041,-10.1274,-10.0509,-10.0034,-9.9942,-9.9949,-9.973,-9.9501,-9.9371,-9.9144,-9.8919,-9.8803,-9.8339,-9.7518,-9.7286,-9.6976,-9.628,-9.6125,-9.6048,-9.6048,-9.6087,-9.6426,-9.7257,-9.7451,-9.6344,-9.3713,-9.406,-9.4715,-9.5443,-9.6172,-9.6938,-9.7507,-9.7469,-9.7392,-9.7469,-9.7546,-9.7576,-9.7445,-9.756,-9.7662,-9.7791,-9.7638,-9.7858,-9.8376,-9.81,-9.8003,-9.844,-9.8133,-9.7715,-9.7353,-9.5663,-9.4518,-9.4545,-9.4537,-9.4634,-9.4737,-9.4897,-9.4313,-9.3291,-9.3085,-9.2472,-9.1334,-9.0883,-9.0463,-9.0113,-8.9397,-8.8811,-8.834,-8.8136,-8.7343,-8.6529,-8.6164,-8.5882,-8.5218,-8.4438,-8.3854,-4.5686,-4.5873,-4.6495,-4.7013,-4.7816,-5.0935,-5.4942,-5.9217,-6.3538,-6.8229,-7.3313,-7.8833,-8.3735,-8.7921,-9.0747,-9.3123,-9.4981,-9.6121,-9.7013,-9.7774,-9.8772,-9.9583,-10.0239,-10.1017,-10.1746,-10.2427,-10.32,-10.3984,-10.4683,-10.5486,-10.6041,-10.6332,-10.674,-10.6902,-10.6731,-10.6527,-10.6208,-10.5842,-10.4774,-10.4023,-10.3626,-10.3173,-10.2928,-10.2893,-10.2801,-10.2707,-10.2512,-10.2062,-10.1526,-10.0948,-10.0483,-9.9824,-9.897,-9.8932,-9.8738,-9.8389,-9.835,-9.835,-9.8389,-9.835,-9.8531,-9.8944,-9.8944,-9.8428,-9.7064,-9.7187,-9.7446,-9.7765,-9.8156,-9.8541,-9.8818,-9.8857,-9.8895,-9.8857,-9.8895,-9.9052,-9.9288,-9.9365,-9.9441,-9.9658,-9.9555,-9.9572,-9.9908,-9.9556,-9.9547,-10.0141,-10.0037,-9.9797,-9.9699,-9.8725,-9.7625,-9.7041,-9.6806,-9.695,-9.7047,-9.6815,-9.6454,-9.5821,-9.5414,-9.4716,-9.366,-9.3095,-9.2525,-9.1774,-9.1195,-9.0884,-9.0463,-9.007,-8.9465,-8.9075,-8.8574,-8.8104,-8.7644,-8.735,-8.6512,-4.7641,-4.7828,-4.856,-4.9421,-5.0602,-5.4106,-5.7522,-6.0728,-6.5184,-6.9669,-7.3993,-7.9354,-8.3757,-8.752,-9.0763,-9.3249,-9.5091,-9.6476,-9.7601,-9.8512,-9.9479,-10.0435,-10.1174,-10.2052,-10.2832,-10.3527,-10.3934,-10.4581,-10.5292,-10.5696,-10.6106,-10.6605,-10.7104,-10.7349,-10.7269,-10.7546,-10.7321,-10.6605,-10.6116,-10.5711,-10.5388,-10.5388,-10.537,-10.5326,-10.5261,-10.5182,-10.5005,-10.4403,-10.3686,-10.2961,-10.2106,-10.1328,-10.0706,-10.0434,-10.0356,-10.0356,-10.0356,-10.0356,-10.0356,-10.0356,-10.0356,-10.0377,-10.0377,-10.0377,-10.0356,-10.0245,-9.9979,-9.9754,-9.9686,-9.9764,-9.9996,-10.0035,-9.9996,-9.9958,-9.9967,-10.0218,-10.0563,-10.0684,-10.0894,-10.1404,-10.14,-10.1315,-10.1417,-10.1185,-10.1165,-10.1572,-10.1767,-10.1724,-10.1769,-10.1533,-10.0768,-10.0056,-9.9407,-9.9206,-9.9199,-9.8984,-9.8625,-9.8396,-9.7861,-9.7027,-9.6132,-9.561,-9.5101,-9.3877,-9.3272,-9.2911,-9.235,-9.1774,-9.1298,-9.0988,-9.0571,-9.0323,-8.9859,-8.9642,-8.8777,-4.9089,-5.0104,-5.0654,-5.2418,-5.4572,-5.6479,-5.9138,-6.2572,-6.6668,-7.0724,-7.4883,-7.8775,-8.2789,-8.6693,-9.0063,-9.2642,-9.4756,-9.6646,-9.804,-9.9148,-10.0309,-10.1282,-10.2135,-10.2998,-10.3786,-10.4614,-10.4985,-10.5476,-10.6214,-10.6767,-10.7425,-10.8239,-10.8552,-10.8415,-10.8015,-10.8098,-10.7946,-10.7416,-10.7383,-10.6742,-10.5393,-10.5349,-10.5427,-10.5374,-10.5399,-10.5318,-10.5312,-10.5117,-10.4999,-10.4806,-10.4026,-10.3598,-10.3403,-10.2741,-10.2312,-10.2296,-10.2296,-10.2351,-10.2296,-10.2335,-10.2273,-10.2397,-10.2319,-10.2319,-10.2319,-10.2343,-10.1911,-10.109,-10.0866,-10.1138,-10.1915,-10.1953,-10.1837,-10.1759,-10.1788,-10.1906,-10.1786,-10.1796,-10.2019,-10.2731,-10.2593,-10.279,-10.3329,-10.3242,-10.3052,-10.28,-10.2868,-10.295,-10.3225,-10.3112,-10.3104,-10.3088,-10.228,-10.1462,-10.1648,-10.1717,-10.1121,-10.0409,-10.0026,-9.9382,-9.8473,-9.7803,-9.7254,-9.6574,-9.588,-9.5071,-9.4617,-9.3888,-9.3049,-9.2779,-9.2449,-9.1975,-9.1502,-9.1437,-9.064,-5.2037,-5.3014,-5.3365,-5.4699,-5.6647,-5.8406,-6.0975,-6.417,-6.8111,-7.1896,-7.5544,-7.9401,-8.3101,-8.6664,-8.9347,-9.1988,-9.4345,-9.5977,-9.7425,-9.8789,-9.9811,-10.0721,-10.1781,-10.2515,-10.3303,-10.4249,-10.4797,-10.5393,-10.6025,-10.6742,-10.7454,-10.8131,-10.8422,-10.8547,-10.8492,-10.8289,-10.809,-10.8038,-10.7705,-10.7264,-10.6806,-10.6818,-10.6905,-10.6914,-10.6951,-10.6898,-10.6747,-10.6341,-10.6051,-10.5932,-10.5191,-10.4489,-10.3981,-10.363,-10.319,-10.2737,-10.2647,-10.2673,-10.2659,-10.2659,-10.2671,-10.2743,-10.2743,-10.2733,-10.2683,-10.2683,-10.2478,-10.2117,-10.1971,-10.2129,-10.2401,-10.2498,-10.2498,-10.2479,-10.2401,-10.2339,-10.2256,-10.2642,-10.3015,-10.3211,-10.3552,-10.3841,-10.4199,-10.4483,-10.448,-10.4303,-10.4392,-10.4664,-10.4861,-10.4748,-10.4745,-10.4866,-10.425,-10.3677,-10.3402,-10.3101,-10.2744,-10.2416,-10.209,-10.161,-10.0536,-10.0088,-9.9632,-9.8913,-9.8026,-9.7439,-9.7198,-9.6574,-9.5809,-9.5341,-9.4951,-9.4705,-9.4358,-9.4128,-9.3601,-5.4595,-5.5729,-5.6225,-5.7277,-5.8771,-6.0807,-6.3196,-6.5982,-6.9637,-7.289,-7.6371,-8.0047,-8.3602,-8.679,-8.9146,-9.1624,-9.4075,-9.5654,-9.7115,-9.8645,-9.9599,-10.055,-10.1659,-10.2465,-10.3347,-10.4168,-10.4949,-10.5654,-10.6389,-10.7166,-10.7848,-10.8398,-10.8717,-10.8997,-10.9051,-10.8531,-10.8286,-10.8237,-10.7728,-10.7494,-10.7615,-10.7769,-10.7903,-10.7952,-10.8001,-10.7968,-10.7923,-10.737,-10.7045,-10.6955,-10.6168,-10.5263,-10.4443,-10.417,-10.3655,-10.2859,-10.2763,-10.2763,-10.2742,-10.2742,-10.275,-10.2803,-10.2842,-10.2796,-10.275,-10.2742,-10.2733,-10.2704,-10.2671,-10.2634,-10.2631,-10.2631,-10.2631,-10.2631,-10.2757,-10.2863,-10.2867,-10.3509,-10.4021,-10.4156,-10.466,-10.5013,-10.5194,-10.557,-10.5785,-10.564,-10.5864,-10.6161,-10.6117,-10.5863,-10.5763,-10.5801,-10.562,-10.523,-10.4513,-10.4115,-10.4029,-10.3877,-10.3571,-10.3148,-10.2354,-10.2211,-10.1966,-10.1091,-10.0315,-9.9682,-9.9264,-9.8789,-9.8281,-9.8032,-9.7657,-9.71,-9.6742,-9.6616,-9.6434,-5.6393,-5.7969,-5.9506,-6.0633,-6.1816,-6.3727,-6.5795,-6.7957,-7.0909,-7.402,-7.7343,-8.0438,-8.3674,-8.6945,-8.9793,-9.2006,-9.3926,-9.5888,-9.7507,-9.8906,-10.01,-10.1283,-10.2488,-10.35,-10.4297,-10.489,-10.5681,-10.6746,-10.7885,-10.8555,-10.9157,-10.9613,-10.9959,-11.0041,-10.9666,-10.909,-10.8646,-10.8238,-10.757,-10.7236,-10.7494,-10.7654,-10.7756,-10.7894,-10.7964,-10.7987,-10.7964,-10.7968,-10.7928,-10.7925,-10.71,-10.6234,-10.5374,-10.4554,-10.3734,-10.3027,-10.291,-10.291,-10.2949,-10.3027,-10.3027,-10.2992,-10.3109,-10.2949,-10.3105,-10.3144,-10.3095,-10.2849,-10.2999,-10.2937,-10.2878,-10.2788,-10.2749,-10.2827,-10.3388,-10.3712,-10.3829,-10.4499,-10.5262,-10.5825,-10.5971,-10.6201,-10.6804,-10.698,-10.682,-10.6658,-10.6599,-10.6564,-10.6488,-10.633,-10.6249,-10.6203,-10.6117,-10.594,-10.5268,-10.4947,-10.478,-10.4666,-10.4513,-10.4395,-10.4214,-10.4016,-10.3652,-10.3205,-10.2378,-10.1663,-10.1232,-10.0684,-10.0093,-9.9682,-9.9333,-9.8899,-9.9038,-9.8546,-9.837,-5.8761,-6.0721,-6.2076,-6.3226,-6.4009,-6.568,-6.7531,-6.9506,-7.2315,-7.5245,-7.8343,-8.1673,-8.4743,-8.7493,-9.0162,-9.2391,-9.4213,-9.59,-9.7404,-9.8873,-9.993,-10.0983,-10.1998,-10.2904,-10.3706,-10.4536,-10.5397,-10.6517,-10.774,-10.8254,-10.881,-10.9422,-10.9941,-11.0199,-11.0154,-10.9297,-10.8755,-10.8607,-10.7581,-10.7067,-10.7236,-10.7449,-10.7559,-10.7714,-10.7866,-10.7918,-10.7932,-10.7952,-10.8001,-10.8003,-10.7693,-10.7147,-10.621,-10.4882,-10.3746,-10.308,-10.3386,-10.3699,-10.378,-10.4212,-10.4525,-10.4568,-10.4568,-10.4488,-10.4525,-10.4525,-10.448,-10.4433,-10.4433,-10.4423,-10.4177,-10.346,-10.2984,-10.3538,-10.3865,-10.4314,-10.4851,-10.552,-10.6108,-10.6403,-10.6799,-10.7204,-10.7254,-10.7363,-10.7301,-10.7135,-10.7006,-10.6912,-10.6885,-10.6744,-10.6637,-10.6602,-10.6565,-10.6449,-10.6122,-10.5696,-10.5434,-10.5358,-10.5216,-10.511,-10.5002,-10.4854,-10.4515,-10.4265,-10.3686,-10.3464,-10.2949,-10.2586,-10.1974,-10.1774,-10.1312,-10.1054,-10.1315,-10.0907,-10.0794,-6.1519,-6.3103,-6.4765,-6.5516,-6.6076,-6.7715,-6.9325,-7.1314,-7.3913,-7.6561,-7.97,-8.2896,-8.5624,-8.792,-9.0391,-9.2493,-9.4164,-9.5607,-9.7027,-9.8546,-9.9616,-10.0535,-10.1567,-10.2386,-10.3208,-10.4096,-10.5217,-10.635,-10.7472,-10.7889,-10.8429,-10.9168,-10.9606,-11.0075,-11.032,-10.9486,-10.9035,-10.9065,-10.7949,-10.7155,-10.7114,-10.722,-10.7401,-10.7519,-10.7714,-10.7805,-10.7915,-10.7918,-10.7976,-10.7982,-10.7987,-10.7601,-10.6663,-10.5345,-10.4296,-10.3867,-10.4216,-10.4529,-10.4647,-10.5117,-10.5429,-10.5469,-10.5468,-10.5429,-10.5428,-10.5427,-10.5425,-10.542,-10.5417,-10.5417,-10.5183,-10.432,-10.3886,-10.4476,-10.4774,-10.5153,-10.5778,-10.651,-10.6896,-10.7015,-10.7416,-10.7667,-10.7615,-10.7598,-10.7516,-10.7401,-10.7288,-10.7236,-10.7164,-10.7105,-10.6975,-10.6918,-10.6885,-10.6976,-10.7025,-10.6905,-10.6298,-10.6093,-10.6001,-10.5916,-10.5849,-10.5713,-10.5524,-10.5254,-10.5056,-10.4892,-10.4686,-10.4395,-10.4153,-10.3941,-10.3539,-10.3099,-10.3233,-10.3185,-10.2901,-6.4647,-6.5659,-6.7236,-6.7922,-6.8105,-6.9966,-7.1718,-7.3195,-7.5598,-7.8374,-8.1177,-8.3861,-8.6476,-8.8624,-9.0726,-9.235,-9.4027,-9.5375,-9.6806,-9.8126,-9.9061,-10.0079,-10.1204,-10.2069,-10.3006,-10.3902,-10.5217,-10.6423,-10.7316,-10.774,-10.8216,-10.8907,-10.9359,-10.9845,-11.0405,-10.9723,-10.9562,-10.9628,-10.849,-10.7565,-10.7083,-10.7308,-10.7414,-10.7494,-10.7593,-10.7693,-10.7886,-10.7915,-10.7903,-10.7903,-10.7937,-10.7601,-10.6737,-10.5843,-10.5374,-10.5261,-10.5345,-10.5386,-10.5425,-10.5543,-10.574,-10.578,-10.5583,-10.574,-10.582,-10.5742,-10.5742,-10.5741,-10.5701,-10.5582,-10.5621,-10.5504,-10.5384,-10.5495,-10.596,-10.6429,-10.6815,-10.7435,-10.7957,-10.7837,-10.7855,-10.7883,-10.7795,-10.7752,-10.7705,-10.7578,-10.7519,-10.7477,-10.7425,-10.7352,-10.7248,-10.7231,-10.7367,-10.7618,-10.7911,-10.8122,-10.7409,-10.6873,-10.6792,-10.6749,-10.6852,-10.6764,-10.6706,-10.649,-10.6433,-10.6286,-10.6134,-10.5939,-10.5719,-10.5462,-10.5158,-10.4988,-10.4894,-10.4818,-10.4395,-6.5914,-6.7236,-6.8858,-6.9556,-7.0145,-7.2435,-7.3993,-7.5283,-7.7898,-8.0519,-8.3057,-8.5335,-8.7524,-8.9712,-9.1457,-9.3025,-9.4572,-9.5771,-9.6967,-9.8003,-9.8941,-9.9999,-10.0907,-10.1891,-10.3006,-10.4383,-10.5343,-10.6218,-10.7079,-10.7511,-10.8072,-10.8773,-10.9232,-10.9764,-11.0281,-10.9747,-10.9542,-10.9666,-10.8975,-10.8411,-10.8338,-10.8591,-10.8516,-10.8094,-10.822,-10.8155,-10.7676,-10.7752,-10.786,-10.7883,-10.7924,-10.7559,-10.6838,-10.6453,-10.6029,-10.5531,-10.5964,-10.6276,-10.6355,-10.6823,-10.7139,-10.7217,-10.7178,-10.7217,-10.7217,-10.7142,-10.7142,-10.7144,-10.7185,-10.7187,-10.7187,-10.7187,-10.6874,-10.6366,-10.6558,-10.6986,-10.7454,-10.7839,-10.7943,-10.7976,-10.7964,-10.795,-10.7933,-10.7915,-10.7821,-10.7806,-10.7776,-10.7728,-10.7675,-10.7752,-10.7827,-10.8109,-10.8256,-10.8531,-10.906,-10.9392,-10.9082,-10.8504,-10.8286,-10.7872,-10.7875,-10.7875,-10.7831,-10.7748,-10.7702,-10.7615,-10.7519,-10.7434,-10.7188,-10.7236,-10.7225,-10.6919,-10.6547,-10.622,-10.5981,-6.7604,-6.9189,-7.0758,-7.1675,-7.2409,-7.4714,-7.6168,-7.7616,-8.0021,-8.2349,-8.4504,-8.6506,-8.853,-9.04,-9.189,-9.3443,-9.4809,-9.5935,-9.7127,-9.8126,-9.8941,-9.9883,-10.0907,-10.2069,-10.3487,-10.5027,-10.5489,-10.6047,-10.6998,-10.7394,-10.7963,-10.8605,-10.9206,-10.9644,-11.0151,-10.9932,-10.9837,-10.9973,-10.9482,-10.9239,-10.9332,-10.9302,-10.9062,-10.873,-10.8608,-10.8256,-10.7818,-10.7713,-10.7689,-10.7806,-10.786,-10.7642,-10.7208,-10.713,-10.6903,-10.6604,-10.681,-10.7201,-10.724,-10.7635,-10.8026,-10.803,-10.8026,-10.7987,-10.7991,-10.7991,-10.7991,-10.7991,-10.7959,-10.8001,-10.7962,-10.8003,-10.7732,-10.7263,-10.7226,-10.7421,-10.7927,-10.8003,-10.8001,-10.7995,-10.7991,-10.8026,-10.7976,-10.7964,-10.8089,-10.8227,-10.8312,-10.8523,-10.86,-10.8774,-10.9052,-10.9251,-10.9311,-10.9716,-11.0333,-11.0559,-11.0651,-11.029,-10.9955,-10.9376,-10.8977,-10.8943,-10.8874,-10.8799,-10.8723,-10.8646,-10.8568,-10.8645,-10.8605,-10.8829,-10.8936,-10.8444,-10.7949,-10.786,-10.7576,-6.9446,-7.1602,-7.2904,-7.3866,-7.4768,-7.6721,-7.8339,-7.994,-8.2166,-8.3951,-8.5565,-8.7705,-8.9354,-9.061,-9.2208,-9.372,-9.4943,-9.6066,-9.738,-9.8371,-9.9401,-10.0287,-10.1338,-10.2913,-10.4522,-10.5844,-10.5853,-10.6279,-10.7183,-10.7431,-10.7889,-10.8466,-10.901,-10.9521,-10.9941,-11.0208,-11.0405,-11.0563,-11.0012,-10.9896,-11.0128,-10.956,-10.9185,-10.9335,-10.8823,-10.8562,-10.8443,-10.7948,-10.7632,-10.7728,-10.782,-10.7821,-10.7855,-10.7866,-10.7837,-10.7738,-10.7957,-10.7886,-10.7964,-10.812,-10.8166,-10.8216,-10.8328,-10.8133,-10.8372,-10.8333,-10.8255,-10.8221,-10.8104,-10.803,-10.803,-10.7991,-10.7995,-10.8073,-10.7927,-10.7929,-10.7969,-10.8008,-10.8085,-10.8122,-10.8082,-10.8157,-10.8347,-10.8382,-10.869,-10.907,-10.9285,-10.9573,-10.9905,-10.999,-11.0291,-11.0379,-11.0403,-11.0823,-11.1354,-11.151,-11.1607,-11.1527,-11.1234,-11.0795,-11.0304,-11.0213,-11.0182,-11.004,-10.9885,-10.9775,-10.9852,-11.0084,-11.009,-11.0137,-11.0021,-10.9626,-10.9437,-10.9258,-10.8878,-7.137,-7.3452,-7.4747,-7.5826,-7.6948,-7.8925,-8.0532,-8.1923,-8.3844,-8.5694,-8.7361,-8.902,-9.0642,-9.2065,-9.3369,-9.4707,-9.6001,-9.6906,-9.7755,-9.8958,-10.0387,-10.1595,-10.2876,-10.4464,-10.593,-10.6807,-10.6707,-10.6926,-10.7767,-10.7533,-10.7777,-10.8466,-10.8877,-10.9334,-10.9802,-11.0189,-11.0412,-11.0587,-11.0601,-11.0596,-11.0701,-11.0699,-11.0487,-10.9953,-10.9918,-10.9635,-10.9227,-10.8627,-10.8086,-10.7714,-10.7744,-10.7752,-10.7834,-10.7899,-10.7989,-10.8,-10.8011,-10.7972,-10.81,-10.8539,-10.8861,-10.8948,-10.9347,-10.9824,-10.9831,-10.9285,-10.9011,-10.8855,-10.8439,-10.8055,-10.8055,-10.8065,-10.8304,-10.8772,-10.8509,-10.8161,-10.8122,-10.8007,-10.8203,-10.8789,-10.8945,-10.9217,-10.9607,-10.98,-10.9876,-11.0147,-11.0256,-11.0359,-11.0775,-11.0839,-11.0969,-11.13,-11.1445,-11.1877,-11.228,-11.2431,-11.2532,-11.2554,-11.2406,-11.2149,-11.188,-11.1741,-11.1765,-11.1777,-11.1388,-11.1194,-11.1505,-11.1815,-11.171,-11.1526,-11.1555,-11.1361,-11.0828,-11.0537,-11.0001,-7.2734,-7.4684,-7.6162,-7.7493,-7.8952,-8.073,-8.2358,-8.3902,-8.5522,-8.7155,-8.8869,-9.0301,-9.1942,-9.3498,-9.4937,-9.6164,-9.7387,-9.8287,-9.9074,-10.0189,-10.2075,-10.3561,-10.4614,-10.5771,-10.6649,-10.764,-10.7417,-10.7585,-10.7934,-10.7861,-10.8036,-10.8328,-10.8742,-10.9232,-10.9644,-11.0094,-11.0357,-11.0481,-11.0691,-11.0843,-11.093,-11.1046,-11.0993,-11.0545,-11.0492,-11.0111,-10.948,-10.9066,-10.8528,-10.7866,-10.7598,-10.7654,-10.7783,-10.8166,-10.8337,-10.8352,-10.8678,-10.8926,-10.8978,-10.9432,-10.9678,-10.9756,-11.0246,-11.0402,-11.0374,-11.0022,-10.9749,-10.9729,-10.9308,-10.9121,-10.905,-10.9064,-10.9298,-10.9656,-10.9354,-10.9089,-10.9092,-10.9173,-10.9294,-10.9686,-10.9882,-10.9999,-11.0547,-11.0624,-11.0819,-11.1052,-11.1126,-11.1396,-11.1705,-11.158,-11.1608,-11.1986,-11.2213,-11.25,-11.2637,-11.2799,-11.2814,-11.2879,-11.2865,-11.2827,-11.2717,-11.2655,-11.2595,-11.2495,-11.2595,-11.2672,-11.2728,-11.2922,-11.31,-11.3,-11.3156,-11.3016,-11.2448,-11.1715,-11.1194,-7.3895,-7.5782,-7.7349,-7.899,-8.0645,-8.2281,-8.3816,-8.5509,-8.6778,-8.8526,-9.0189,-9.1587,-9.3204,-9.5035,-9.619,-9.7619,-9.8718,-9.9585,-10.0635,-10.1905,-10.3649,-10.5163,-10.5995,-10.6517,-10.7332,-10.8232,-10.8181,-10.801,-10.8062,-10.8261,-10.8102,-10.8112,-10.8568,-10.9104,-10.9459,-10.9979,-11.0301,-11.0428,-11.0587,-11.0742,-11.0881,-11.0941,-11.0913,-11.094,-11.0622,-11.0146,-10.9649,-10.9371,-10.8918,-10.779,-10.7736,-10.796,-10.8084,-10.8688,-10.898,-10.9134,-10.9637,-11.0021,-11.0232,-11.0262,-11.0486,-11.0525,-11.0655,-11.0655,-11.0824,-11.0707,-11.0564,-11.0587,-11.0558,-11.0257,-11.0275,-11.0401,-11.044,-11.0566,-11.0658,-11.0749,-11.0794,-11.0721,-11.0612,-11.0735,-11.0735,-11.0738,-11.0858,-11.0937,-11.1211,-11.1953,-11.2029,-11.2224,-11.2456,-11.2454,-11.2526,-11.2756,-11.2908,-11.2981,-11.304,-11.3064,-11.2998,-11.3017,-11.2978,-11.2955,-11.2879,-11.282,-11.2827,-11.281,-11.2793,-11.2949,-11.3221,-11.3512,-11.394,-11.4234,-11.4216,-11.4216,-11.4021,-11.3122,-11.2425,-7.5454,-7.752,-7.9219,-8.0664,-8.1916,-8.3209,-8.4562,-8.608,-8.7832,-8.9388,-9.0895,-9.2835,-9.436,-9.5781,-9.6997,-9.8122,-9.9214,-10.0371,-10.1592,-10.3648,-10.4525,-10.5837,-10.6883,-10.7692,-10.8511,-10.8859,-10.827,-10.8214,-10.8334,-10.7796,-10.7501,-10.7738,-10.8254,-10.881,-10.9141,-10.9644,-11.0037,-11.0301,-11.0466,-11.0587,-11.0742,-11.0843,-11.0892,-11.0941,-11.0948,-11.0627,-11.0143,-11.0032,-10.9686,-10.9161,-10.9082,-10.916,-10.9216,-10.95,-10.9679,-10.9781,-10.9966,-11.0144,-11.0204,-11.0849,-11.1255,-11.1312,-11.1758,-11.2314,-11.2305,-11.1666,-11.1422,-11.1292,-11.0837,-11.0653,-11.0715,-11.0569,-11.093,-11.1368,-11.1542,-11.1815,-11.2135,-11.1413,-11.1111,-11.1428,-11.1623,-11.1862,-11.2495,-11.2419,-11.2616,-11.289,-11.2929,-11.3007,-11.3085,-11.3163,-11.3161,-11.3157,-11.3157,-11.3154,-11.3142,-11.3131,-11.3079,-11.3064,-11.3064,-11.3064,-11.2998,-11.2978,-11.2943,-11.2918,-11.2943,-11.323,-11.3633,-11.4205,-11.4673,-11.4971,-11.5229,-11.5214,-11.4965,-11.4255,-11.3554,-7.6704,-7.861,-8.0166,-8.1546,-8.2734,-8.4068,-8.5553,-8.7137,-8.8734,-9.0498,-9.2159,-9.3953,-9.5354,-9.6667,-9.8092,-9.9484,-10.0446,-10.1572,-10.2952,-10.4611,-10.5224,-10.6113,-10.7166,-10.816,-10.8878,-10.9097,-10.8851,-10.8636,-10.8295,-10.7804,-10.7522,-10.7472,-10.8036,-10.8536,-10.8944,-10.9535,-10.9862,-11.0037,-11.0301,-11.0466,-11.0625,-11.0639,-11.0793,-11.0843,-11.0999,-11.0863,-11.0654,-11.066,-11.0483,-11.0302,-11.0266,-11.0098,-10.9826,-11.0042,-11.0265,-11.0333,-11.0806,-11.0977,-11.1236,-11.1569,-11.195,-11.195,-11.2422,-11.2619,-11.2698,-11.227,-11.219,-11.2087,-11.19,-11.1617,-11.1668,-11.1729,-11.2013,-11.2218,-11.2383,-11.2626,-11.283,-11.2298,-11.1921,-11.235,-11.2467,-11.2634,-11.299,-11.3154,-11.3159,-11.3044,-11.3047,-11.3125,-11.3125,-11.3164,-11.3164,-11.3163,-11.3202,-11.3161,-11.3154,-11.3147,-11.3103,-11.3098,-11.3092,-11.3092,-11.3047,-11.3033,-11.3056,-11.3164,-11.3311,-11.3759,-11.4196,-11.4804,-11.5497,-11.5965,-11.6228,-11.6167,-11.5895,-11.5253,-11.4564,-7.7484,-7.929,-8.034,-8.1888,-8.3571,-8.5006,-8.6657,-8.8254,-8.9941,-9.1639,-9.3462,-9.4893,-9.6237,-9.7476,-9.9322,-10.0749,-10.2015,-10.2819,-10.4055,-10.5133,-10.5599,-10.6318,-10.7164,-10.7912,-10.849,-10.9025,-10.8794,-10.8528,-10.812,-10.7856,-10.7316,-10.7274,-10.7777,-10.8366,-10.893,-10.9496,-11.0098,-11.0469,-11.0721,-11.0758,-11.0771,-11.0786,-11.0854,-11.0742,-11.0843,-11.0941,-11.0922,-11.097,-11.1055,-11.1147,-11.1147,-11.0602,-11.0188,-11.0369,-11.0833,-11.0906,-11.1576,-11.1833,-11.1864,-11.2147,-11.2309,-11.2452,-11.2452,-11.2466,-11.2478,-11.2526,-11.2533,-11.2658,-11.258,-11.2649,-11.2943,-11.2826,-11.2889,-11.3017,-11.3077,-11.3095,-11.3095,-11.3095,-11.2955,-11.3001,-11.2884,-11.2969,-11.3059,-11.3147,-11.3154,-11.3196,-11.3202,-11.3203,-11.3203,-11.3203,-11.3203,-11.3203,-11.3203,-11.3203,-11.3161,-11.3159,-11.3157,-11.3115,-11.3115,-11.3115,-11.3115,-11.3112,-11.3181,-11.3566,-11.384,-11.4314,-11.4972,-11.5787,-11.6444,-11.6958,-11.7147,-11.7116,-11.6774,-11.6272,-11.5595,-7.7484,-7.9466,-8.0714,-8.2058,-8.3629,-8.5773,-8.7396,-8.8654,-9.1173,-9.2723,-9.3681,-9.57,-9.6864,-9.7847,-9.9454,-10.1287,-10.2793,-10.3519,-10.4227,-10.5272,-10.5738,-10.6275,-10.7128,-10.7379,-10.7677,-10.789,-10.793,-10.7763,-10.7196,-10.6756,-10.6958,-10.6992,-10.7583,-10.8299,-10.9223,-10.9794,-11.0628,-11.1286,-11.1584,-11.1536,-11.1387,-11.1233,-11.0945,-11.0702,-11.0639,-11.0742,-11.0843,-11.0892,-11.0989,-11.1085,-11.1132,-11.0986,-11.0814,-11.1147,-11.1461,-11.1577,-11.1844,-11.2073,-11.2105,-11.2135,-11.2124,-11.2086,-11.2344,-11.2329,-11.2379,-11.2398,-11.2583,-11.2627,-11.2736,-11.2853,-11.2905,-11.2992,-11.3048,-11.3073,-11.3106,-11.3116,-11.3095,-11.3173,-11.3212,-11.3298,-11.322,-11.3103,-11.3125,-11.3137,-11.3142,-11.3151,-11.3157,-11.3159,-11.3161,-11.3163,-11.3203,-11.3203,-11.3203,-11.3203,-11.3203,-11.3203,-11.3164,-11.3164,-11.3163,-11.3163,-11.3163,-11.3164,-11.3358,-11.4055,-11.4518,-11.4986,-11.5767,-11.6679,-11.7213,-11.7603,-11.7829,-11.8013,-11.757,-11.7077,-11.6724,-7.8227,-7.9817,-8.1203,-8.2765,-8.4395,-8.6528,-8.8226,-8.985,-9.207,-9.3498,-9.4457,-9.6017,-9.7268,-9.8009,-9.9487,-10.1519,-10.2981,-10.3519,-10.407,-10.5035,-10.5506,-10.6083,-10.6874,-10.692,-10.6972,-10.7116,-10.7136,-10.716,-10.6851,-10.6876,-10.6963,-10.7492,-10.8237,-10.9074,-10.9715,-11.0267,-11.0914,-11.1695,-11.1863,-11.1967,-11.1839,-11.171,-11.1101,-11.064,-11.0466,-11.052,-11.0535,-11.0625,-11.0678,-11.0742,-11.0831,-11.0881,-11.1143,-11.1515,-11.1813,-11.1714,-11.1953,-11.2269,-11.2463,-11.2697,-11.3159,-11.3234,-11.3232,-11.3072,-11.2832,-11.2847,-11.2699,-11.2583,-11.2604,-11.2694,-11.2795,-11.2888,-11.2953,-11.3021,-11.3084,-11.3145,-11.3242,-11.3524,-11.368,-11.3719,-11.3485,-11.3298,-11.3103,-11.3118,-11.3086,-11.3098,-11.3186,-11.3268,-11.3349,-11.3274,-11.3357,-11.3164,-11.3164,-11.3164,-11.3161,-11.3161,-11.3161,-11.3163,-11.3163,-11.3163,-11.3359,-11.3437,-11.414,-11.496,-11.5347,-11.562,-11.6406,-11.7265,-11.7773,-11.8164,-11.8154,-11.815,-11.8107,-11.7862,-11.7437,-7.8788,-8.0166,-8.1575,-8.3274,-8.5106,-8.7149,-8.8998,-9.1149,-9.2846,-9.3995,-9.4742,-9.6176,-9.7332,-9.8347,-9.9896,-10.1685,-10.3394,-10.3519,-10.407,-10.4797,-10.5272,-10.5854,-10.6547,-10.66,-10.6592,-10.708,-10.6871,-10.6879,-10.6943,-10.7175,-10.7635,-10.8172,-10.9141,-10.9835,-11.011,-11.0647,-11.1056,-11.1531,-11.1848,-11.2185,-11.2256,-11.1725,-11.1045,-11.0455,-11.0265,-11.0246,-11.0263,-11.0263,-11.0357,-11.0504,-11.0672,-11.0893,-11.1162,-11.1914,-11.2079,-11.1756,-11.2282,-11.2728,-11.3126,-11.3407,-11.3762,-11.3849,-11.4121,-11.3777,-11.3236,-11.2879,-11.2777,-11.2486,-11.2505,-11.258,-11.2716,-11.2834,-11.3038,-11.3308,-11.3385,-11.3485,-11.3906,-11.4266,-11.4617,-11.4422,-11.3915,-11.3876,-11.404,-11.404,-11.4212,-11.4212,-11.4303,-11.423,-11.4236,-11.3732,-11.3584,-11.3229,-11.3125,-11.3125,-11.3112,-11.3112,-11.3115,-11.3157,-11.3157,-11.3157,-11.3474,-11.3786,-11.4608,-11.539,-11.5975,-11.6328,-11.7109,-11.7695,-11.8008,-11.8242,-11.8281,-11.8278,-11.8198,-11.8154,-11.7901,-7.8788,-8.0166,-8.1575,-8.3274,-8.5222,-8.7595,-8.9419,-9.1171,-9.331,-9.4401,-9.465,-9.6144,-9.7364,-9.8633,-10.0577,-10.218,-10.3175,-10.3485,-10.3982,-10.4797,-10.5272,-10.5854,-10.6653,-10.6493,-10.6842,-10.7232,-10.7025,-10.6879,-10.7181,-10.769,-10.8141,-10.8725,-10.9214,-10.9639,-11.0598,-11.1038,-11.1838,-11.2702,-11.3181,-11.3195,-11.2704,-11.1639,-11.0945,-11.0553,-11.0121,-10.9824,-10.9979,-11.0017,-11.0208,-11.0492,-11.1135,-11.1549,-11.1755,-11.2549,-11.2945,-11.3049,-11.3277,-11.3702,-11.3893,-11.4056,-11.4065,-11.4202,-11.4176,-11.3647,-11.3196,-11.2656,-11.2372,-11.2097,-11.2302,-11.2531,-11.2627,-11.2814,-11.3278,-11.3786,-11.4101,-11.4567,-11.5028,-11.5164,-11.5515,-11.5671,-11.532,-11.5398,-11.5515,-11.5476,-11.5446,-11.5407,-11.5376,-11.5273,-11.5038,-11.4543,-11.3957,-11.3606,-11.341,-11.3371,-11.3098,-11.3098,-11.3103,-11.3147,-11.3147,-11.3151,-11.3467,-11.3938,-11.4756,-11.5498,-11.6162,-11.6946,-11.7656,-11.8086,-11.8242,-11.8281,-11.8281,-11.8281,-11.8281,-11.8239,-11.8198,-7.8937,-8.0166,-8.1745,-8.3644,-8.5687,-8.7862,-8.972,-9.1597,-9.34,-9.4339,-9.4804,-9.5994,-9.7624,-9.9339,-10.1086,-10.2277,-10.3268,-10.3519,-10.3858,-10.4677,-10.5154,-10.5738,-10.61,-10.6203,-10.6669,-10.7253,-10.7503,-10.7775,-10.8052,-10.8492,-10.8928,-10.9358,-11.0073,-11.065,-11.1041,-11.1403,-11.1997,-11.2695,-11.3188,-11.3177,-11.2455,-11.154,-11.0771,-11.0319,-10.9685,-10.9472,-10.9535,-11.0075,-11.0386,-11.0756,-11.1577,-11.2205,-11.2562,-11.3205,-11.3794,-11.3977,-11.4502,-11.472,-11.4591,-11.4744,-11.4832,-11.5006,-11.5033,-11.4868,-11.3805,-11.2927,-11.2307,-11.2024,-11.2189,-11.2369,-11.2686,-11.3139,-11.3633,-11.4169,-11.4815,-11.5257,-11.5799,-11.6248,-11.6452,-11.6647,-11.6764,-11.6764,-11.6608,-11.6218,-11.6023,-11.5914,-11.5836,-11.5727,-11.5571,-11.5297,-11.468,-11.4055,-11.386,-11.3743,-11.3353,-11.3118,-11.3086,-11.3092,-11.3098,-11.3215,-11.3459,-11.4006,-11.486,-11.5876,-11.6779,-11.7529,-11.8157,-11.8281,-11.8281,-11.8281,-11.8281,-11.8276,-11.8276,-11.8276,-11.8202,-7.9141,-8.034,-8.2086,-8.3985,-8.6065,-8.7951,-8.9871,-9.2023,-9.3365,-9.4183,-9.4804,-9.6113,-9.8171,-10.0034,-10.112,-10.2045,-10.3394,-10.3519,-10.3858,-10.447,-10.4951,-10.5471,-10.5908,-10.6124,-10.6707,-10.7509,-10.7951,-10.8339,-10.8858,-10.9308,-10.9641,-10.9949,-11.0671,-11.1213,-11.146,-11.1631,-11.1967,-11.2375,-11.2807,-11.2814,-11.2365,-11.1725,-11.0897,-11.018,-10.9531,-10.9111,-10.9253,-10.9867,-11.0504,-11.1223,-11.2114,-11.275,-11.3137,-11.3973,-11.4541,-11.4802,-11.5238,-11.5329,-11.5281,-11.5357,-11.583,-11.5982,-11.586,-11.5163,-11.4186,-11.3384,-11.2618,-11.1996,-11.2406,-11.26,-11.2957,-11.3732,-11.4488,-11.5052,-11.5526,-11.5856,-11.6245,-11.6813,-11.7224,-11.7428,-11.7584,-11.7858,-11.7545,-11.6921,-11.6608,-11.6452,-11.6296,-11.6218,-11.6101,-11.6023,-11.529,-11.4587,-11.4235,-11.3962,-11.3376,-11.3103,-11.3111,-11.3111,-11.3118,-11.3157,-11.3366,-11.4068,-11.4967,-11.606,-11.712,-11.7706,-11.8136,-11.8219,-11.8302,-11.8306,-11.8306,-11.8302,-11.8297,-11.8297,-11.8263,-7.9493,-8.0714,-8.2256,-8.3985,-8.6095,-8.7951,-8.9871,-9.1922,-9.3237,-9.4183,-9.4927,-9.6826,-9.8568,-10.0171,-10.112,-10.2045,-10.3015,-10.3394,-10.3734,-10.4105,-10.4677,-10.5237,-10.5749,-10.6395,-10.7131,-10.7877,-10.8287,-10.8827,-10.9268,-10.9665,-11.015,-11.0754,-11.0934,-11.1148,-11.1272,-11.1533,-11.1789,-11.2087,-11.2331,-11.2571,-11.2356,-11.1877,-11.1207,-11.0572,-10.9898,-10.9485,-10.9627,-11.01,-11.0682,-11.1487,-11.2608,-11.3341,-11.3677,-11.4506,-11.5022,-11.5342,-11.5435,-11.5582,-11.5597,-11.5597,-11.5764,-11.5766,-11.5581,-11.5079,-11.4143,-11.3381,-11.2656,-11.2156,-11.265,-11.3241,-11.3766,-11.4473,-11.5357,-11.5911,-11.6352,-11.6843,-11.7196,-11.7533,-11.7906,-11.8122,-11.8248,-11.8239,-11.8287,-11.7584,-11.7428,-11.7311,-11.7311,-11.7233,-11.6999,-11.6804,-11.5867,-11.5125,-11.4656,-11.411,-11.329,-11.3103,-11.3103,-11.3103,-11.3103,-11.3103,-11.3181,-11.4048,-11.4946,-11.5805,-11.6711,-11.7406,-11.8061,-11.8201,-11.8286,-11.8292,-11.8292,-11.8286,-11.8286,-11.8292,-11.8297,-7.9466,-8.0887,-8.2284,-8.4153,-8.646,-8.7787,-8.9708,-9.18,-9.2728,-9.3995,-9.5387,-9.7121,-9.8851,-10.0171,-10.112,-10.1914,-10.3015,-10.3394,-10.3644,-10.4105,-10.4557,-10.5119,-10.5738,-10.6388,-10.7199,-10.7773,-10.8363,-10.8907,-10.9277,-10.9728,-11.0014,-11.0388,-11.07,-11.1007,-11.1184,-11.136,-11.1582,-11.1789,-11.1958,-11.2124,-11.202,-11.1509,-11.0879,-11.0625,-11.0003,-10.9748,-10.9938,-11.0648,-11.1278,-11.2014,-11.3038,-11.3534,-11.401,-11.474,-11.5153,-11.5459,-11.5533,-11.5588,-11.5734,-11.5696,-11.5802,-11.597,-11.5773,-11.5216,-11.4247,-11.3719,-11.323,-11.3005,-11.3004,-11.3683,-11.4453,-11.5287,-11.6142,-11.6668,-11.7117,-11.7654,-11.7896,-11.808,-11.8145,-11.8168,-11.8218,-11.8257,-11.8268,-11.82,-11.817,-11.817,-11.8248,-11.817,-11.7858,-11.7389,-11.6413,-11.5515,-11.4969,-11.4188,-11.3329,-11.3173,-11.3095,-11.3095,-11.3095,-11.3095,-11.3173,-11.3876,-11.4782,-11.5554,-11.6335,-11.7155,-11.7749,-11.8148,-11.8272,-11.8272,-11.8272,-11.8304,-11.8272,-11.8279,-11.8286,-7.9466,-8.1059,-8.2284,-8.4321,-8.6735,-8.7652,-8.9545,-9.1607,-9.2407,-9.3808,-9.5843,-9.7268,-9.8851,-10.0171,-10.112,-10.1948,-10.2759,-10.3268,-10.3644,-10.3879,-10.4229,-10.4639,-10.5158,-10.5698,-10.63,-10.7169,-10.8017,-10.8705,-10.9178,-10.9427,-10.9788,-11.0145,-11.0461,-11.0736,-11.1096,-11.1272,-11.141,-11.1447,-11.1533,-11.1705,-11.1679,-11.1273,-11.0766,-11.0701,-11.0154,-11.0131,-11.0328,-11.0898,-11.1654,-11.2328,-11.3143,-11.3797,-11.4213,-11.4578,-11.499,-11.5191,-11.5421,-11.5571,-11.5588,-11.575,-11.5855,-11.602,-11.6118,-11.5494,-11.4785,-11.433,-11.407,-11.3504,-11.3661,-11.4274,-11.5211,-11.6055,-11.6701,-11.7178,-11.7447,-11.7878,-11.795,-11.806,-11.8091,-11.8132,-11.8171,-11.8196,-11.8207,-11.8218,-11.8278,-11.8278,-11.8287,-11.8248,-11.8092,-11.7584,-11.6843,-11.5945,-11.5203,-11.4305,-11.3407,-11.3251,-11.3095,-11.3095,-11.3095,-11.3095,-11.3329,-11.3915,-11.4344,-11.4969,-11.5828,-11.6843,-11.7467,-11.7905,-11.814,-11.8296,-11.8296,-11.8296,-11.8296,-11.8304,-11.8304,-7.9641,-8.1375,-8.2454,-8.435,-8.6765,-8.7652,-8.9545,-9.1861,-9.2568,-9.3808,-9.5811,-9.7268,-9.8851,-10.0138,-10.0986,-10.1817,-10.2502,-10.3141,-10.3451,-10.3495,-10.3539,-10.359,-10.4077,-10.4656,-10.5544,-10.5952,-10.724,-10.8471,-10.8878,-10.9241,-10.9571,-10.9897,-11.0181,-11.0461,-11.0791,-11.1096,-11.1221,-11.1221,-11.1309,-11.136,-11.1497,-11.1386,-11.1067,-11.0746,-11.0608,-11.0618,-11.0738,-11.1057,-11.1707,-11.2353,-11.3038,-11.3556,-11.384,-11.4383,-11.4743,-11.4891,-11.5249,-11.5421,-11.5533,-11.575,-11.5958,-11.6108,-11.6205,-11.5848,-11.5362,-11.5099,-11.4874,-11.4235,-11.4701,-11.5399,-11.6121,-11.6709,-11.7142,-11.7465,-11.7746,-11.7853,-11.7936,-11.8032,-11.8028,-11.806,-11.8091,-11.8119,-11.8132,-11.8145,-11.8218,-11.8278,-11.8287,-11.8209,-11.8053,-11.7584,-11.6843,-11.5828,-11.4969,-11.4266,-11.3407,-11.3212,-11.3095,-11.3095,-11.3095,-11.3095,-11.3095,-11.3368,-11.3876,-11.4422,-11.5164,-11.6062,-11.6921,-11.7701,-11.8014,-11.8287,-11.8287,-11.8287,-11.8287,-11.8287,-11.8296,-7.9641,-8.1403,-8.2454,-8.4518,-8.6931,-8.7517,-8.9248,-9.18,-9.3207,-9.4618,-9.5811,-9.7268,-9.871,-9.9863,-10.0986,-10.1651,-10.2175,-10.2853,-10.3132,-10.2733,-10.2815,-10.2987,-10.3323,-10.4043,-10.4857,-10.5696,-10.7098,-10.8091,-10.8403,-10.8878,-10.9277,-10.9607,-10.9897,-11.0369,-11.07,-11.0881,-11.1007,-11.1221,-11.1221,-11.1184,-11.1272,-11.1272,-11.1213,-11.0969,-11.0969,-11.1018,-11.1103,-11.132,-11.1708,-11.2213,-11.2807,-11.3113,-11.341,-11.3979,-11.4317,-11.4642,-11.5073,-11.5326,-11.5642,-11.5958,-11.6108,-11.6205,-11.6262,-11.6001,-11.5445,-11.5291,-11.511,-11.5037,-11.5352,-11.5939,-11.663,-11.6891,-11.7219,-11.7443,-11.766,-11.7698,-11.7769,-11.7892,-11.7955,-11.7956,-11.7972,-11.8037,-11.8066,-11.8105,-11.8184,-11.8218,-11.8229,-11.7819,-11.7545,-11.7194,-11.6608,-11.5437,-11.45,-11.3954,-11.3446,-11.3212,-11.3086,-11.3095,-11.3095,-11.3095,-11.3095,-11.3095,-11.3524,-11.4188,-11.4695,-11.5242,-11.6491,-11.7545,-11.8014,-11.8287,-11.8287,-11.8287,-11.8287,-11.8287,-11.8287,-7.9466,-8.1232,-8.2086,-8.4321,-8.6902,-8.7352,-8.9083,-9.1932,-9.3681,-9.4959,-9.5691,-9.7153,-9.8458,-9.9585,-10.0683,-10.1486,-10.1881,-10.2386,-10.2631,-10.2255,-10.2041,-10.211,-10.2513,-10.336,-10.4027,-10.5046,-10.6415,-10.7524,-10.8091,-10.8573,-10.8979,-10.9313,-10.9607,-10.9992,-11.0425,-11.07,-11.0917,-11.1007,-11.1096,-11.1221,-11.1221,-11.1221,-11.1221,-11.1148,-11.1148,-11.1236,-11.1323,-11.1497,-11.1582,-11.2004,-11.2331,-11.265,-11.3113,-11.3518,-11.3872,-11.4383,-11.4952,-11.5326,-11.5855,-11.6008,-11.6157,-11.6347,-11.6386,-11.6163,-11.583,-11.583,-11.5797,-11.5764,-11.5769,-11.6206,-11.6789,-11.6982,-11.7162,-11.7361,-11.7452,-11.7539,-11.7621,-11.7711,-11.7824,-11.7792,-11.7857,-11.7936,-11.8021,-11.8076,-11.8091,-11.8132,-11.8207,-11.7643,-11.7107,-11.6686,-11.6179,-11.5008,-11.411,-11.3593,-11.3281,-11.3194,-11.3116,-11.3086,-11.3086,-11.3086,-11.3095,-11.3134,-11.3524,-11.3876,-11.4383,-11.5125,-11.6452,-11.7389,-11.7731,-11.8043,-11.8229,-11.8278,-11.8287,-11.8287,-11.8278,-7.8965,-8.0714,-8.1745,-8.3956,-8.6481,-8.7381,-8.9307,-9.2084,-9.3681,-9.465,-9.5266,-9.6742,-9.8059,-9.9166,-10.0275,-10.1153,-10.1679,-10.1818,-10.1916,-10.1811,-10.12,-10.1046,-10.1401,-10.2353,-10.3231,-10.4097,-10.5397,-10.709,-10.788,-10.83,-10.8609,-10.9115,-10.9313,-10.9607,-11.0087,-11.0332,-11.0609,-11.0791,-11.1007,-11.1096,-11.1184,-11.1221,-11.1221,-11.1221,-11.1221,-11.1221,-11.1272,-11.136,-11.1533,-11.1753,-11.2087,-11.2368,-11.2729,-11.3262,-11.3699,-11.4184,-11.4891,-11.5477,-11.5958,-11.6108,-11.6253,-11.6393,-11.6484,-11.6484,-11.6407,-11.6253,-11.6259,-11.6259,-11.6303,-11.6462,-11.674,-11.6904,-11.7057,-11.7162,-11.7302,-11.7361,-11.7422,-11.7511,-11.7567,-11.7647,-11.7722,-11.7814,-11.7897,-11.7993,-11.8028,-11.8076,-11.8041,-11.7689,-11.7037,-11.6248,-11.5584,-11.45,-11.3711,-11.3272,-11.3116,-11.3106,-11.3106,-11.3106,-11.3106,-11.3116,-11.3086,-11.3095,-11.329,-11.3602,-11.4032,-11.4813,-11.5779,-11.6638,-11.7331,-11.7633,-11.7934,-11.8207,-11.8218,-11.8229,-11.819,-7.8788,-8.034,-8.1575,-8.3558,-8.6208,-8.877,-9.0678,-9.2053,-9.3396,-9.4495,-9.5112,-9.6444,-9.777,-9.8884,-10.0105,-10.0652,-10.098,-10.119,-10.1111,-10.08,-10.0429,-10.0274,-10.0766,-10.1855,-10.2607,-10.3649,-10.491,-10.6423,-10.698,-10.7524,-10.8195,-10.8711,-10.8914,-10.9214,-10.951,-10.9861,-11.0332,-11.07,-11.0881,-11.1007,-11.1096,-11.1221,-11.1221,-11.1221,-11.1221,-11.1221,-11.1221,-11.1309,-11.136,-11.1619,-11.1874,-11.2124,-11.2571,-11.3037,-11.3556,-11.4438,-11.5035,-11.5477,-11.5958,-11.6108,-11.6205,-11.6439,-11.6484,-11.6484,-11.6484,-11.6484,-11.6484,-11.6529,-11.6529,-11.6611,-11.6654,-11.6823,-11.6904,-11.6982,-11.7094,-11.7166,-11.723,-11.7297,-11.7361,-11.7482,-11.7567,-11.7673,-11.7792,-11.7857,-11.7897,-11.8011,-11.7904,-11.7559,-11.713,-11.6334,-11.5291,-11.4208,-11.3701,-11.3368,-11.3134,-11.3045,-11.3084,-11.3056,-11.3095,-11.3095,-11.3086,-11.3095,-11.3095,-11.3329,-11.3798,-11.4208,-11.4745,-11.5603,-11.6529,-11.722,-11.7547,-11.7911,-11.8106,-11.8001,-11.7739,-7.8432,-7.9817,-8.1232,-8.3443,-8.6362,-8.954,-9.1223,-9.1719,-9.3273,-9.4339,-9.4959,-9.6144,-9.73,-9.8393,-9.9395,-10.0018,-10.0315,-10.0063,-10.0023,-10.0112,-9.9829,-9.9778,-10.0304,-10.1484,-10.2409,-10.3417,-10.4565,-10.5969,-10.6423,-10.709,-10.788,-10.816,-10.8471,-10.8777,-10.9079,-10.9474,-10.9956,-11.0425,-11.0791,-11.097,-11.1096,-11.1221,-11.1221,-11.1221,-11.1221,-11.1221,-11.1221,-11.1221,-11.1272,-11.136,-11.1619,-11.1874,-11.2331,-11.2884,-11.3732,-11.4604,-11.5073,-11.5477,-11.5906,-11.6058,-11.6205,-11.6347,-11.6484,-11.6484,-11.6484,-11.6484,-11.6484,-11.6484,-11.6484,-11.6567,-11.6611,-11.6697,-11.674,-11.6784,-11.6865,-11.6943,-11.702,-11.7018,-11.7162,-11.7297,-11.7422,-11.7539,-11.7647,-11.7722,-11.7814,-11.7936,-11.7837,-11.7538,-11.7155,-11.665,-11.5492,-11.4294,-11.3904,-11.358,-11.3372,-11.3204,-11.3126,-11.3138,-11.3033,-11.3045,-11.3077,-11.3095,-11.3095,-11.3251,-11.3515,-11.3896,-11.4305,-11.4918,-11.5726,-11.6324,-11.6726,-11.6804,-11.7052,-11.73,-11.6974,-7.8076,-7.9466,-8.0859,-8.3443,-8.6497,-8.9419,-9.0768,-9.1111,-9.2714,-9.3902,-9.4587,-9.5691,-9.6826,-9.7736,-9.8617,-9.9149,-9.9383,-9.9228,-9.9322,-9.9513,-9.9333,-9.9316,-10.0083,-10.1248,-10.2174,-10.3067,-10.4064,-10.5471,-10.6197,-10.6759,-10.7308,-10.7488,-10.795,-10.83,-10.8777,-10.9079,-10.9571,-11.0145,-11.0609,-11.0917,-11.1096,-11.1221,-11.1221,-11.1221,-11.1221,-11.1221,-11.1221,-11.1221,-11.1221,-11.1272,-11.1447,-11.1705,-11.2412,-11.3,-11.3942,-11.4604,-11.5073,-11.5477,-11.5855,-11.6058,-11.6157,-11.63,-11.6393,-11.6484,-11.6484,-11.6484,-11.6484,-11.6484,-11.6484,-11.6484,-11.6529,-11.6611,-11.6616,-11.6659,-11.6701,-11.6784,-11.6865,-11.6904,-11.6981,-11.7127,-11.723,-11.7361,-11.7452,-11.7567,-11.7698,-11.7792,-11.78,-11.7527,-11.7348,-11.6984,-11.5999,-11.4725,-11.4452,-11.4244,-11.3879,-11.3669,-11.3357,-11.3201,-11.3152,-11.3033,-11.3106,-11.3086,-11.3095,-11.3242,-11.3359,-11.3574,-11.3943,-11.4504,-11.4946,-11.5346,-11.5588,-11.5549,-11.5783,-11.6204,-11.6077,-7.7744,-7.9114,-8.1689,-8.4279,-8.6379,-8.7844,-8.9228,-9.0161,-9.0947,-9.2597,-9.4339,-9.5171,-9.5945,-9.6754,-9.7633,-9.8213,-9.8187,-9.8563,-9.8656,-9.8846,-9.8803,-9.9232,-9.9794,-10.1233,-10.2125,-10.2914,-10.3828,-10.5119,-10.5622,-10.6197,-10.6535,-10.6759,-10.7234,-10.788,-10.8264,-10.8676,-10.9277,-10.9956,-11.0332,-11.0791,-11.1096,-11.1221,-11.1221,-11.1221,-11.1221,-11.1221,-11.1221,-11.1221,-11.1221,-11.1309,-11.1619,-11.2087,-11.2807,-11.341,-11.401,-11.4604,-11.5073,-11.5477,-11.575,-11.6008,-11.6157,-11.6253,-11.6393,-11.6439,-11.6484,-11.6484,-11.6484,-11.6484,-11.6484,-11.6484,-11.6484,-11.6529,-11.6529,-11.6573,-11.6573,-11.6616,-11.674,-11.6743,-11.6786,-11.6905,-11.7018,-11.7127,-11.7264,-11.7392,-11.7539,-11.7647,-11.7722,-11.7675,-11.774,-11.7468,-11.6875,-11.5799,-11.5346,-11.5058,-11.4614,-11.4263,-11.3935,-11.36,-11.3435,-11.3321,-11.3123,-11.3116,-11.3095,-11.3086,-11.3194,-11.3368,-11.3568,-11.3971,-11.4356,-11.452,-11.4715,-11.4737,-11.4598,-11.4863,-11.4815,-7.7278,-7.8937,-8.2029,-8.4271,-8.5803,-8.7044,-8.8336,-8.9146,-9.0113,-9.145,-9.3033,-9.3834,-9.4672,-9.5693,-9.6604,-9.7179,-9.7259,-9.7737,-9.7909,-9.8104,-9.8682,-9.9162,-10.0104,-10.1252,-10.2179,-10.2918,-10.414,-10.5035,-10.5272,-10.5622,-10.5969,-10.6197,-10.6794,-10.7343,-10.7844,-10.8471,-10.9115,-10.9668,-11.0145,-11.0609,-11.1007,-11.1096,-11.1221,-11.1221,-11.1221,-11.1221,-11.1221,-11.1221,-11.1221,-11.1309,-11.1619,-11.2087,-11.2691,-11.3337,-11.3942,-11.454,-11.5013,-11.5403,-11.5696,-11.5906,-11.6058,-11.6205,-11.6347,-11.6393,-11.6484,-11.6484,-11.6484,-11.6484,-11.6484,-11.6484,-11.6484,-11.6529,-11.6529,-11.6529,-11.6529,-11.6573,-11.6573,-11.6616,-11.6701,-11.6784,-11.6904,-11.6943,-11.7094,-11.7196,-11.7361,-11.7511,-11.7567,-11.7673,-11.7769,-11.7875,-11.7274,-11.6841,-11.6335,-11.5728,-11.5182,-11.4854,-11.462,-11.4247,-11.3888,-11.3503,-11.3279,-11.3155,-11.3095,-11.3086,-11.3077,-11.3073,-11.3321,-11.3606,-11.3522,-11.3646,-11.384,-11.4074,-11.3896,-11.3756,-11.3762,-7.6964,-7.929,-8.2029,-8.3903,-8.4813,-8.6615,-8.7686,-8.8254,-8.956,-9.0401,-9.0898,-9.2003,-9.3205,-9.425,-9.5069,-9.5852,-9.6598,-9.6984,-9.7194,-9.763,-9.8249,-9.8989,-10.0034,-10.1184,-10.2334,-10.3332,-10.4366,-10.4728,-10.4917,-10.5272,-10.5506,-10.5773,-10.6197,-10.6759,-10.7488,-10.816,-10.8813,-10.9474,-10.9956,-11.0388,-11.0791,-11.1007,-11.1133,-11.1221,-11.1221,-11.1221,-11.1221,-11.1221,-11.1221,-11.1397,-11.1619,-11.2087,-11.265,-11.3262,-11.3803,-11.4411,-11.4891,-11.5249,-11.5571,-11.575,-11.5906,-11.6058,-11.6205,-11.63,-11.6393,-11.6439,-11.6439,-11.6484,-11.6484,-11.6484,-11.6484,-11.6484,-11.6484,-11.6484,-11.6484,-11.6484,-11.6484,-11.6529,-11.6573,-11.6697,-11.674,-11.6823,-11.6904,-11.702,-11.7127,-11.7297,-11.7452,-11.7567,-11.7673,-11.7761,-11.752,-11.7351,-11.7118,-11.6514,-11.5988,-11.5616,-11.546,-11.4971,-11.4614,-11.3932,-11.3385,-11.3223,-11.3086,-11.3086,-11.3067,-11.3033,-11.3009,-11.3177,-11.3054,-11.3061,-11.3233,-11.3561,-11.3435,-11.3294,-11.3087,-7.7816,-8.0513,-8.2256,-8.36,-8.4755,-8.5524,-8.6359,-8.7373,-8.7809,-8.8309,-8.9206,-8.9819,-9.1032,-9.3109,-9.4136,-9.4904,-9.5471,-9.6099,-9.7034,-9.7505,-9.8228,-9.8914,-10.003,-10.1508,-10.2695,-10.366,-10.4453,-10.4522,-10.4677,-10.4917,-10.5035,-10.5154,-10.5969,-10.6535,-10.698,-10.7631,-10.8507,-10.9079,-10.9728,-11.0202,-11.0609,-11.0917,-11.1133,-11.1221,-11.1221,-11.1221,-11.1221,-11.1221,-11.1221,-11.1397,-11.1619,-11.2041,-11.2571,-11.3075,-11.3661,-11.4213,-11.4705,-11.5073,-11.5364,-11.5588,-11.575,-11.5906,-11.6058,-11.6157,-11.6253,-11.6347,-11.6393,-11.6484,-11.6484,-11.6484,-11.6484,-11.6484,-11.6484,-11.6484,-11.6484,-11.6484,-11.6484,-11.6484,-11.6529,-11.6573,-11.6654,-11.6697,-11.674,-11.6865,-11.6982,-11.7091,-11.7196,-11.729,-11.7539,-11.7594,-11.7711,-11.7707,-11.7636,-11.78,-11.7507,-11.6728,-11.6338,-11.585,-11.5104,-11.4113,-11.3411,-11.3212,-11.3106,-11.3116,-11.3116,-11.3084,-11.3021,-11.2996,-11.3007,-11.3015,-11.3021,-11.3074,-11.297,-11.2787,-11.2565]},{"header":{"parameterUnit":"m.s-1","parameterCategory":1,"la1":31.0,"la2":29.5877,"lo1":-88.7671,"lo2":-86.6584,"dx":0.0162,"dy":0.0185,"nx":115,"ny":88,"refTime":"2022-11-14T06:00:00:Z","depth":0,"parameterNumber":3,"parameterNumberName":"V-component_of_WINDS"},"data":[0.0,0.0,0.0,0.0,0.0,0.0,0.0,0.0,0.0,0.0,0.0,0.0,0.0,0.0,0.0,0.0,0.0,0.0,0.0,0.0,0.0,0.0,0.0,0.0,0.0,0.0,0.0,0.0,0.0,0.0,0.0,0.0,0.0,0.0,0.0,0.0,0.0,0.0,0.0,0.0,0.0,0.0,0.0,0.0,0.0,0.0,0.0,0.0,0.0,0.0,0.0,0.0,0.0,0.0,0.0,0.0,0.0,0.0,0.0,0.0,0.0,0.0,0.0,0.0,0.0,0.0,0.0,0.0,0.0,0.0,0.0,0.0,0.0,0.0,0.0,0.0,0.0,0.0,0.0,0.0,0.0,0.0,0.0,0.0,0.0,0.0,0.0,0.0,0.0,0.0,0.0,0.0,0.0,0.0,0.0,0.0,0.0,0.0,0.0,0.0,0.0,0.0,0.0,0.0,0.0,0.0,0.0,0.0,0.0,0.0,0.0,0.0,0.0,0.0,0.0,0.0,0.0,0.0,0.0,0.0,0.0,0.0,0.0,0.0,0.0,0.0,0.0,0.0,0.0,0.0,0.0,0.0,0.0,0.0,0.0,0.0,0.0,0.0,0.0,0.0,0.0,0.0,0.0,0.0,0.0,0.0,0.0,0.0,0.0,0.0,0.0,0.0,0.0,0.0,0.0,0.0,0.0,0.0,0.0,0.0,0.0,0.0,0.0,0.0,0.0,0.0,0.0,0.0,0.0,0.0,0.0,0.0,0.0,0.0,0.0,0.0,0.0,0.0,0.0,0.0,0.0,0.0,0.0,0.0,0.0,0.0,0.0,0.0,0.0,0.0,0.0,0.0,0.0,0.0,0.0,0.0,0.0,0.0,0.0,0.0,0.0,0.0,0.0,0.0,0.0,0.0,0.0,0.0,0.0,0.0,0.0,0.0,0.0,0.0,0.0,0.0,0.0,0.0,0.0,0.0,0.0,0.0,0.0,0.0,0.0,0.0,0.0,0.0,0.0,0.0,0.0,0.0,0.0,0.0,0.0,0.0,0.0,0.0,0.0,0.0,0.0,0.0,0.0,0.0,0.0,0.0,0.0,0.0,0.0,0.0,0.0,0.0,0.0,0.0,0.0,0.0,0.0,0.0,0.0,0.0,0.0,0.0,0.0,0.0,0.0,0.0,0.0,0.0,0.0,0.0,0.0,0.0,0.0,0.0,0.0,0.0,0.0,0.0,0.0,0.0,0.0,0.0,0.0,0.0,0.0,0.0,0.0,0.0,0.0,0.0,0.0,0.0,0.0,0.0,0.0,0.0,0.0,0.0,0.0,0.0,0.0,0.0,0.0,0.0,0.0,0.0,0.0,0.0,0.0,0.0,0.0,0.0,0.0,0.0,0.0,0.0,0.0,0.0,0.0,0.0,0.0,0.0,0.0,0.0,0.0,0.0,0.0,0.0,0.0,0.0,0.0,0.0,0.0,0.0,0.0,0.0,0.0,0.0,0.0,0.0,0.0,0.0,0.0,0.0,0.0,0.0,0.0,0.0,0.0,0.0,0.0,0.0,0.0,0.0,0.0,0.0,0.0,0.0,0.0,0.0,0.0,0.0,0.0,0.0,0.0,0.0,0.0,0.0,0.0,0.0,0.0,0.0,0.0,0.0,0.0,0.0,0.0,0.0,0.0,0.0,0.0,0.0,0.0,0.0,0.0,0.0,0.0,0.0,0.0,0.0,0.0,0.0,0.0,0.0,0.0,0.0,0.0,0.0,0.0,0.0,0.0,0.0,0.0,0.0,0.0,0.0,0.0,0.0,0.0,0.0,0.0,0.0,0.0,0.0,0.0,0.0,0.0,0.0,0.0,0.0,0.0,0.0,0.0,0.0,0.0,0.0,0.0,0.0,0.0,0.0,0.0,0.0,0.0,0.0,0.0,0.0,0.0,0.0,0.0,0.0,0.0,0.0,0.0,0.0,0.0,0.0,0.0,0.0,0.0,0.0,0.0,0.0,0.0,0.0,0.0,0.0,0.0,0.0,0.0,0.0,0.0,0.0,0.0,0.0,0.0,0.0,0.0,0.0,0.0,0.0,0.0,0.0,0.0,0.0,0.0,0.0,0.0,0.0,0.0,0.0,0.0,0.0,0.0,0.0,0.0,0.0,0.0,0.0,0.0,0.0,0.0,0.0,0.0,0.0,0.0,0.0,0.0,0.0,0.0,0.0,0.0,0.0,0.0,0.0,0.0,0.0,0.0,0.0,0.0,0.0,0.0,0.0,0.0,0.0,0.0,0.0,0.0,0.0,0.0,0.0,0.0,0.0,0.0,0.0,0.0,0.0,0.0,0.0,0.0,0.0,0.0,0.0,0.0,0.0,0.0,0.0,0.0,0.0,0.0,0.0,0.0,0.0,0.0,0.0,0.0,0.0,0.0,0.0,0.0,0.0,0.0,0.0,0.0,0.0,0.0,0.0,0.0,0.0,0.0,0.0,0.0,0.0,0.0,0.0,0.0,0.0,0.0,0.0,0.0,0.0,0.0,0.0,0.0,0.0,0.0,0.0,0.0,0.0,0.0,0.0,0.0,0.0,0.0,0.0,0.0,0.0,0.0,0.0,0.0,0.0,0.0,0.0,0.0,0.0,0.0,0.0,0.0,0.0,0.0,0.0,0.0,0.0,0.0,0.0,0.0,0.0,0.0,0.0,0.0,0.0,0.0,0.0,0.0,0.0,0.0,0.0,0.0,0.0,0.0,0.0,0.0,0.0,0.0,0.0,0.0,0.0,0.0,0.0,0.0,0.0,0.0,0.0,0.0,0.0,0.0,0.0,0.0,0.0,0.0,0.0,0.0,0.0,0.0,0.0,0.0,0.0,0.0,0.0,0.0,0.0,0.0,0.0,0.0,0.0,0.0,0.0,0.0,0.0,0.0,0.0,0.0,0.0,0.0,0.0,0.0,0.0,0.0,0.0,0.0,0.0,0.0,0.0,0.0,0.0,0.0,0.0,0.0,0.0,0.0,0.0,0.0,0.0,0.0,0.0,0.0,0.0,0.0,0.0,0.0,0.0,0.0,0.0,0.0,0.0,0.0,0.0,0.0,0.0,0.0,0.0,0.0,0.0,0.0,0.0,0.0,0.0,0.0,0.0,0.0,0.0,0.0,0.0,0.0,0.0,0.0,0.0,0.0,0.0,0.0,0.0,0.0,0.0,0.0,0.0,0.0,0.0,0.0,0.0,0.0,0.0,0.0,0.0,0.0,0.0,0.0,0.0,0.0,0.0,0.0,0.0,0.0,0.0,0.0,0.0,0.0,0.0,0.0,0.0,0.0,0.0,0.0,0.0,0.0,0.0,0.0,0.0,0.0,0.0,0.0,0.0,0.0,0.0,0.0,0.0,0.0,0.0,0.0,0.0,0.0,0.0,0.0,0.0,0.0,0.0,0.0,0.0,0.0,0.0,0.0,0.0,0.0,0.0,0.0,0.0,0.0,0.0,0.0,0.0,0.0,0.0,0.0,0.0,0.0,0.0,0.0,0.0,0.0,0.0,0.0,0.0,0.0,0.0,0.0,0.0,0.0,0.0,0.0,0.0,0.0,0.0,0.0,0.0,0.0,0.0,0.0,0.0,0.0,0.0,0.0,0.0,0.0,0.0,0.0,0.0,0.0,0.0,0.0,0.0,0.0,0.0,0.0,0.0,0.0,0.0,0.0,0.0,0.0,0.0,0.0,0.0,0.0,0.0,0.0,0.0,0.0,0.0,0.0,0.0,0.0,0.0,0.0,0.0,0.0,0.0,0.0,0.0,0.0,0.0,0.0,0.0,0.0,0.0,0.0,0.0,0.0,0.0,0.0,0.0,0.0,0.0,0.0,0.0,0.0,0.0,0.0,0.0,0.0,0.0,0.0,0.0,0.0,0.0,0.0,0.0,0.0,0.0,0.0,0.0,0.0,0.0,0.0,0.0,0.0,0.0,0.0,0.0,0.0,0.0,0.0,0.0,0.0,0.0,0.0,0.0,0.0,0.0,0.0,0.0,0.0,0.0,0.0,0.0,0.0,0.0,0.0,0.0,0.0,0.0,0.0,0.0,0.0,0.0,0.0,0.0,0.0,0.0,0.0,0.0,0.0,0.0,0.0,0.0,0.0,0.0,0.0,0.0,0.0,0.0,0.0,0.0,0.0,0.0,0.0,0.0,0.0,0.0,0.0,0.0,0.0,0.0,0.0,0.0,0.0,0.0,0.0,0.0,0.0,0.0,0.0,0.0,0.0,0.0,2.3201,0.0,0.0,0.0,2.2495,0.0,0.0,0.0,0.0,0.0,0.0,0.0,0.0,0.0,0.0,0.0,0.0,0.0,0.0,0.0,0.0,0.0,0.0,0.0,0.0,0.0,0.0,0.0,0.0,0.0,0.0,0.0,0.0,0.0,0.0,0.0,0.0,0.0,0.0,0.0,0.0,0.0,0.0,0.0,0.0,0.0,0.0,0.0,0.0,0.0,0.0,0.0,0.0,0.0,0.0,0.0,0.0,0.0,0.0,0.0,0.0,0.0,0.0,0.0,0.0,0.0,0.0,0.0,0.0,0.0,0.0,0.0,0.0,0.0,0.0,0.0,0.0,0.0,0.0,0.0,0.0,0.0,0.0,0.0,0.0,0.0,0.0,0.0,0.0,0.0,0.0,0.0,0.0,0.0,0.0,0.0,0.0,0.0,0.0,0.0,0.0,0.0,0.0,0.0,0.0,0.0,0.0,0.0,0.0,0.0,0.0,0.0,0.0,0.0,0.0,2.2558,2.2189,2.203,2.1983,2.1983,0.0,0.0,0.0,0.0,0.0,0.0,0.0,0.0,0.0,0.0,0.0,0.0,0.0,0.0,0.0,0.0,0.0,0.0,0.0,0.0,0.0,0.0,0.0,0.0,0.0,0.0,0.0,0.0,0.0,0.0,0.0,0.0,0.0,0.0,0.0,0.0,0.0,0.0,0.0,0.0,0.0,0.0,0.0,0.0,0.0,0.0,0.0,0.0,0.0,0.0,0.0,0.0,0.0,0.0,0.0,0.0,0.0,0.0,0.0,0.0,0.0,0.0,0.0,0.0,0.0,0.0,0.0,0.0,0.0,0.0,0.0,0.0,0.0,0.0,0.0,0.0,0.0,0.0,0.0,0.0,0.0,0.0,0.0,0.0,0.0,0.0,0.0,0.0,0.0,0.0,0.0,0.0,0.0,0.0,0.0,0.0,0.0,0.0,0.0,0.0,0.0,0.0,0.0,0.0,0.0,0.0,0.0,0.0,0.0,0.0,0.0,0.0,2.1784,2.1811,2.1821,0.0,0.0,0.0,0.0,0.0,0.0,0.0,0.0,0.0,0.0,0.0,0.0,0.0,0.0,0.0,0.0,0.0,0.0,0.0,0.0,0.0,0.0,0.0,0.0,0.0,0.0,0.0,0.0,0.0,0.0,0.0,0.0,0.0,0.0,0.0,0.0,0.0,0.0,0.0,0.0,0.0,0.0,0.0,0.0,0.0,0.0,0.0,0.0,0.0,0.0,0.0,0.0,0.0,0.0,0.0,0.0,0.0,0.0,0.0,0.0,0.0,0.0,0.0,0.0,0.0,0.0,0.0,0.0,0.0,0.0,0.0,0.0,0.0,0.0,0.0,0.0,0.0,0.0,0.0,0.0,0.0,0.0,0.0,0.0,0.0,0.0,0.0,0.0,0.0,0.0,0.0,0.0,0.0,0.0,0.0,0.0,0.0,0.0,0.0,0.0,0.0,0.0,0.0,0.0,0.0,0.0,0.0,0.0,0.0,0.0,2.1944,2.1743,2.2168,0.0,2.2428,0.0,0.0,0.0,0.0,0.0,0.0,0.0,0.0,0.0,0.0,0.0,0.0,0.0,0.0,0.0,0.0,0.0,0.0,0.0,0.0,0.0,0.0,0.0,0.0,0.0,0.0,0.0,0.0,0.0,0.0,0.0,0.0,0.0,0.0,0.0,0.0,0.0,0.0,0.0,0.0,0.0,0.0,0.0,0.0,0.0,0.0,0.0,0.0,0.0,0.0,0.0,0.0,0.0,0.0,0.0,0.0,0.0,0.0,0.0,0.0,0.0,0.0,0.0,0.0,0.0,0.0,0.0,0.0,0.0,0.0,0.0,0.0,0.0,0.0,0.0,0.0,0.0,0.0,0.0,0.0,0.0,0.0,0.0,0.0,0.0,0.0,0.0,0.0,0.0,0.0,0.0,0.0,0.0,0.0,0.0,0.0,0.0,0.0,0.0,0.0,0.0,0.0,0.0,0.0,0.0,0.0,0.0,0.0,0.0,0.0,2.1537,2.1459,2.1826,2.2113,0.0,0.0,0.0,0.0,0.0,0.0,0.0,0.0,0.0,0.0,0.0,0.0,0.0,0.0,0.0,0.0,0.0,0.0,0.0,0.0,0.0,0.0,0.0,0.0,0.0,0.0,0.0,0.0,0.0,0.0,0.0,0.0,0.0,0.0,0.0,0.0,0.0,0.0,0.0,0.0,0.0,0.0,0.0,0.0,0.0,0.0,0.0,0.0,0.0,0.0,0.0,0.0,0.0,0.0,0.0,0.0,0.0,0.0,0.0,0.0,0.0,0.0,0.0,0.0,0.0,0.0,0.0,0.0,0.0,0.0,0.0,0.0,0.0,0.0,0.0,0.0,0.0,0.0,0.0,0.0,0.0,0.0,0.0,0.0,0.0,0.0,0.0,0.0,0.0,0.0,0.0,0.0,0.0,0.0,0.0,0.0,0.0,0.0,0.0,0.0,0.0,0.0,0.0,0.0,0.0,0.0,0.0,0.0,0.0,0.0,2.112,2.1476,2.1892,2.2007,2.2168,2.2371,0.0,0.0,0.0,0.0,0.0,0.0,0.0,0.0,0.0,0.0,0.0,0.0,0.0,0.0,0.0,0.0,0.0,0.0,0.0,0.0,0.0,0.0,0.0,0.0,0.0,0.0,0.0,0.0,0.0,0.0,0.0,0.0,0.0,0.0,0.0,0.0,0.0,0.0,0.0,0.0,0.0,0.0,0.0,0.0,0.0,0.0,0.0,0.0,0.0,0.0,0.0,0.0,0.0,0.0,0.0,0.0,0.0,0.0,0.0,0.0,0.0,0.0,0.0,0.0,0.0,0.0,0.0,0.0,0.0,0.0,0.0,0.0,0.0,0.0,0.0,0.0,0.0,0.0,0.0,0.0,0.0,0.0,0.0,0.0,0.0,0.0,0.0,0.0,0.0,0.0,0.0,0.0,0.0,0.0,0.0,0.0,0.0,0.0,0.0,0.0,0.0,0.0,0.0,0.0,0.0,0.0,0.0,0.0,2.0564,2.1031,2.1888,2.3187,2.3103,2.2952,0.0,0.0,0.0,0.0,0.0,0.0,0.0,0.0,0.0,0.0,0.0,0.0,0.0,0.0,0.0,0.0,0.0,0.0,0.0,0.0,0.0,0.0,0.0,0.0,0.0,0.0,0.0,0.0,0.0,0.0,0.0,0.0,0.0,0.0,0.0,0.0,0.0,0.0,0.0,0.0,0.0,0.0,0.0,0.0,0.0,0.0,0.0,0.0,0.0,0.0,0.0,0.0,0.0,0.0,0.0,0.0,0.0,0.0,0.0,0.0,0.0,0.0,0.0,0.0,0.0,0.0,0.0,0.0,0.0,0.0,0.0,0.0,0.0,0.0,0.0,0.0,0.0,0.0,0.0,0.0,0.0,0.0,0.0,0.0,0.0,0.0,0.0,0.0,0.0,0.0,0.0,0.0,0.0,0.0,0.0,0.0,0.0,0.0,0.0,0.0,0.0,0.0,0.0,0.0,0.0,0.0,0.0,0.0,0.0,2.0256,2.1262,2.2255,2.3339,2.3122,2.2949,0.0,0.0,0.0,0.0,0.0,0.0,0.0,0.0,0.0,0.0,0.0,0.0,0.0,0.0,0.0,0.0,0.0,0.0,0.0,0.0,0.0,0.0,0.0,0.0,0.0,0.0,0.0,0.0,0.0,0.0,0.0,0.0,0.0,0.0,0.0,0.0,0.0,0.0,0.0,0.0,0.0,0.0,0.0,0.0,0.0,0.0,0.0,0.0,0.0,0.0,0.0,0.0,0.0,0.0,0.0,0.0,0.0,0.0,0.0,0.0,0.0,0.0,0.0,0.0,0.0,0.0,0.0,0.0,0.0,0.0,0.0,0.0,0.0,0.0,0.0,0.0,0.0,0.0,0.0,0.0,0.0,0.0,0.0,0.0,0.0,0.0,0.0,0.0,0.0,0.0,0.0,0.0,0.0,0.0,0.0,0.0,0.0,0.0,0.0,0.0,0.0,0.0,0.0,0.0,0.0,0.0,0.0,0.0,0.0,2.0758,2.2272,2.3379,2.3923,2.3782,2.3592,0.0,0.0,0.0,0.0,0.0,0.0,0.0,0.0,0.0,0.0,0.0,0.0,0.0,0.0,0.0,0.0,0.0,0.0,0.0,0.0,0.0,0.0,0.0,0.0,0.0,0.0,0.0,0.0,0.0,0.0,0.0,0.0,0.0,0.0,0.0,0.0,0.0,0.0,0.0,0.0,0.0,0.0,0.0,0.0,0.0,0.0,0.0,0.0,0.0,0.0,0.0,0.0,0.0,0.0,0.0,0.0,0.0,0.0,0.0,0.0,0.0,0.0,0.0,0.0,0.0,0.0,0.0,0.0,0.0,0.0,0.0,0.0,0.0,0.0,0.0,0.0,0.0,0.0,0.0,0.0,0.0,0.0,0.0,0.0,0.0,0.0,0.0,0.0,0.0,0.0,0.0,0.0,0.0,0.0,0.0,0.0,0.0,0.0,0.0,0.0,0.0,0.0,0.0,0.0,0.0,0.0,0.0,0.0,2.0252,2.2211,2.4108,2.5162,2.5179,2.5256,2.5029,0.0,0.0,0.0,0.0,0.0,0.0,0.0,0.0,0.0,0.0,0.0,0.0,0.0,0.0,0.0,0.0,0.0,0.0,0.0,0.0,0.0,0.0,0.0,0.0,0.0,0.0,0.0,0.0,0.0,0.0,0.0,0.0,0.0,0.0,0.0,0.0,0.0,0.0,0.0,0.0,0.0,0.0,0.0,0.0,0.0,0.0,0.0,0.0,0.0,0.0,0.0,0.0,0.0,0.0,0.0,0.0,0.0,0.0,0.0,0.0,0.0,0.0,0.0,0.0,0.0,0.0,0.0,0.0,0.0,0.0,0.0,0.0,0.0,0.0,0.0,0.0,0.0,0.0,0.0,0.0,0.0,0.0,0.0,0.0,0.0,0.0,0.0,0.0,0.0,0.0,0.0,0.0,0.0,0.0,0.0,0.0,0.0,0.0,0.0,0.0,0.0,0.0,0.0,0.0,0.0,0.0,0.0,0.0,0.0,2.4498,2.6083,2.7214,2.7782,2.7193,2.6516,0.0,0.0,0.0,0.0,0.0,0.0,0.0,0.0,0.0,0.0,0.0,0.0,0.0,0.0,0.0,0.0,0.0,0.0,0.0,0.0,0.0,0.0,0.0,0.0,0.0,0.0,0.0,0.0,0.0,0.0,0.0,0.0,0.0,0.0,0.0,0.0,0.0,0.0,0.0,0.0,0.0,0.0,0.0,0.0,0.0,0.0,0.0,0.0,0.0,0.0,0.0,0.0,0.0,0.0,0.0,0.0,0.0,0.0,0.0,0.0,0.0,0.0,0.0,0.0,0.0,0.0,0.0,0.0,0.0,0.0,0.0,0.0,0.0,0.0,0.0,0.0,0.0,0.0,0.0,0.0,0.0,0.0,0.0,0.0,0.0,0.0,0.0,0.0,0.0,0.0,0.0,0.0,0.0,0.0,0.0,0.0,0.0,0.0,0.0,0.0,0.0,0.0,0.0,0.0,0.0,0.0,0.0,0.0,0.0,2.8513,2.9202,2.9928,3.0603,2.9686,2.8697,2.7561,0.0,0.0,0.0,0.0,0.0,0.0,0.0,0.0,0.0,0.0,0.0,0.0,0.0,0.0,0.0,0.0,0.0,0.0,0.0,0.0,0.0,0.0,0.0,0.0,0.0,0.0,0.0,0.0,0.0,0.0,0.0,0.0,0.0,0.0,0.0,0.0,0.0,0.0,0.0,0.0,0.0,0.0,0.0,0.0,0.0,0.0,0.0,0.0,0.0,0.0,0.0,0.0,0.0,0.0,0.0,0.0,0.0,0.0,0.0,0.0,0.0,0.0,0.0,0.0,0.0,0.0,0.0,0.0,0.0,0.0,0.0,0.0,0.0,0.0,0.0,0.0,0.0,0.0,0.0,0.0,0.0,0.0,0.0,0.0,0.0,0.0,0.0,0.0,0.0,0.0,0.0,0.0,0.0,0.0,0.0,0.0,0.0,0.0,0.0,0.0,0.0,0.0,0.0,0.0,0.0,0.0,0.0,0.0,3.3895,3.3462,3.323,3.3384,3.2593,3.1435,0.0,0.0,0.0,0.0,0.0,0.0,0.0,0.0,0.0,0.0,0.0,0.0,0.0,0.0,0.0,0.0,0.0,0.0,0.0,0.0,0.0,0.0,0.0,0.0,0.0,0.0,0.0,0.0,0.0,0.0,0.0,0.0,0.0,0.0,0.0,0.0,0.0,0.0,0.0,0.0,0.0,0.0,0.0,0.0,0.0,0.0,0.0,0.0,0.0,0.0,0.0,0.0,0.0,0.0,0.0,0.0,0.0,0.0,0.0,0.0,0.0,0.0,0.0,0.0,0.0,0.0,0.0,0.0,0.0,0.0,0.0,0.0,0.0,0.0,0.0,0.0,0.0,0.0,0.0,0.0,0.0,0.0,0.0,0.0,0.0,0.0,0.0,0.0,0.0,0.0,0.0,0.0,0.0,0.0,0.0,0.0,0.0,0.0,0.0,0.0,0.0,0.0,0.0,0.0,0.0,0.0,0.0,0.0,0.0,3.6784,3.7895,3.807,3.7156,3.5915,3.4286,0.0,0.0,0.0,0.0,0.0,0.0,0.0,0.0,0.0,0.0,0.0,0.0,0.0,0.0,0.0,0.0,0.0,0.0,0.0,0.0,0.0,0.0,0.0,0.0,0.0,0.0,0.0,0.0,0.0,0.0,0.0,0.0,0.0,0.0,0.0,0.0,0.0,0.0,0.0,0.0,0.0,0.0,0.0,0.0,0.0,0.0,0.0,0.0,0.0,0.0,0.0,0.0,0.0,0.0,0.0,0.0,0.0,0.0,0.0,0.0,0.0,0.0,0.0,0.0,0.0,0.0,0.0,0.0,0.0,0.0,0.0,0.0,0.0,0.0,0.0,0.0,0.0,0.0,0.0,0.0,0.0,0.0,0.0,0.0,0.0,0.0,0.0,0.0,0.0,0.0,0.0,0.0,0.0,0.0,0.0,0.0,0.0,0.0,0.0,0.0,0.0,0.0,0.0,0.0,0.0,0.0,0.0,0.0,3.48,3.8542,4.0387,4.1162,4.0813,3.914,3.7021,0.0,0.0,0.0,0.0,0.0,0.0,0.0,0.0,0.0,0.0,0.0,0.0,0.0,0.0,0.0,0.0,0.0,0.0,0.0,0.0,0.0,0.0,0.0,0.0,0.0,0.0,0.0,0.0,0.0,0.0,0.0,0.0,0.0,0.0,0.0,0.0,0.0,0.0,0.0,0.0,0.0,0.0,0.0,0.0,0.0,0.0,0.0,0.0,0.0,0.0,0.0,0.0,0.0,0.0,0.0,0.0,0.0,0.0,0.0,0.0,0.0,0.0,0.0,0.0,0.0,0.0,0.0,0.0,0.0,0.0,0.0,0.0,0.0,0.0,0.0,0.0,0.0,0.0,0.0,0.0,0.0,0.0,0.0,0.0,0.0,0.0,0.0,0.0,0.0,0.0,0.0,0.0,0.0,0.0,0.0,0.0,0.0,0.0,0.0,0.0,0.0,0.0,0.0,0.0,0.0,0.0,0.0,0.0,3.6002,3.9432,4.1588,4.3101,4.3827,4.1967,3.9371,0.0,0.0,0.0,0.0,0.0,0.0,0.0,0.0,0.0,0.0,0.0,0.0,0.0,0.0,0.0,0.0,0.0,0.0,0.0,0.0,0.0,0.0,0.0,0.0,0.0,0.0,0.0,0.0,0.0,0.0,0.0,0.0,0.0,0.0,0.0,0.0,0.0,0.0,0.0,0.0,0.0,0.0,0.0,0.0,0.0,0.0,0.0,0.0,0.0,0.0,0.0,0.0,0.0,0.0,0.0,0.0,0.0,0.0,0.0,0.0,0.0,0.0,0.0,0.0,0.0,0.0,0.0,0.0,0.0,0.0,0.0,0.0,0.0,0.0,0.0,0.0,0.0,0.0,0.0,0.0,0.0,0.0,0.0,0.0,0.0,0.0,0.0,0.0,0.0,0.0,0.0,0.0,0.0,0.0,0.0,0.0,0.0,0.0,0.0,0.0,0.0,0.0,0.0,0.0,0.0,0.0,0.0,0.0,3.6754,4.0769,4.2696,4.3924,4.4463,4.277,4.0452,0.0,0.0,0.0,0.0,0.0,0.0,0.0,0.0,0.0,0.0,0.0,0.0,0.0,0.0,0.0,0.0,0.0,0.0,0.0,0.0,0.0,0.0,0.0,0.0,0.0,0.0,0.0,0.0,0.0,0.0,0.0,0.0,0.0,0.0,0.0,0.0,0.0,0.0,0.0,0.0,0.0,0.0,0.0,0.0,0.0,0.0,0.0,0.0,3.3354,0.0,0.0,0.0,0.0,0.0,0.0,0.0,0.0,0.0,0.0,0.0,0.0,0.0,0.0,0.0,0.0,0.0,0.0,0.0,0.0,0.0,0.0,0.0,0.0,0.0,0.0,0.0,0.0,0.0,0.0,0.0,0.0,0.0,0.0,0.0,0.0,0.0,0.0,0.0,0.0,0.0,0.0,0.0,0.0,0.0,0.0,0.0,0.0,0.0,0.0,0.0,0.0,0.0,0.0,0.0,0.0,0.0,0.0,0.0,3.766,4.1208,4.32,4.4643,4.5343,4.3677,4.1498,0.0,0.0,0.0,0.0,0.0,0.0,0.0,0.0,0.0,0.0,0.0,0.0,0.0,0.0,0.0,0.0,0.0,0.0,0.0,0.0,0.0,0.0,0.0,0.0,0.0,0.0,0.0,0.0,0.0,0.0,0.0,0.0,0.0,0.0,0.0,0.0,0.0,0.0,0.0,0.0,0.0,0.0,0.0,0.0,0.0,0.0,0.0,0.0,0.0,0.0,0.0,0.0,0.0,0.0,0.0,0.0,0.0,0.0,0.0,0.0,0.0,0.0,0.0,0.0,0.0,0.0,0.0,0.0,0.0,0.0,0.0,0.0,0.0,0.0,0.0,0.0,0.0,0.0,0.0,0.0,0.0,0.0,0.0,0.0,0.0,0.0,0.0,0.0,0.0,0.0,0.0,0.0,0.0,0.0,0.0,0.0,0.0,0.0,0.0,0.0,0.0,0.0,0.0,0.0,0.0,0.0,0.0,3.4751,3.8587,4.1196,4.3474,4.5117,4.6316,4.4597,4.2423,3.9946,0.0,0.0,0.0,0.0,0.0,0.0,0.0,0.0,0.0,0.0,0.0,0.0,0.0,0.0,0.0,0.0,0.0,0.0,0.0,0.0,0.0,0.0,0.0,0.0,0.0,0.0,0.0,0.0,0.0,0.0,0.0,0.0,0.0,0.0,0.0,0.0,0.0,0.0,3.1752,3.4546,0.0,0.0,0.0,0.0,0.0,0.0,0.0,0.0,3.8974,0.0,0.0,0.0,0.0,0.0,0.0,0.0,0.0,0.0,0.0,0.0,0.0,0.0,0.0,0.0,0.0,0.0,0.0,0.0,0.0,0.0,0.0,0.0,0.0,0.0,0.0,0.0,0.0,0.0,0.0,0.0,0.0,0.0,0.0,0.0,0.0,0.0,0.0,0.0,0.0,0.0,0.0,0.0,0.0,0.0,0.0,0.0,0.0,0.0,0.0,0.0,0.0,0.0,0.0,0.0,0.0,3.0451,3.4933,3.8641,4.1701,4.3521,4.5022,4.6162,4.5309,4.3661,4.1029,0.0,0.0,0.0,0.0,0.0,0.0,0.0,0.0,0.0,0.0,0.0,0.0,0.0,0.0,0.0,0.0,0.0,0.0,0.0,0.0,0.0,0.0,0.0,0.0,0.0,0.0,0.0,0.0,0.0,0.0,0.0,0.0,0.0,0.0,0.0,0.0,0.0,0.0,0.0,3.7285,3.878,0.0,0.0,0.0,0.0,0.0,0.0,0.0,0.0,4.0102,0.0,0.0,0.0,0.0,0.0,0.0,0.0,0.0,0.0,0.0,0.0,0.0,0.0,0.0,0.0,0.0,0.0,0.0,0.0,0.0,0.0,0.0,0.0,0.0,0.0,0.0,0.0,0.0,0.0,0.0,0.0,0.0,0.0,0.0,0.0,0.0,0.0,0.0,0.0,0.0,0.0,0.0,0.0,0.0,0.0,0.0,0.0,0.0,0.0,0.0,0.0,0.0,0.0,0.0,0.0,3.1402,3.5586,3.9164,4.1737,4.3784,4.5229,4.6043,4.5095,4.3411,0.0,0.0,0.0,0.0,0.0,0.0,0.0,0.0,0.0,0.0,0.0,0.0,0.0,0.0,0.0,0.0,0.0,0.0,0.0,0.0,0.0,0.0,0.0,0.0,0.0,0.0,0.0,0.0,0.0,0.0,0.0,0.0,0.0,0.0,0.0,0.0,0.0,0.0,0.0,0.0,3.853,4.0377,4.071,0.0,0.0,0.0,0.0,0.0,0.0,4.3284,4.3013,0.0,0.0,0.0,0.0,0.0,0.0,0.0,0.0,0.0,0.0,0.0,0.0,0.0,0.0,0.0,0.0,0.0,0.0,0.0,0.0,0.0,0.0,0.0,0.0,0.0,0.0,0.0,0.0,0.0,0.0,0.0,0.0,0.0,0.0,0.0,0.0,0.0,0.0,0.0,0.0,0.0,0.0,0.0,0.0,0.0,0.0,0.0,0.0,0.0,0.0,0.0,0.0,0.0,0.0,0.0,3.2029,3.6058,3.9365,4.1888,4.3938,4.5277,4.5954,4.4913,4.3086,0.0,0.0,0.0,0.0,0.0,0.0,0.0,0.0,0.0,0.0,0.0,0.0,0.0,0.0,0.0,0.0,0.0,0.0,0.0,0.0,0.0,0.0,0.0,0.0,0.0,0.0,0.0,0.0,0.0,0.0,0.0,0.0,0.0,0.0,0.0,0.0,0.0,0.0,0.0,0.0,0.0,4.1583,4.2665,4.2636,0.0,0.0,0.0,0.0,4.5615,4.6124,0.0,0.0,0.0,0.0,0.0,0.0,0.0,0.0,0.0,0.0,0.0,0.0,0.0,0.0,0.0,0.0,0.0,0.0,0.0,0.0,0.0,0.0,0.0,0.0,0.0,0.0,0.0,0.0,0.0,0.0,0.0,0.0,0.0,0.0,0.0,0.0,0.0,0.0,0.0,0.0,0.0,0.0,0.0,0.0,0.0,0.0,0.0,0.0,0.0,0.0,0.0,0.0,0.0,0.0,0.0,0.0,3.2194,3.5804,3.9099,4.2188,4.3394,4.4596,4.617,4.5237,4.3361,0.0,0.0,0.0,0.0,0.0,0.0,0.0,0.0,0.0,0.0,0.0,0.0,0.0,0.0,0.0,0.0,0.0,0.0,0.0,0.0,0.0,0.0,0.0,0.0,0.0,0.0,0.0,0.0,0.0,0.0,0.0,0.0,0.0,0.0,0.0,0.0,0.0,0.0,0.0,0.0,0.0,4.2491,4.3499,4.5316,4.639,0.0,0.0,4.7119,4.6897,4.7288,0.0,0.0,0.0,0.0,0.0,0.0,0.0,0.0,0.0,0.0,0.0,0.0,0.0,0.0,0.0,0.0,0.0,0.0,0.0,0.0,0.0,0.0,0.0,0.0,0.0,0.0,0.0,0.0,0.0,0.0,0.0,0.0,0.0,0.0,0.0,0.0,0.0,0.0,0.0,0.0,0.0,0.0,0.0,0.0,0.0,0.0,0.0,0.0,0.0,0.0,0.0,0.0,0.0,0.0,0.0,2.8582,3.2409,3.5977,3.9069,4.1711,4.3514,4.4638,4.5074,4.4449,4.2677,0.0,0.0,0.0,0.0,0.0,0.0,0.0,0.0,0.0,0.0,0.0,0.0,0.0,0.0,0.0,0.0,0.0,0.0,0.0,0.0,0.0,0.0,0.0,0.0,0.0,0.0,0.0,0.0,0.0,0.0,0.0,0.0,0.0,0.0,0.0,0.0,0.0,0.0,0.0,0.0,0.0,0.0,4.516,4.694,0.0,0.0,0.0,4.9696,4.9737,0.0,0.0,0.0,0.0,0.0,0.0,0.0,0.0,0.0,0.0,0.0,0.0,0.0,0.0,0.0,0.0,0.0,0.0,0.0,0.0,0.0,0.0,0.0,0.0,0.0,0.0,0.0,0.0,0.0,0.0,0.0,0.0,0.0,0.0,0.0,0.0,0.0,0.0,0.0,0.0,0.0,0.0,0.0,0.0,0.0,0.0,0.0,0.0,0.0,0.0,0.0,0.0,0.0,0.0,0.0,0.0,0.0,3.2482,3.5739,3.8666,4.1317,4.3371,4.4255,4.4066,4.3554,0.0,0.0,0.0,0.0,0.0,0.0,0.0,0.0,0.0,0.0,0.0,0.0,0.0,0.0,0.0,0.0,0.0,0.0,0.0,0.0,0.0,0.0,0.0,0.0,0.0,0.0,0.0,2.4742,0.0,0.0,0.0,0.0,0.0,0.0,0.0,0.0,0.0,0.0,0.0,0.0,0.0,0.0,4.3949,4.679,4.868,5.0034,0.0,0.0,5.2193,5.2266,5.147,5.0255,0.0,0.0,0.0,0.0,0.0,0.0,0.0,0.0,0.0,0.0,0.0,0.0,0.0,0.0,0.0,0.0,0.0,0.0,0.0,0.0,0.0,0.0,0.0,0.0,0.0,0.0,0.0,0.0,0.0,0.0,0.0,0.0,0.0,0.0,0.0,0.0,0.0,0.0,0.0,0.0,0.0,0.0,0.0,0.0,0.0,0.0,0.0,0.0,0.0,0.0,0.0,0.0,0.0,0.0,0.0,3.2261,3.4655,3.7556,4.1012,4.1949,4.2816,4.389,4.2757,4.1327,0.0,0.0,0.0,0.0,0.0,0.0,0.0,0.0,0.0,0.0,0.0,0.0,0.0,0.0,0.0,0.0,0.0,0.0,0.0,0.0,0.0,0.0,0.0,0.0,0.0,0.0,0.0,0.0,0.0,0.0,0.0,0.0,0.0,0.0,0.0,0.0,0.0,0.0,0.0,0.0,0.0,4.5261,4.8135,5.1045,5.2909,0.0,0.0,5.4601,5.4035,5.3063,5.1583,4.9352,0.0,0.0,0.0,0.0,0.0,0.0,0.0,0.0,0.0,0.0,0.0,0.0,0.0,0.0,0.0,0.0,0.0,0.0,0.0,0.0,0.0,0.0,0.0,0.0,0.0,0.0,0.0,0.0,0.0,0.0,0.0,0.0,0.0,0.0,0.0,0.0,0.0,0.0,0.0,0.0,0.0,0.0,0.0,0.0,0.0,0.0,0.0,0.0,0.0,0.0,0.0,0.0,0.0,2.6941,3.1437,3.4302,3.7081,3.9891,4.1366,4.2316,4.2525,4.1922,4.0616,0.0,0.0,0.0,0.0,0.0,0.0,0.0,0.0,0.0,0.0,0.0,0.0,0.0,0.0,0.0,0.0,0.0,0.0,0.0,0.0,0.0,0.0,0.0,0.0,0.0,0.0,0.0,0.0,3.0843,3.2256,3.2592,0.0,0.0,0.0,0.0,0.0,0.0,0.0,0.0,0.0,0.0,4.688,4.9891,5.2322,0.0,0.0,5.5297,5.5444,5.4469,5.372,5.2519,5.0487,4.78,0.0,0.0,0.0,0.0,0.0,0.0,0.0,0.0,0.0,0.0,0.0,0.0,0.0,0.0,0.0,0.0,0.0,0.0,0.0,0.0,0.0,0.0,0.0,0.0,0.0,0.0,0.0,0.0,0.0,0.0,0.0,0.0,0.0,0.0,0.0,0.0,0.0,0.0,0.0,0.0,0.0,0.0,0.0,0.0,0.0,0.0,0.0,0.0,0.0,0.0,0.0,0.0,2.6052,3.041,3.3359,3.6062,3.8431,4.0253,4.1311,4.1032,4.0919,3.9868,0.0,0.0,0.0,0.0,0.0,0.0,0.0,0.0,0.0,0.0,0.0,0.0,0.0,0.0,0.0,0.0,0.0,0.0,0.0,0.0,0.0,0.0,0.0,0.0,0.0,0.0,0.0,0.0,3.1754,3.2863,3.2959,0.0,0.0,0.0,0.0,0.0,0.0,0.0,0.0,0.0,0.0,4.8679,5.179,5.3606,5.5114,5.5936,5.6335,5.6224,5.537,5.4314,5.3186,5.1642,0.0,0.0,0.0,0.0,0.0,0.0,0.0,0.0,0.0,0.0,0.0,0.0,0.0,0.0,0.0,0.0,0.0,0.0,0.0,0.0,0.0,0.0,0.0,0.0,0.0,0.0,0.0,0.0,0.0,0.0,-2.9049,0.0,0.0,0.0,0.0,0.0,0.0,0.0,0.0,0.0,0.0,0.0,0.0,0.0,0.0,0.0,0.0,0.0,0.0,0.0,0.0,0.0,0.0,2.4994,2.9108,3.2032,3.4536,3.6559,3.8305,3.934,3.9758,3.9392,3.8945,3.8372,0.0,0.0,0.0,0.0,0.0,0.0,0.0,0.0,0.0,0.0,0.0,0.0,0.0,0.0,0.0,0.0,0.0,0.0,0.0,0.0,0.0,0.0,0.0,0.0,0.0,0.0,3.1294,3.2174,3.26,0.0,0.0,0.0,0.0,0.0,0.0,0.0,0.0,0.0,0.0,4.7795,5.0681,5.3794,5.531,5.6541,5.7423,5.7394,5.7134,5.6675,5.5196,5.3708,0.0,0.0,0.0,0.0,0.0,0.0,0.0,0.0,0.0,0.0,0.0,0.0,0.0,0.0,0.0,0.0,0.0,0.0,0.0,0.0,0.0,0.0,0.0,0.0,0.0,0.0,0.0,-4.7136,-4.4638,0.0,0.0,0.0,0.0,0.0,0.0,0.0,0.0,0.0,0.0,0.0,-0.7948,-0.6092,0.0,0.0,0.0,0.0,0.0,0.0,0.0,0.0,0.0,0.0,0.0,0.0,2.319,2.704,2.9721,3.2251,3.462,3.624,3.7196,3.7367,3.747,3.7005,3.5991,0.0,0.0,0.0,0.0,0.0,0.0,0.0,0.0,0.0,0.0,0.0,0.0,0.0,0.0,0.0,0.0,0.0,0.0,0.0,0.0,0.0,0.0,0.0,0.0,0.0,3.069,0.0,0.0,0.0,0.0,0.0,0.0,0.0,0.0,0.0,0.0,0.0,4.3192,4.7082,4.9544,5.1948,5.4626,5.547,5.6346,0.0,0.0,0.0,0.0,0.0,0.0,0.0,0.0,0.0,0.0,0.0,0.0,0.0,0.0,4.58,4.3938,4.3926,4.3814,4.287,0.0,0.0,0.0,0.0,0.0,0.0,0.0,0.0,0.0,0.0,0.0,0.0,0.0,0.0,-5.2554,0.0,-4.5021,0.0,0.0,0.0,0.0,0.0,0.0,0.0,0.0,-1.281,-1.1366,-1.0115,-0.8093,-0.613,0.0,-0.2227,-0.0155,0.0,0.0,0.0,0.0,0.0,0.0,0.0,0.0,2.1501,2.4863,2.7919,3.0399,3.2208,3.4094,3.5118,3.5367,3.5684,3.5264,3.4326,3.309,3.1825,0.0,0.0,0.0,0.0,0.0,0.0,0.0,0.0,0.0,0.0,0.0,0.0,0.0,0.0,0.0,0.0,0.0,0.0,0.0,0.0,0.0,0.0,0.0,3.1277,0.0,0.0,0.0,0.0,0.0,0.0,0.0,0.0,0.0,3.8918,4.1877,4.4995,4.827,5.0567,5.274,5.4872,0.0,0.0,0.0,0.0,0.0,0.0,0.0,5.4919,5.4812,5.4705,5.4361,5.3847,5.2476,5.145,5.1476,0.0,0.0,4.7834,4.7642,4.7564,4.6349,4.7893,4.9884,5.1764,5.2098,5.2574,0.0,0.0,0.0,0.0,0.0,0.0,0.0,0.0,-6.0124,-5.8664,0.0,-5.0711,0.0,0.0,0.0,0.0,0.0,-1.799,0.0,0.0,-1.4676,-1.3412,-1.1956,-1.0249,-0.8169,-0.5914,-0.4001,-0.2435,-0.0864,0.2024,0.0,0.0,0.0,0.0,0.0,0.0,1.995,2.2851,2.6303,2.8604,2.9734,3.2084,3.3307,3.3474,3.3769,3.3626,3.3263,3.204,3.074,2.9258,2.7951,0.0,0.0,0.0,0.0,0.0,0.0,0.0,0.0,0.0,0.0,0.0,0.0,0.0,0.0,0.0,0.0,0.0,0.0,0.0,0.0,3.0628,0.0,0.0,0.0,0.0,0.0,0.0,0.0,0.0,0.0,0.0,4.0607,4.3799,4.6677,4.8498,0.0,0.0,0.0,0.0,5.5406,5.6765,5.6493,5.6019,5.6184,5.5693,5.5443,5.5793,0.0,0.0,5.5603,5.5337,5.5017,5.5203,5.5258,5.4654,5.1694,5.1389,5.1239,5.0351,5.1782,5.4268,5.7161,5.6697,5.6308,-7.4869,0.0,0.0,0.0,0.0,-6.7826,-6.7376,-6.6558,-6.527,-6.3068,-6.0045,-5.4714,0.0,0.0,0.0,0.0,0.0,0.0,-1.8947,-1.7751,-1.6681,-1.5341,-1.3538,-1.2174,-1.0335,-0.8259,-0.6238,-0.4572,-0.2904,-0.0705,0.1532,0.3766,0.0,0.0,0.0,0.0,1.7505,2.0262,2.3034,2.5314,2.7164,2.8806,3.0104,3.1248,3.1423,3.1513,3.1366,3.0963,3.0057,2.8487,2.6973,0.0,0.0,0.0,0.0,0.0,0.0,0.0,0.0,0.0,0.0,0.0,0.0,0.0,0.0,0.0,0.0,0.0,0.0,0.0,3.089,3.1582,3.2063,0.0,0.0,0.0,0.0,0.0,0.0,0.0,0.0,0.0,4.1122,4.4402,4.7341,0.0,0.0,5.2434,5.4391,5.4696,5.5126,5.6027,5.5757,0.0,5.5854,5.5672,5.5735,5.6428,5.6954,5.7397,5.7707,5.7228,5.6714,5.6714,5.697,5.6886,5.6359,5.5471,5.4586,5.4133,5.4988,5.6522,5.823,5.8673,5.8906,-8.0478,-7.7126,-7.5009,-7.3904,-7.335,-7.3175,-7.2567,-7.1708,-6.996,-6.7484,-6.4239,-5.8823,-5.3659,-4.8662,-3.9907,0.0,0.0,0.0,-2.1339,-1.9977,-1.8834,-1.7398,-1.5877,-1.4501,-1.2598,-1.0422,-0.8299,-0.6353,-0.4215,-0.2491,-0.0378,0.1831,0.0,0.0,0.9473,1.2589,1.542,1.7901,2.0333,2.2495,2.4525,2.6096,2.7557,2.8698,2.8818,2.9077,2.8932,2.8719,2.8079,2.6841,2.5703,2.4306,0.0,0.0,0.0,0.0,0.0,0.0,0.0,0.0,0.0,0.0,0.0,2.1042,2.2588,0.0,0.0,0.0,2.8276,2.9932,3.1795,3.1826,0.0,0.0,0.0,0.0,0.0,0.0,0.0,3.6091,3.7802,3.9584,4.112,4.3574,4.6181,4.8379,4.9873,5.138,5.2921,0.0,5.4264,5.505,5.5291,5.5374,5.5815,5.6009,5.6368,5.7321,5.7976,5.8427,5.8876,5.8447,5.812,5.8095,5.8391,5.861,5.8671,5.8082,5.7309,5.6554,5.7331,5.8508,5.9773,6.0182,6.0456,-8.4383,-8.3365,-8.0942,-7.9096,-7.7702,-7.7742,-7.6954,-7.572,-7.3974,-7.1561,-6.8111,-6.2551,-5.7162,-5.137,-4.0072,0.0,-2.9047,-2.5838,-2.374,-2.2487,-2.1364,-2.0018,-1.845,-1.7224,-1.51,-1.25,-1.0288,-0.7874,-0.5255,-0.3439,-0.1823,-0.0202,0.3076,0.5816,0.7924,1.1023,1.3596,1.5643,1.8068,2.019,2.1754,2.388,2.5345,2.5917,2.6094,2.6343,2.6298,2.587,2.5386,2.4857,2.3995,2.3078,2.1756,0.0,0.0,0.0,0.0,0.0,0.0,0.0,0.0,0.0,0.0,0.0,0.0,0.0,0.0,0.0,2.9559,0.0,3.1692,3.1383,0.0,0.0,0.0,3.2086,3.2753,3.3568,3.4745,3.6172,0.0,0.0,4.0463,4.1822,4.363,4.6183,4.8497,5.0088,5.0665,5.1923,5.3148,5.3842,5.4673,5.5462,5.5715,5.6197,5.6813,5.7655,5.8359,5.8624,5.9092,5.9092,5.9273,5.9067,5.9608,5.9792,5.9262,5.9515,5.943,5.8291,5.8841,5.9827,6.089,6.1112,6.1165,-8.7053,-8.6521,-8.5866,-8.3868,-8.0954,-8.0316,-7.932,-7.8015,-7.5668,-7.2652,-6.885,-6.4116,-5.6649,-4.7183,-4.0878,-3.5912,-3.2019,-2.9043,-2.6759,-2.5119,-2.4011,-2.2576,-2.0777,-1.9622,-1.7618,-1.4973,-1.2732,-1.0274,-0.7414,-0.5395,-0.3332,-0.125,0.0828,0.3258,0.6153,0.8994,1.1254,1.3073,1.5441,1.7754,2.0175,2.1212,2.2232,2.362,2.378,2.3996,2.4452,2.4339,2.3796,2.2808,2.2313,2.159,2.048,1.9132,0.0,0.0,0.0,0.0,0.0,0.0,0.0,0.0,0.0,2.1233,2.3017,0.0,2.6776,0.0,2.9792,3.0855,3.1347,3.0989,0.0,0.0,3.1833,3.2127,3.2796,3.354,3.4419,3.5537,3.6517,3.7558,3.8746,4.0238,4.1585,4.3217,4.5881,4.8401,5.0095,5.1187,5.2131,5.2791,5.3602,5.4345,5.4894,5.5541,5.6206,5.6867,5.7195,5.7663,5.8151,5.8499,5.8661,5.8661,5.9169,5.9441,5.9613,6.0089,6.018,5.9968,5.9836,5.9882,6.0658,6.0921,6.1237,-8.8618,-8.8131,-8.8049,-8.6547,-8.4207,-8.3364,-8.2265,-8.0789,-7.8053,-7.4754,-7.0779,-6.3371,-5.5275,-4.7072,-4.2249,-3.8134,-3.4525,-3.1828,-2.9357,-2.7525,-2.6433,-2.5145,-2.3417,-2.1871,-1.9823,-1.7315,-1.4802,-1.2069,-0.933,-0.7036,-0.492,-0.2781,-0.129,0.0854,0.3348,0.6436,0.8873,1.0679,1.3189,1.5481,1.7312,1.8127,1.9346,2.0773,2.0975,2.1475,2.2264,2.1974,2.1735,2.1119,2.053,1.9754,1.9182,1.7998,1.7256,0.0,0.0,0.0,0.0,0.0,0.0,0.0,0.0,0.0,0.0,0.0,2.6543,2.8577,2.9322,2.9658,3.017,2.9859,2.9658,3.0156,3.0363,3.088,3.1541,3.2383,3.3058,3.3916,3.4894,3.5822,3.676,3.783,3.9242,4.0907,4.305,4.5362,4.8037,4.9608,5.0607,5.1496,5.2741,5.3727,5.4258,5.5136,5.566,5.6181,5.67,5.724,5.7754,5.8096,5.8366,5.8324,5.895,5.9284,5.9041,5.9576,5.9992,5.9922,5.9533,5.9562,6.0583,6.094,6.1249,-8.9821,-8.9163,-8.8876,-8.8313,-8.733,-8.6451,-8.5063,-8.3255,-8.0332,-7.663,-7.1912,-6.176,-5.4201,-4.8626,-4.4008,-4.0062,-3.6883,-3.4296,-3.1895,-3.0095,-2.9101,-2.7742,-2.6087,-2.3952,-2.19,-1.9539,-1.6766,-1.3961,-1.0921,-0.8763,-0.6584,-0.483,-0.3078,-0.1319,0.0438,0.3216,0.6113,0.8757,1.123,1.3086,1.4117,1.5333,1.6359,1.7391,1.7997,1.8806,2.0012,1.946,1.95,1.9718,1.8988,1.8272,1.7938,1.7086,1.6572,0.0,1.5767,0.0,0.0,0.0,0.0,0.0,0.0,0.0,0.0,2.3391,2.5855,2.8151,2.8082,2.8107,2.8458,2.8289,2.8107,2.8107,2.8277,2.8924,2.9572,3.0373,3.1022,3.1879,3.2938,3.3667,3.4354,3.5159,3.6714,3.8698,4.0173,4.224,4.5317,4.7411,4.8965,5.0254,5.1637,5.2662,5.3646,5.4281,5.4808,5.5215,5.5695,5.6593,5.7201,5.7581,5.7669,5.7793,5.8356,5.8795,5.8126,5.8661,5.9022,5.9044,5.878,5.8844,5.9983,6.0438,6.0846,-9.1713,-9.1434,-9.1102,-9.0677,-9.012,-8.9247,-8.6783,-8.3255,-8.0584,-7.5244,-6.791,-6.1883,-5.5864,-5.0111,-4.6389,-4.2603,-3.858,-3.6362,-3.4531,-3.2686,-3.1097,-2.9666,-2.7983,-2.6133,-2.4027,-2.1267,-1.9036,-1.6269,-1.3435,-1.1394,-0.9005,-0.676,-0.5444,-0.3618,-0.1563,0.0,0.0,0.0,0.88,1.0048,1.1104,1.2084,1.3305,1.4348,1.5407,0.0,1.7313,1.7696,1.8019,1.8465,1.8074,0.0,0.0,0.0,0.0,0.0,0.0,0.0,0.0,0.0,0.0,0.0,1.7427,1.8803,2.0272,2.2829,2.4775,2.6216,2.623,2.6545,2.7129,2.7129,2.7129,2.7129,2.7129,2.7413,2.7658,2.7933,2.8244,2.9091,2.9799,3.0428,3.145,3.2961,3.4413,3.6176,3.7732,3.9489,4.1522,4.4904,4.7357,4.8348,4.966,5.0684,5.1417,5.1812,5.2413,5.291,5.3466,5.3856,5.4634,5.5344,5.5665,5.5695,5.6618,5.7313,5.7421,5.7952,5.8227,5.838,5.8241,5.8189,5.8564,5.8814,5.917,-9.2264,0.0,-9.194,-9.1325,0.0,-8.9835,-8.7773,-8.4859,-8.2406,-7.6362,-6.7754,-6.2844,-5.7559,-5.2296,-4.8517,-4.4813,-4.1376,-3.9122,-3.7235,-3.5572,-3.3883,-3.2398,-3.0893,-2.8533,-2.6363,-2.3974,-2.1384,-1.8786,-1.6181,-1.3875,-1.1654,-0.9575,-0.8247,-0.6403,-0.4085,-0.2724,0.0224,0.4589,0.6091,0.7376,0.8452,0.9714,1.0978,1.2263,1.3338,0.0,0.0,0.0,0.0,0.0,0.0,0.0,0.0,0.0,0.0,1.5683,1.5261,1.5162,1.5235,1.5368,1.5355,1.5421,1.6286,1.7735,2.0009,2.1411,2.2593,2.3474,2.3582,2.3651,2.4047,2.4047,2.4047,2.4037,2.4047,2.4335,2.4947,2.5281,2.584,2.6873,2.7636,2.8223,2.9066,3.0334,3.193,3.3343,3.5075,3.6774,3.8747,4.2275,4.5235,4.661,4.7607,4.8387,4.8775,4.9356,4.9915,5.0319,5.1105,5.1868,5.2458,5.3214,5.3696,5.4048,5.4726,5.5236,5.5527,5.6188,5.6663,5.662,5.6933,5.7087,5.7078,5.7476,5.8042,-9.2539,-9.241,-9.2259,-9.1528,-9.0415,-8.9727,-8.8292,-8.6118,0.0,0.0,0.0,-6.4324,-5.9317,-5.4565,-5.0497,-4.7049,-4.4074,-4.1782,-3.9876,-3.8169,-3.6464,-3.495,-3.3646,-3.079,-2.8575,-2.6581,-2.4048,-2.139,-1.9008,-1.6621,-1.4568,-1.2662,-1.0832,-0.8986,-0.6903,-0.4139,-0.1361,0.1104,0.3519,0.5045,0.6129,0.7431,0.8736,1.0473,1.113,1.2428,1.481,1.4282,1.4613,1.5574,1.5048,1.4719,1.4582,1.447,1.4404,1.4374,1.4285,1.4226,1.4226,1.4226,1.4279,1.42,1.4717,1.6333,1.9372,1.9573,1.9864,2.0443,2.0689,2.0722,2.0756,2.0756,2.0765,2.0765,2.0756,2.1233,2.2418,2.2779,2.3351,2.4385,2.5371,2.6154,2.6596,2.7882,2.9244,3.0505,3.2251,3.4242,3.6552,3.9912,4.3104,4.4834,4.5473,4.5909,4.6198,4.6818,4.76,4.7907,4.8898,4.9901,5.0432,5.0998,5.1637,5.1857,5.2559,5.3193,5.324,5.4129,5.4599,5.4698,5.5086,5.5431,5.5484,5.6132,5.6655,-9.2943,-9.2752,-9.2462,-9.2098,-9.1696,-9.0711,-8.8194,-8.4495,-8.0768,-7.6208,-7.135,-6.6695,-6.1643,-5.6612,-5.3015,-4.9331,-4.5752,-4.3672,-4.1587,0.0,-3.7769,-3.5829,-3.4299,-3.2349,-3.0142,-2.7932,-2.6077,-2.4145,-2.1693,-1.9317,-1.7299,-1.5425,-1.3571,-1.1437,-0.9049,-0.6913,-0.5041,-0.3652,0.0225,0.2449,0.3315,0.4828,0.6337,0.7646,0.8525,1.0042,1.1777,1.2201,1.3053,1.4122,1.4106,1.4039,1.3705,1.3673,1.3629,1.3531,1.351,1.3499,1.3499,1.3504,1.3337,1.302,1.3046,1.4184,1.6735,1.7009,1.7554,1.812,1.8259,1.8623,1.9174,1.9167,1.9152,1.9167,1.9182,1.963,2.0269,2.0293,2.0759,2.1456,2.2317,2.3268,2.3618,2.537,2.6948,2.7995,3.0002,3.2222,3.4953,3.8408,4.0852,4.2342,4.2834,4.3377,4.4177,4.4756,4.4985,4.5753,4.5905,4.661,4.7292,4.8069,4.8608,4.8927,5.0064,5.1017,5.1519,5.2175,5.2741,5.3025,5.332,5.3405,5.3509,5.3793,5.4196,-9.3671,-9.3536,-9.2748,-9.2268,-9.1854,-9.0027,-8.7501,-8.4571,-8.1325,-7.7119,-7.2359,-6.8227,-6.3674,-5.8747,-5.5338,-5.1885,-4.8657,-4.6363,-4.4467,-4.2767,-4.0409,-3.8476,-3.6732,-3.4537,-3.2325,-3.0097,-2.8378,-2.6167,-2.3927,-2.1701,-1.9893,-1.8271,-1.5714,-1.3363,-1.1453,-0.9086,-0.766,-0.6705,-0.2515,0.0227,0.113,0.2476,0.4044,0.5618,0.6513,0.7858,1.0097,1.0277,1.0895,1.2171,1.2115,1.2036,1.1933,1.1928,1.1905,1.1863,1.1858,1.1858,1.1863,1.1858,1.1662,1.1492,1.1492,1.1867,1.2994,1.4091,1.4998,1.5485,1.5766,1.5828,1.6315,1.6321,1.6328,1.6321,1.6328,1.6576,1.7507,1.7744,1.8206,1.9372,2.0481,2.1165,2.1464,2.3213,2.4589,2.5433,2.7508,3.0035,3.1674,3.3753,3.6258,3.8961,3.9851,3.991,4.0695,4.1345,4.1689,4.2162,4.2981,4.3665,4.4173,4.4904,4.5628,4.6258,4.722,4.7816,4.8608,4.9414,5.0103,5.0396,5.0881,5.1381,5.1626,5.1968,5.2755,-9.4008,-9.3869,-9.2788,-9.1977,-9.1288,-8.9164,-8.6906,-8.4745,-8.2316,-7.8401,-7.367,-6.9592,-6.5438,-6.0998,-5.7823,-5.4654,-5.163,-4.9422,-4.734,-4.5415,-4.3255,-4.1089,-3.9344,-3.6892,-3.4657,-3.2394,-3.0787,-2.8512,-2.6252,-2.4402,-2.2553,-2.0481,-1.7443,-1.5326,-1.3884,-1.1541,-0.9861,-0.8624,-0.5329,-0.2537,-0.069,0.069,0.2069,0.3678,0.4366,0.5973,0.8034,0.8217,0.8843,0.9914,0.9832,0.9757,0.9697,0.9671,0.9663,0.9663,0.9663,0.9663,0.9663,0.9663,0.9663,0.9444,0.9444,0.9444,0.9663,1.0757,1.2055,1.2911,1.3124,1.3134,1.3165,1.317,1.3165,1.316,1.3383,1.3862,1.5029,1.5272,1.6206,1.7652,1.8565,1.9235,1.9943,2.1277,2.2659,2.3683,2.5373,2.7257,2.7984,2.9114,3.153,3.4208,3.5936,3.6599,3.6843,3.7749,3.8353,3.8511,3.9538,4.0438,4.1053,4.1573,4.2342,4.3526,4.399,4.4566,4.5542,4.6258,4.7021,4.7365,4.8157,4.8786,4.9554,4.9945,5.0998,-9.3304,-9.2763,-9.233,-9.125,-8.9933,-8.8655,-8.6856,-8.4562,-8.2329,-7.9239,-7.5211,-7.1241,-6.7341,-6.3566,-6.0463,-5.7328,-5.4157,-5.2202,-5.0224,-4.809,-4.5713,-4.3514,-4.1265,-3.928,-3.7263,-3.475,-3.3354,-3.1494,-2.9206,-2.7115,-2.4554,-2.1285,-1.9629,-1.7899,-1.5902,-1.4471,-1.2538,-1.0107,-0.8687,-0.6061,-0.276,-0.069,0.069,0.1839,0.253,0.3908,0.575,0.5739,0.6422,0.7559,0.7502,0.7471,0.7457,0.741,0.7379,0.7602,0.7602,0.7382,0.7602,0.7605,0.7376,0.6711,0.6706,0.6706,0.6706,0.6932,0.8021,1.0179,1.0824,1.0853,1.0937,1.0941,1.0928,1.092,1.1372,1.2061,1.2723,1.3854,1.4792,1.5582,1.6708,1.7432,1.7755,1.9135,2.0732,2.232,2.3277,2.4479,2.5498,2.6427,2.7386,2.9074,3.127,3.3457,3.4258,3.5024,3.5313,3.5803,3.6406,3.6911,3.7554,3.8525,3.9788,4.0002,4.0946,4.1832,4.2374,4.3035,4.3637,4.4751,4.534,4.5857,4.6623,4.7093,4.8194,-9.3396,-9.2755,-9.1966,-9.0586,-8.8918,-8.8242,-8.6678,-8.4388,-8.2259,-7.9499,-7.6206,-7.2758,-6.9114,-6.5306,-6.2271,-5.9169,-5.6408,-5.4301,-5.2074,-4.9524,-4.734,-4.5371,-4.2942,-4.1159,-3.9138,-3.6661,-3.5065,-3.323,-3.1155,-2.8601,-2.5797,-2.2984,-2.1567,-1.9873,-1.7912,-1.6184,-1.423,-1.2071,-1.0371,-0.8206,-0.5597,-0.3497,-0.1399,0.0,0.07,0.1866,0.3261,0.3714,0.4167,0.5088,0.5053,0.5019,0.4995,0.4978,0.5182,0.5609,0.5829,0.6055,0.5605,0.5605,0.5381,0.471,0.471,0.4935,0.5157,0.5157,0.6043,0.7365,0.8249,0.8711,0.8734,0.8517,0.8517,0.8741,0.9184,0.9854,1.0297,1.1468,1.2649,1.3588,1.4553,1.5288,1.5805,1.7016,1.8658,2.0038,2.1002,2.2008,2.2768,2.3462,2.4182,2.4693,2.6234,2.8266,3.0384,3.1521,3.2149,3.2538,3.3171,3.3506,3.4372,3.4952,3.5772,3.6491,3.7629,3.8382,3.8778,4.0002,4.0915,4.1703,4.2772,4.3409,4.4251,4.4645,4.5652,-9.3148,-9.2292,-9.1303,-8.9907,-8.8374,-8.7653,-8.6189,-8.4075,-8.1896,-7.9545,-7.6705,-7.3671,-7.0462,-6.72,-6.4176,-6.1221,-5.85,-5.6345,-5.4109,-5.1351,-4.9387,-4.7422,-4.4996,-4.323,-4.097,-3.8947,-3.6907,-3.4839,-3.2526,-2.972,-2.714,-2.5026,-2.3605,-2.1681,-1.972,-1.7918,-1.5942,-1.401,-1.2036,-1.0114,-0.8233,-0.5884,-0.3768,-0.1884,-0.1178,-0.0236,0.1177,0.164,0.2336,0.2801,0.3012,0.3216,0.3191,0.3183,0.3393,0.3817,0.4262,0.4262,0.3812,0.3812,0.3588,0.3141,0.3142,0.3365,0.3588,0.3812,0.4036,0.4709,0.5381,0.6053,0.6727,0.6727,0.6727,0.6727,0.7185,0.787,0.8322,0.9511,1.0704,1.1637,1.2387,1.3359,1.4083,1.5072,1.6282,1.7678,1.8905,1.9676,1.9907,2.0817,2.1518,2.1525,2.2209,2.3811,2.6786,2.8141,2.8606,2.9296,2.9943,3.0554,3.1293,3.1493,3.215,3.3335,3.4052,3.4811,3.564,3.6936,3.7727,3.8369,3.9208,4.0468,4.0816,4.151,4.1931,-9.2025,-9.0994,-8.9903,-8.9052,-8.8283,-8.6913,-8.5359,-8.3547,-8.1212,-7.903,-7.6671,-7.3708,-7.1464,-6.9781,-6.6141,-6.3234,-6.0705,-5.8761,-5.658,-5.4261,-5.2109,-4.9947,-4.7519,-4.5272,-4.3201,-4.1317,-3.925,-3.6495,-3.3241,-3.1128,-2.9249,-2.733,-2.5386,-2.339,-2.1317,-1.9727,-1.7694,-1.5453,-1.3685,-1.2218,-1.0114,-0.8236,-0.6119,-0.4003,-0.3063,-0.2121,-0.0942,-0.0236,0.0471,0.0942,0.1402,0.1854,0.1839,0.1825,0.1811,0.2023,0.2021,0.2021,0.2022,0.2023,0.2023,0.1798,0.18,0.2022,0.2025,0.2025,0.2475,0.2918,0.3147,0.3819,0.5167,0.5387,0.5385,0.5389,0.5871,0.6343,0.635,0.7995,0.9209,0.9491,1.0437,1.1631,1.2877,1.3372,1.43,1.5465,1.6645,1.7116,1.782,1.851,1.8974,1.9444,1.9907,2.0833,2.382,2.5196,2.5882,2.6339,2.6786,2.7241,2.7924,2.8358,2.9233,3.0082,3.0812,3.181,3.2648,3.3444,3.3977,3.4811,3.5909,3.6977,3.7275,3.7582,3.8254,-9.0484,-8.9181,-8.8243,-8.7423,-8.69,-8.5595,-8.4142,-8.2467,-7.9963,-7.7919,-7.5986,-7.3217,-7.1108,-6.9595,-6.7021,-6.4393,-6.1769,-5.9634,-5.7375,-5.4806,-5.2854,-5.09,-4.8924,-4.6896,-4.5093,-4.3033,-4.0987,-3.7981,-3.4488,-3.2838,-3.0944,-2.8553,-2.6648,-2.4683,-2.2661,-2.0751,-1.8932,-1.7202,-1.5359,-1.3621,-1.2218,-1.0583,-0.8937,-0.6824,-0.471,-0.3297,-0.2826,-0.1884,-0.1178,-0.0943,-0.0705,-0.0468,-0.0463,0.0229,0.0905,0.1124,0.1579,0.1584,0.1359,0.1137,0.114,0.0684,0.0684,0.0912,0.114,0.114,0.1596,0.2051,0.2051,0.2506,0.2955,0.3387,0.3596,0.3389,0.4081,0.4554,0.4807,0.6223,0.742,0.7674,0.864,0.9851,1.0564,1.1047,1.1988,1.3392,1.4088,1.4788,1.526,1.5953,1.6651,1.7123,1.7355,1.8052,1.9669,2.2225,2.3616,2.3599,2.4049,2.4508,2.4967,2.5415,2.6301,2.6965,2.7783,2.845,2.9277,3.0387,3.0933,3.1845,3.3163,3.3323,3.3899,3.4008,3.4706,-8.868,-8.7656,-8.6338,-8.5769,-8.5339,-8.3994,-8.2619,-8.0961,-7.8916,-7.7232,-7.5303,-7.3018,-7.1212,-6.9622,-6.7498,-6.5065,-6.2622,-6.0323,-5.8012,-5.5471,-5.3526,-5.1779,-4.9812,-4.8016,-4.6221,-4.4186,-4.1446,-3.8446,-3.5439,-3.4017,-3.2118,-2.9507,-2.7836,-2.5919,-2.3953,-2.2026,-2.0455,-1.8741,-1.6856,-1.5298,-1.3864,-1.269,-1.1051,-0.9407,-0.6824,-0.5178,-0.4476,-0.3297,-0.2592,-0.2356,-0.2121,-0.1878,-0.1862,-0.1149,-0.0455,0.0,0.0682,0.0684,0.0457,0.0229,0.023,0.0,-0.023,0.0,0.046,0.069,0.092,0.138,0.161,0.161,0.1606,0.1821,0.204,0.1824,0.2515,0.2983,0.3001,0.4418,0.5368,0.6077,0.657,0.7529,0.8233,0.8941,0.9879,1.1051,1.175,1.2218,1.3158,1.3626,1.4321,1.5026,1.526,1.5988,1.6951,1.885,2.0422,2.0863,2.1325,2.1549,2.2258,2.2711,2.3394,2.4058,2.4737,2.5425,2.6101,2.7241,2.8151,2.907,2.9201,2.932,2.9845,3.0565,3.097,-8.6573,-8.5956,-8.4528,-8.3877,-8.3729,-8.2282,-8.0707,-7.953,-7.8284,-7.6683,-7.5039,-7.3221,-7.1285,-6.9866,-6.7441,-6.5267,-6.2827,-6.0761,-5.8455,-5.6368,-5.4628,-5.2654,-5.0459,-4.8685,-4.6671,-4.464,-4.1446,-3.8472,-3.5907,-3.4488,-3.2827,-3.0459,-2.8792,-2.6879,-2.4476,-2.3573,-2.2042,-1.9824,-1.8398,-1.7037,-1.5526,-1.3889,-1.2713,-1.1298,-0.9886,-0.8239,-0.589,-0.4476,-0.3768,-0.3768,-0.2591,-0.1878,-0.2096,-0.1847,-0.1839,-0.1608,-0.1149,-0.092,-0.092,-0.0921,-0.0692,-0.0462,-0.0691,-0.0692,-0.0231,0.0,0.0231,0.0461,0.0692,0.0921,0.0922,0.0921,0.115,0.1611,0.185,0.1858,0.2098,0.2344,0.3298,0.4473,0.4945,0.5182,0.6121,0.6826,0.7532,0.8703,0.9407,0.9876,1.0817,1.152,1.2456,1.2929,1.3421,1.3929,1.4686,1.5436,1.6772,1.7884,1.859,1.9063,1.9804,2.027,2.0983,2.1666,2.2138,2.2834,2.3529,2.4215,2.465,2.5563,2.5489,2.569,2.591,2.6377,2.7241,-8.5514,-8.4528,-8.3161,-8.2527,-8.213,-8.0801,-7.9696,-7.8642,-7.7221,-7.5745,-7.4131,-7.1922,-7.0245,-6.8528,-6.6447,-6.4233,-6.2004,-6.0135,-5.8264,-5.6582,-5.4844,-5.2891,-5.1138,-4.9147,-4.6671,-4.3504,-4.1231,-3.8923,-3.6609,-3.5192,-3.3299,-3.0933,-2.9269,-2.7367,-2.5207,-2.3828,-2.2535,-2.1317,-1.9706,-1.8628,-1.7887,-1.5745,-1.4286,-1.3272,-1.1852,-1.0176,-0.8947,-0.6826,-0.5653,-0.5182,-0.424,-0.3521,-0.2798,-0.2555,-0.2314,-0.1842,-0.1618,-0.1623,-0.1624,-0.1631,-0.1403,-0.1404,-0.1403,-0.1404,-0.1404,-0.1169,-0.1169,-0.0935,-0.0702,-0.0234,-0.0234,0.0,0.0233,0.0464,0.093,0.1167,0.1172,0.1647,0.2355,0.2592,0.3063,0.3534,0.4005,0.4476,0.5651,0.6594,0.7064,0.7769,0.8474,0.9427,0.9908,1.0648,1.1139,1.1886,1.2426,1.2947,1.3877,1.5249,1.5942,1.6844,1.7569,1.8052,1.8771,1.9241,1.9718,2.0188,2.0899,2.1126,2.1564,2.2305,2.2547,2.2483,2.2162,2.2578,2.3495,-8.4233,-8.3191,-8.2119,-8.1371,-8.0772,-7.9772,-7.8874,-7.7616,-7.627,-7.4801,-7.3135,-7.131,-6.9479,-6.7813,-6.5847,-6.3623,-6.157,-5.9947,-5.8072,-5.6368,-5.4844,-5.3109,-5.1138,-4.8685,-4.6076,-4.2968,-4.1288,-3.9386,-3.6843,-3.5673,-3.3782,-3.1656,-2.9517,-2.7846,-2.5937,-2.4623,-2.3597,-2.2374,-2.1033,-2.0,-1.9032,-1.7801,-1.6299,-1.5039,-1.3576,-1.2574,-1.157,-0.9424,-0.7766,-0.6594,-0.5653,-0.4464,-0.351,-0.3507,-0.3266,-0.2792,-0.2331,-0.2339,-0.234,-0.2114,-0.2121,-0.1886,-0.2121,-0.2121,-0.1885,-0.1885,-0.1885,-0.1885,-0.1413,-0.1178,-0.1178,-0.0943,-0.0705,-0.0702,0.0,0.0469,0.0706,0.0943,0.1178,0.1649,0.1885,0.2121,0.2592,0.3063,0.4011,0.4489,0.5203,0.5687,0.6404,0.7368,0.7865,0.8358,0.9083,0.984,1.0381,1.0889,1.1142,1.2322,1.3501,1.4642,1.5801,1.6039,1.6757,1.6989,1.7463,1.7694,1.8168,1.8181,1.8418,1.9189,1.9699,1.9122,1.8549,1.9504,2.0181,-8.313,-8.2007,-8.1324,-8.0611,-7.9829,-7.91,-7.7998,-7.6525,-7.5291,-7.3947,-7.2436,-7.0706,-6.9185,-6.7662,-6.5468,-6.3215,-6.1363,-5.9738,-5.7648,-5.5939,-5.4251,-5.2763,-5.0802,-4.7716,-4.5176,-4.3033,-4.143,-3.9208,-3.6906,-3.5686,-3.4017,-3.2129,-3.0231,-2.8324,-2.6648,-2.5697,-2.4476,-2.2997,-2.2382,-2.1362,-1.9914,-1.9318,-1.8271,-1.6584,-1.5779,-1.4534,-1.3315,-1.1822,-0.989,-0.7769,-0.6358,-0.5651,-0.4945,-0.471,-0.4473,-0.3998,-0.3298,-0.3061,-0.3063,-0.3067,-0.2832,-0.2361,-0.26,-0.2595,-0.2365,-0.2364,-0.2362,-0.2125,-0.2123,-0.1886,-0.1886,-0.1885,-0.1649,-0.1651,-0.0706,0.0,0.0,0.0,0.0472,0.0708,0.0943,0.118,0.1655,0.1892,0.2134,0.2618,0.3339,0.4066,0.4558,0.5283,0.6263,0.6751,0.6994,0.7749,0.8519,0.9021,0.9274,0.9757,1.1201,1.2379,1.3544,1.4265,1.4506,1.4976,1.4955,1.5184,1.5194,1.5227,1.5472,1.5969,1.5952,1.5407,1.5624,1.6572,1.7488,-8.2829,-8.1935,-8.0861,-7.9904,-7.8989,-7.8239,-7.7093,-7.5729,-7.4833,-7.319,-7.1377,-6.955,-6.7685,-6.5669,-6.3871,-6.1798,-5.9988,-5.8515,-5.7009,-5.5136,-5.3658,-5.1765,-4.9622,-4.7332,-4.4965,-4.3153,-4.1496,-3.9712,-3.737,-3.6241,-3.45,-3.2129,-3.0707,-2.904,-2.7377,-2.5946,-2.4984,-2.4011,-2.3005,-2.225,-2.1518,-2.0267,-1.9233,-1.8647,-1.7164,-1.5896,-1.4865,-1.3097,-1.0884,-0.8477,-0.7534,-0.6826,-0.6123,-0.5655,-0.5423,-0.5188,-0.4952,-0.495,-0.472,-0.4502,-0.4277,-0.4043,-0.3818,-0.3595,-0.3356,-0.3339,-0.3331,-0.3326,-0.284,-0.2594,-0.2594,-0.2122,-0.189,-0.1899,-0.1184,-0.0708,-0.0708,-0.0236,0.0,0.0237,0.0238,0.0477,0.0717,0.0958,0.1199,0.1442,0.1925,0.2649,0.3143,0.3628,0.436,0.4859,0.5109,0.5863,0.6376,0.7123,0.7376,0.7624,0.86,0.9812,1.1019,1.1991,1.2487,1.2735,1.2691,1.2669,1.2704,1.274,1.2975,1.32,1.2957,1.2934,1.3117,1.3572,1.4971,-8.2573,-8.1504,-8.0609,-7.9548,-7.8266,-7.762,-7.6465,-7.4886,-7.369,-7.2486,-7.0689,-6.8978,-6.7107,-6.5468,-6.3435,-6.1559,-5.9679,-5.8185,-5.6913,-5.525,-5.3137,-5.107,-4.906,-4.7092,-4.527,-4.3489,-4.2042,-3.9957,-3.7957,-3.6614,-3.4843,-3.2861,-3.1181,-2.9269,-2.7846,-2.6177,-2.5224,-2.4493,-2.3528,-2.2803,-2.2569,-2.1585,-2.0822,-2.0239,-1.8738,-1.7194,-1.5874,-1.4601,-1.2605,-0.9911,-0.8941,-0.8236,-0.7537,-0.709,-0.6863,-0.6627,-0.6409,-0.6185,-0.595,-0.5496,-0.5268,-0.5272,-0.4813,-0.482,-0.4578,-0.4563,-0.4552,-0.4072,-0.3817,-0.3572,-0.3332,-0.2856,-0.2862,-0.2632,-0.2147,-0.1666,-0.1428,-0.1191,-0.0715,-0.0479,-0.0479,-0.024,0.0,0.0241,0.0484,0.0727,0.1212,0.1458,0.1706,0.2191,0.2679,0.3177,0.3428,0.4174,0.4672,0.5418,0.5912,0.6163,0.6409,0.7642,0.8624,0.9856,1.0098,1.0337,1.0098,1.0105,1.0358,1.0376,1.0144,1.0383,1.0398,1.0633,1.0828,1.1495,1.2669,-8.243,-8.0912,-8.0448,-7.9335,-7.7878,-7.7064,-7.58,-7.4005,-7.2816,-7.1367,-7.0147,-6.8703,-6.7097,-6.5928,-6.3667,-6.1891,-6.0199,-5.8368,-5.6936,-5.5042,-5.2812,-5.0725,-4.9426,-4.7146,-4.556,-4.4004,-4.2341,-4.0383,-3.8532,-3.7013,-3.5647,-3.3828,-3.1645,-2.9745,-2.8563,-2.6658,-2.5465,-2.4734,-2.4011,-2.3287,-2.2811,-2.2319,-2.2062,-2.1313,-2.0253,-1.8679,-1.7367,-1.6346,-1.4823,-1.1091,-1.0848,-1.0158,-0.9219,-0.9031,-0.8816,-0.835,-0.7907,-0.7452,-0.7225,-0.6744,-0.6274,-0.6276,-0.6041,-0.6041,-0.5808,-0.5802,-0.5553,-0.507,-0.4827,-0.4573,-0.4092,-0.3855,-0.3857,-0.362,-0.3139,-0.2658,-0.2418,-0.2174,-0.1689,-0.1208,-0.1208,-0.0966,-0.0484,0.0,0.0,0.0244,0.0733,0.0735,0.0981,0.1227,0.1719,0.1968,0.2217,0.2465,0.3207,0.3701,0.444,0.4934,0.4933,0.5426,0.6163,0.7147,0.7642,0.7888,0.8135,0.8146,0.8165,0.7938,0.7967,0.8239,0.8488,0.8488,0.8473,0.9897,1.1073,-8.2705,-8.1689,-8.0263,-7.8923,-7.7735,-7.6581,-7.5143,-7.3519,-7.2403,-7.1103,-6.9746,-6.807,-6.6687,-6.4909,-6.3292,-6.1313,-5.9909,-5.7949,-5.6024,-5.3669,-5.2114,-5.0766,-4.9557,-4.7386,-4.5781,-4.4535,-4.2649,-4.0729,-3.9163,-3.7644,-3.5969,-3.4747,-3.2838,-3.0944,-2.9755,-2.7846,-2.6418,-2.5465,-2.4743,-2.4011,-2.3287,-2.2803,-2.2561,-2.2319,-2.1064,-2.0005,-1.8926,-1.8413,-1.7127,-1.5342,-1.3877,-1.292,-1.172,-1.1267,-1.1044,-1.0812,-1.0104,-0.9878,-0.9642,-0.8967,-0.8268,-0.8028,-0.7815,-0.7115,-0.6623,-0.683,-0.6327,-0.5833,-0.5566,-0.5315,-0.4834,-0.4586,-0.4358,-0.4132,-0.3651,-0.366,-0.3426,-0.2674,-0.2182,-0.1945,-0.1948,-0.1708,-0.0982,-0.0736,-0.0491,-0.0246,0.0,0.0247,0.0247,0.0494,0.0741,0.1234,0.1234,0.1481,0.2222,0.2715,0.3208,0.3701,0.3701,0.3701,0.444,0.4933,0.5672,0.6165,0.6413,0.6182,0.5955,0.6235,0.6261,0.6529,0.6795,0.7047,0.7283,0.8491,0.9436,-8.2616,-8.1403,-7.9817,-7.8405,-7.7151,-7.5695,-7.437,-7.3117,-7.1855,-7.0705,-6.9762,-6.8261,-6.6768,-6.5203,-6.3398,-6.1563,-6.0056,-5.8053,-5.5898,-5.359,-5.2463,-5.1183,-4.9688,-4.7873,-4.6216,-4.5189,-4.2878,-4.1159,-3.9952,-3.844,-3.6761,-3.5439,-3.3546,-3.1892,-3.0469,-2.8583,-2.7137,-2.6418,-2.5465,-2.4743,-2.4019,-2.377,-2.3045,-2.2803,-2.1827,-2.1299,-2.0509,-2.026,-1.9481,-1.8458,-1.7464,-1.5964,-1.4215,-1.3755,-1.3539,-1.3303,-1.2625,-1.2154,-1.1937,-1.0989,-1.0287,-1.0287,-0.9836,-0.9358,-0.887,-0.8836,-0.8337,-0.7592,-0.6844,-0.6338,-0.5364,-0.4878,-0.4646,-0.4409,-0.417,-0.3933,-0.3694,-0.3186,-0.2686,-0.2697,-0.27,-0.2212,-0.1972,-0.1481,-0.0988,-0.074,0.0,0.0,0.0,0.0247,0.0247,0.0494,0.0494,0.0741,0.1481,0.1975,0.2221,0.2468,0.2715,0.2715,0.296,0.3453,0.3948,0.4199,0.4452,0.3973,0.3738,0.426,0.4538,0.4556,0.4821,0.5326,0.6074,0.7049,0.8011,-8.2368,-8.0686,-7.9641,-7.8049,-7.6244,-7.4877,-7.3686,-7.2751,-7.1223,-7.0636,-7.011,-6.8628,-6.7073,-6.5749,-6.358,-6.2042,-6.0092,-5.8469,-5.5911,-5.3857,-5.2938,-5.1568,-4.9971,-4.8046,-4.6331,-4.516,-4.3129,-4.166,-4.0424,-3.899,-3.7476,-3.6154,-3.4241,-3.2872,-3.1235,-2.9339,-2.7961,-2.7287,-2.6582,-2.5571,-2.4811,-2.4561,-2.4069,-2.3287,-2.2803,-2.2319,-2.1812,-2.157,-2.1336,-2.0851,-2.0851,-1.9253,-1.7206,-1.6003,-1.607,-1.5834,-1.4689,-1.4227,-1.3983,-1.3273,-1.2548,-1.2316,-1.2316,-1.1821,-1.1326,-1.0835,-1.034,-0.9361,-0.8366,-0.7383,-0.6413,-0.5666,-0.5176,-0.4934,-0.4443,-0.3949,-0.3949,-0.3949,-0.3451,-0.3206,-0.3202,-0.2958,-0.2467,-0.1975,-0.1481,-0.1235,-0.0494,-0.0247,-0.0247,0.0,0.0,0.0,0.0,0.0,0.0741,0.0988,0.1234,0.1481,0.1481,0.1481,0.1481,0.1728,0.2223,0.2478,0.2484,0.2245,0.2509,0.2779,0.3049,0.2807,0.3068,0.409,0.4843,0.5585,0.6564,-8.2368,-8.0513,-7.9318,-7.787,-7.6296,-7.4891,-7.3659,-7.2757,-7.1553,-7.0828,-7.0274,-6.8577,-6.7197,-6.5688,-6.3665,-6.116,-5.8751,-5.7382,-5.6003,-5.3928,-5.3008,-5.1834,-4.9955,-4.8089,-4.654,-4.5242,-4.3606,-4.1907,-4.088,-3.9384,-3.8139,-3.7101,-3.5476,-3.4146,-3.2872,-3.1483,-2.9643,-2.8522,-2.7821,-2.7035,-2.5972,-2.5425,-2.5104,-2.4036,-2.377,-2.3287,-2.2803,-2.2561,-2.2077,-2.1593,-2.135,-2.1071,-2.0288,-1.8849,-1.8153,-1.7423,-1.6715,-1.65,-1.6005,-1.551,-1.501,-1.5005,-1.4541,-1.4041,-1.3301,-1.2806,-1.1833,-1.0597,-0.9368,-0.8386,-0.7648,-0.6911,-0.5925,-0.5431,-0.4691,-0.4444,-0.3949,-0.3952,-0.3953,-0.3709,-0.3706,-0.3703,-0.2962,-0.2469,-0.2222,-0.1728,-0.1234,-0.0988,-0.0741,-0.0494,-0.0247,0.0,0.0,0.0,0.0247,0.0247,0.0247,0.0247,0.0494,0.0494,0.0494,0.0247,0.0495,0.1244,0.1749,0.1756,0.1768,0.0,0.179,0.1796,0.2314,0.2833,0.3335,0.4088,0.5096,-8.1717,-8.0166,-7.876,-7.7518,-7.6324,-7.4557,-7.3703,-7.3084,-7.161,-7.0776,-7.0214,-6.8805,-6.7163,-6.5797,-6.3686,-6.0698,-5.8264,-5.7382,-5.6212,-5.4387,-5.3468,-5.2314,-5.0405,-4.8445,-4.679,-4.5468,-4.4104,-4.2482,-4.1016,-3.9959,-3.8931,-3.7801,-3.6478,-3.544,-3.433,-3.2925,-3.1542,-3.019,-2.9712,-2.8696,-2.7108,-2.6304,-2.565,-2.5035,-2.4743,-2.4502,-2.4252,-2.4019,-2.3778,-2.3287,-2.3053,-2.2811,-2.2108,-2.1424,-2.0471,-1.9698,-1.9237,-1.8536,-1.8316,-1.7849,-1.7417,-1.6923,-1.667,-1.6143,-1.5607,-1.4606,-1.3588,-1.1833,-1.0843,-0.9859,-0.863,-0.7894,-0.6908,-0.5676,-0.5185,-0.4693,-0.4202,-0.3964,-0.397,-0.3971,-0.3963,-0.3709,-0.3703,-0.3209,-0.2961,-0.2468,-0.1976,-0.173,-0.1484,-0.1236,-0.0742,0.0,0.0,0.0,-0.0741,-0.0741,-0.0741,-0.0494,-0.0494,-0.0494,-0.0247,-0.0247,0.0,0.0502,0.1007,0.1009,0.0,0.0,0.0,0.0,0.1547,0.1804,0.2062,0.2572,0.3844,-8.1232,-7.9817,-7.8432,-7.7316,-7.6294,-7.4433,-7.3691,-7.3155,-7.1566,-7.0831,-7.0747,-6.8919,-6.7208,-6.5713,-6.3335,-6.0496,-5.7607,-5.7382,-5.6212,-5.4845,-5.3928,-5.2777,-5.082,-4.9143,-4.7458,-4.5453,-4.4541,-4.3182,-4.132,-4.0605,-3.9709,-3.8572,-3.758,-3.675,-3.6043,-3.4622,-3.3424,-3.2508,-3.1544,-3.0322,-2.8509,-2.7081,-2.6403,-2.6009,-2.5964,-2.5706,-2.5456,-2.5456,-2.5224,-2.4751,-2.4535,-2.4077,-2.3375,-2.3024,-2.2803,-2.223,-2.1571,-2.0893,-2.0457,-1.9997,-1.9548,-1.8797,-1.8586,-1.802,-1.7176,-1.6115,-1.4847,-1.3065,-1.1825,-1.1088,-0.9614,-0.8633,-0.7409,-0.6186,-0.5446,-0.4955,-0.4227,-0.399,-0.4003,-0.3996,-0.3978,-0.3977,-0.3733,-0.3733,-0.324,-0.324,-0.2744,-0.2493,-0.2243,-0.1985,-0.1487,-0.1729,0.0,0.0,-0.1728,-0.1728,-0.1481,-0.1234,-0.1234,-0.1234,-0.0743,-0.0745,-0.05,-0.0252,-0.0506,0.0,0.0,0.0,0.0,0.0,0.0,0.0774,0.1032,0.1547,0.2573,-8.1232,-7.9817,-7.8432,-7.7316,-7.6398,-7.4813,-7.404,-7.35,-7.1923,-7.1136,-7.1,-6.8896,-6.723,-6.5284,-6.2543,-5.9889,-5.8077,-5.7363,-5.6457,-5.4845,-5.3928,-5.2777,-5.0871,-4.9376,-4.7569,-4.5794,-4.488,-4.3182,-4.168,-4.1338,-4.0701,-3.9573,-3.8675,-3.8288,-3.7543,-3.6347,-3.5262,-3.4188,-3.2989,-3.1658,-3.0199,-2.8872,-2.8434,-2.8077,-2.7712,-2.7128,-2.6658,-2.6667,-2.6205,-2.5509,-2.5147,-2.473,-2.452,-2.418,-2.4007,-2.3514,-2.2789,-2.1844,-2.1881,-2.1654,-2.1398,-2.0651,-2.0132,-1.9528,-1.8435,-1.7088,-1.5793,-1.5505,-1.3292,-1.1579,-1.0597,-0.9374,-0.7921,-0.671,-0.598,-0.5253,-0.4519,-0.4022,-0.4034,-0.4039,-0.4027,-0.403,-0.4034,-0.4033,-0.3779,-0.3778,-0.3525,-0.3019,-0.3012,-0.2499,-0.2487,-0.2479,-0.2475,-0.2474,-0.2468,-0.2468,-0.2221,-0.1975,-0.1975,-0.1728,-0.1485,-0.1243,-0.1502,-0.1512,-0.1521,-0.1276,0.0,0.0,0.0,0.0,0.0,0.0,0.0,0.0774,0.1032,-8.1031,-7.9817,-7.8254,-7.7319,-7.6815,-7.5042,-7.4289,-7.3844,-7.2318,-7.1413,-7.0794,-6.9106,-6.6782,-6.4204,-6.1642,-5.9646,-5.7833,-5.7382,-5.6684,-5.5073,-5.4158,-5.3008,-5.1748,-5.0088,-4.8051,-4.6635,-4.5356,-4.4092,-4.2563,-4.1646,-4.1269,-4.0344,-3.952,-3.9183,-3.8777,-3.8088,-3.6931,-3.5533,-3.4066,-3.272,-3.1981,-3.1195,-3.0459,-3.0335,-2.939,-2.8822,-2.8583,-2.8211,-2.7778,-2.7102,-2.653,-2.5904,-2.5212,-2.4838,-2.4707,-2.4227,-2.3816,-2.334,-2.2794,-2.2824,-2.2581,-2.2095,-2.132,-2.0254,-1.93,-1.8139,-1.6784,-1.5744,-1.4521,-1.3051,-1.1595,-1.0147,-0.8943,-0.7483,-0.652,-0.5536,-0.4803,-0.4313,-0.4067,-0.4073,-0.4078,-0.4078,-0.4072,-0.4058,-0.4052,-0.3795,-0.3792,-0.3536,-0.3531,-0.3523,-0.3253,-0.3236,-0.323,-0.3227,-0.3216,-0.3209,-0.2961,-0.2715,-0.2468,-0.247,-0.198,-0.199,-0.2256,-0.2276,-0.2038,-0.1539,-0.1289,0.0,0.0,0.0,0.0,-0.1032,-0.1032,-0.1032,-0.0516,-8.0887,-7.9641,-7.7897,-7.7296,-7.7154,-7.5118,-7.4413,-7.4187,-7.2618,-7.1618,-7.0794,-6.8873,-6.5906,-6.3116,-6.1361,-5.981,-5.7607,-5.7382,-5.6684,-5.5548,-5.4634,-5.3451,-5.2228,-5.0619,-4.8911,-4.7025,-4.6101,-4.4876,-4.3706,-4.2782,-4.1813,-4.1108,-4.0281,-3.993,-3.947,-3.8983,-3.8008,-3.6784,-3.5568,-3.4491,-3.3818,-3.3094,-3.2586,-3.2115,-3.1408,-3.103,-3.0813,-3.0211,-2.9351,-2.8764,-2.7953,-2.7329,-2.638,-2.5528,-2.5131,-2.4664,-2.4495,-2.4251,-2.3716,-2.3732,-2.3566,-2.2807,-2.1997,-2.0825,-1.9621,-1.8974,-1.8341,-1.6488,-1.5548,-1.4075,-1.2371,-1.0951,-0.9513,-0.8298,-0.7066,-0.6072,-0.5329,-0.4845,-0.435,-0.4101,-0.4106,-0.4116,-0.4105,-0.4083,-0.4072,-0.4067,-0.4061,-0.4058,-0.4054,-0.4052,-0.3774,-0.3751,-0.374,-0.3731,-0.3712,-0.3703,-0.3456,-0.3456,-0.3209,-0.321,-0.2721,-0.2738,-0.276,-0.2786,-0.2556,-0.2568,-0.2578,-0.2322,-0.2065,-0.1807,-0.1807,-0.2065,-0.2323,-0.2323,-0.2064,-8.0541,-7.9318,-7.7718,-7.7296,-7.718,-7.5118,-7.4413,-7.4437,-7.2845,-7.1618,-7.0563,-6.7798,-6.5241,-6.2898,-6.1361,-5.981,-5.8283,-5.7607,-5.6911,-5.623,-5.5073,-5.391,-5.2724,-5.1319,-4.9672,-4.803,-4.6804,-4.5635,-4.4981,-4.3475,-4.2559,-4.1409,-4.0926,-4.0454,-4.0225,-3.9496,-3.8765,-3.7776,-3.7041,-3.6305,-3.5696,-3.5007,-3.4531,-3.3805,-3.3337,-3.2951,-3.2473,-3.1831,-3.1216,-3.0656,-2.9647,-2.8522,-2.7817,-2.6699,-2.6027,-2.5307,-2.5063,-2.4568,-2.4307,-2.4307,-2.4079,-2.329,-2.2205,-2.1069,-1.987,-1.9228,-1.8347,-1.7513,-1.6333,-1.4909,-1.3214,-1.1779,-1.0346,-0.8868,-0.7626,-0.6635,-0.5886,-0.5389,-0.489,-0.4383,-0.4129,-0.4387,-0.4131,-0.4106,-0.4101,-0.4097,-0.4097,-0.4094,-0.4086,-0.4079,-0.4046,-0.402,-0.4004,-0.3985,-0.3956,-0.3703,-0.3703,-0.3703,-0.3703,-0.3703,-0.3705,-0.3484,-0.3512,-0.3538,-0.3311,-0.3587,-0.3865,-0.3095,-0.2839,-0.2581,-0.2581,-0.2839,-0.2839,-0.2581,-0.2323,-8.0513,-7.9141,-7.7744,-7.7112,-7.683,-7.5309,-7.4609,-7.4338,-7.343,-7.18,-6.9941,-6.7375,-6.481,-6.2898,-6.1361,-6.0032,-5.8283,-5.7607,-5.7156,-5.623,-5.5302,-5.414,-5.3008,-5.1602,-4.9988,-4.8548,-4.7118,-4.5948,-4.5264,-4.4055,-4.3336,-4.2374,-4.1664,-4.0953,-4.0468,-3.9982,-3.924,-3.8765,-3.8277,-3.7788,-3.7482,-3.704,-3.6831,-3.6479,-3.5742,-3.5131,-3.4663,-3.4093,-3.3226,-3.2384,-3.1348,-3.0421,-2.922,-2.8077,-2.685,-2.5861,-2.5349,-2.5097,-2.46,-2.4592,-2.4087,-2.3068,-2.2242,-2.1614,-2.0402,-1.9796,-1.8948,-1.7898,-1.7141,-1.5724,-1.4053,-1.2626,-1.1183,-0.9694,-0.8446,-0.7454,-0.6695,-0.6188,-0.5675,-0.5159,-0.4903,-0.4905,-0.4647,-0.4386,-0.4127,-0.4127,-0.4129,-0.4127,-0.4116,-0.4099,-0.4065,-0.4034,-0.4015,-0.3988,-0.3958,-0.3952,-0.3949,-0.3949,-0.3949,-0.3949,-0.3952,-0.3977,-0.3758,-0.4035,-0.4063,-0.4091,-0.3855,-0.361,-0.3355,-0.3355,-0.3355,-0.3615,-0.3355,-0.3097,-0.2839,-8.0513,-7.8965,-7.7744,-7.6928,-7.64,-7.5526,-7.4805,-7.4514,-7.3833,-7.1981,-6.9315,-6.7163,-6.481,-6.2898,-6.1361,-6.0052,-5.8732,-5.7833,-5.7156,-5.6402,-5.542,-5.4472,-5.3292,-5.2124,-5.0703,-4.9122,-4.781,-4.6423,-4.5502,-4.4489,-4.3801,-4.311,-4.2402,-4.1678,-4.071,-4.0225,-3.9726,-3.9739,-3.9496,-3.9009,-3.8727,-3.8586,-3.814,-3.7847,-3.7392,-3.6849,-3.6381,-3.5766,-3.4937,-3.4074,-3.2978,-3.1826,-3.0603,-2.9365,-2.7872,-2.6859,-2.5853,-2.5357,-2.5097,-2.434,-2.3834,-2.2815,-2.2308,-2.1406,-2.0498,-2.0159,-1.9601,-1.8485,-1.7748,-1.6569,-1.4912,-1.3479,-1.2266,-1.1025,-0.9759,-0.876,-0.7731,-0.7221,-0.6706,-0.5933,-0.5935,-0.5419,-0.5161,-0.4903,-0.4389,-0.4389,-0.4131,-0.4129,-0.4124,-0.4106,-0.408,-0.4049,-0.4023,-0.3992,-0.396,-0.3955,-0.3949,-0.3949,-0.3949,-0.3949,-0.3958,-0.3978,-0.3993,-0.4015,-0.4045,-0.408,-0.4102,-0.386,-0.3867,-0.3873,-0.3873,-0.3873,-0.3873,-0.3615,-0.3615,-8.034,-7.8583,-7.7565,-7.6955,-7.6426,-7.5526,-7.4805,-7.4387,-7.3632,-7.1981,-6.9292,-6.7163,-6.481,-6.2877,-6.1581,-6.0274,-5.918,-5.8058,-5.7344,-5.6779,-5.5633,-5.479,-5.3603,-5.2465,-5.1193,-5.0253,-4.859,-4.7164,-4.6216,-4.5249,-4.4548,-4.3844,-4.3124,-4.2402,-4.1423,-4.071,-4.0481,-4.0481,-4.0238,-3.9982,-3.9483,-3.9444,-3.9058,-3.8674,-3.8356,-3.8089,-3.786,-3.7159,-3.6565,-3.5964,-3.429,-3.3098,-3.2106,-3.0115,-2.8875,-2.8114,-2.6607,-2.5853,-2.5349,-2.434,-2.3329,-2.2569,-2.2062,-2.121,-2.0601,-2.0295,-1.9997,-1.886,-1.8424,-1.7504,-1.6061,-1.4589,-1.3606,-1.2087,-1.0819,-1.0052,-0.9023,-0.8254,-0.7736,-0.7221,-0.6706,-0.619,-0.5933,-0.5675,-0.4903,-0.4389,-0.4131,-0.4128,-0.4122,-0.4106,-0.408,-0.4045,-0.4015,-0.399,-0.396,-0.3953,-0.3949,-0.3949,-0.3949,-0.3949,-0.3949,-0.3959,-0.3977,-0.3996,-0.4022,-0.4053,-0.4083,-0.411,-0.4121,-0.4131,-0.4131,-0.4131,-0.4131,-0.4131,-0.3873,-8.034,-7.861,-7.7565,-7.677,-7.6237,-7.5743,-7.522,-7.4338,-7.2821,-7.0977,-6.9292,-6.7163,-6.5025,-6.3314,-6.1581,-6.0476,-5.9587,-5.8488,-5.7756,-5.6946,-5.5824,-5.4759,-5.3786,-5.2727,-5.171,-5.0698,-4.909,-4.8125,-4.7417,-4.6216,-4.5264,-4.4563,-4.3844,-4.2643,-4.1664,-4.1181,-4.0953,-4.0481,-4.0481,-4.0468,-4.0225,-4.0225,-3.993,-3.9569,-3.9569,-3.9313,-3.9071,-3.833,-3.792,-3.7274,-3.5568,-3.4582,-3.3594,-3.1609,-3.0364,-2.9115,-2.7361,-2.6096,-2.4844,-2.3329,-2.2569,-2.2062,-2.1548,-2.1238,-2.0356,-2.0329,-1.9779,-1.9509,-1.9045,-1.8104,-1.6651,-1.5908,-1.4912,-1.3381,-1.2107,-1.1333,-1.0562,-1.0055,-0.9283,-0.8766,-0.7991,-0.6961,-0.6446,-0.6448,-0.5677,-0.4903,-0.4645,-0.4114,-0.4105,-0.4093,-0.4072,-0.4031,-0.3998,-0.3979,-0.3962,-0.3953,-0.4196,-0.3949,-0.3949,-0.3949,-0.3949,-0.3949,-0.3964,-0.3988,-0.4005,-0.4024,-0.4068,-0.4105,-0.4121,-0.4131,-0.4131,-0.4131,-0.4131,-0.4131,-0.4131,-8.0513,-7.8788,-7.7897,-7.6928,-7.6211,-7.5934,-7.5415,-7.4113,-7.2209,-7.0587,-6.9524,-6.7398,-6.5477,-6.3749,-6.2001,-6.0678,-6.0012,-5.8519,-5.7771,-5.6681,-5.5692,-5.4579,-5.3649,-5.2949,-5.215,-5.1235,-5.0188,-4.9285,-4.8125,-4.6928,-4.5978,-4.5279,-4.4563,-4.3605,-4.2388,-4.1664,-4.1195,-4.0953,-4.071,-4.0481,-4.0481,-4.0481,-4.0481,-4.0454,-4.0454,-4.0212,-3.9969,-3.9483,-3.924,-3.802,-3.7041,-3.606,-3.4582,-3.3088,-3.1847,-3.0115,-2.7863,-2.6096,-2.3834,-2.3075,-2.2316,-2.1301,-2.1308,-2.1006,-2.0424,-2.0424,-2.0158,-1.9892,-1.9633,-1.8665,-1.7715,-1.7483,-1.5945,-1.441,-1.3642,-1.2873,-1.2103,-1.1594,-1.0826,-1.0305,-0.9534,-0.8505,-0.7218,-0.6963,-0.6706,-0.5933,-0.5161,-0.4622,-0.4345,-0.4075,-0.4057,-0.4016,-0.3985,-0.4215,-0.4203,-0.4447,-0.4444,-0.4196,-0.4196,-0.4196,-0.3949,-0.3951,-0.3964,-0.3977,-0.3994,-0.402,-0.4067,-0.4099,-0.4368,-0.438,-0.4645,-0.4389,-0.4131,-0.4131,-0.4389,-8.1059,-7.9318,-7.8254,-7.7269,-7.6512,-7.5959,-7.527,-7.4236,-7.2209,-7.1,-7.0172,-6.8054,-6.6142,-6.4399,-6.2659,-6.108,-5.9893,-5.8489,-5.7368,-5.6435,-5.552,-5.4578,-5.3916,-5.3281,-5.2599,-5.2185,-5.1406,-5.0221,-4.8596,-4.7653,-4.6943,-4.5756,-4.5279,-4.4563,-4.3364,-4.2629,-4.1906,-4.1423,-4.0953,-4.071,-4.0468,-4.0481,-4.0481,-4.0481,-4.0481,-4.0481,-4.0225,-3.9982,-3.9496,-3.8752,-3.7776,-3.7054,-3.5814,-3.4088,-3.2603,-3.0863,-2.8114,-2.5601,-2.3329,-2.2569,-2.1809,-2.1047,-2.0539,-2.0539,-2.0526,-2.0499,-2.0238,-2.0238,-1.9985,-1.975,-1.9274,-1.7993,-1.6972,-1.5945,-1.5183,-1.441,-1.3898,-1.3129,-1.2616,-1.1846,-1.1076,-1.0048,-0.902,-0.8251,-0.7736,-0.6963,-0.6186,-0.5396,-0.511,-0.4313,-0.4289,-0.3998,-0.4219,-0.445,-0.4444,-0.4691,-0.4691,-0.4691,-0.4691,-0.4444,-0.4196,-0.3949,-0.3956,-0.3967,-0.3982,-0.4009,-0.4296,-0.4328,-0.461,-0.4879,-0.5149,-0.5161,-0.4903,-0.4645,-0.4644,-8.1232,-7.9641,-7.8432,-7.724,-7.5936,-7.4817,-7.4417,-7.4211,-7.2642,-7.1207,-7.0379,-6.8476,-6.6569,-6.4831,-6.2857,-6.1378,-6.0077,-5.8717,-5.7206,-5.6162,-5.5383,-5.4444,-5.3861,-5.3305,-5.313,-5.2812,-5.2306,-5.1619,-5.0455,-4.9285,-4.7889,-4.6706,-4.6231,-4.5517,-4.4802,-4.383,-4.2629,-4.1664,-4.1181,-4.0953,-4.071,-4.0481,-4.0481,-4.0481,-4.0481,-4.0481,-4.0481,-4.0238,-3.9982,-3.9253,-3.8521,-3.7788,-3.6305,-3.4829,-3.3098,-2.9596,-2.7352,-2.5601,-2.3329,-2.2569,-2.2062,-2.0793,-2.0539,-2.0539,-2.0539,-2.0539,-2.0539,-2.0285,-2.0285,-2.0037,-1.9783,-1.8764,-1.7993,-1.7483,-1.6717,-1.6206,-1.5434,-1.4922,-1.441,-1.3385,-1.2616,-1.159,-1.0305,-0.9534,-0.902,-0.7993,-0.7211,-0.6418,-0.5626,-0.5079,-0.4782,-0.4487,-0.4467,-0.495,-0.494,-0.5183,-0.5185,-0.4936,-0.4938,-0.4938,-0.4196,-0.3949,-0.3949,-0.3958,-0.3974,-0.4487,-0.4759,-0.4795,-0.5088,-0.5374,-0.5903,-0.5664,-0.5673,-0.541,-0.5141,-8.1575,-8.0166,-7.8788,-7.7134,-7.5405,-7.4139,-7.3871,-7.3942,-7.2546,-7.1413,-7.0587,-6.8896,-6.7185,-6.5434,-6.3321,-6.1591,-6.0275,-5.8942,-5.7458,-5.6353,-5.5336,-5.4457,-5.3895,-5.3676,-5.3595,-5.3263,-5.2992,-5.2546,-5.1619,-5.0221,-4.8596,-4.7873,-4.7164,-4.6453,-4.5741,-4.4787,-4.359,-4.2388,-4.1423,-4.0939,-4.071,-4.0481,-4.0481,-4.0481,-4.0481,-4.0481,-4.0481,-4.0481,-4.0225,-3.9982,-3.9253,-3.8521,-3.7041,-3.5322,-3.2344,-2.9106,-2.7361,-2.5601,-2.3581,-2.2822,-2.2062,-2.1301,-2.0539,-2.0539,-2.0539,-2.0539,-2.0539,-2.0539,-2.0539,-2.0292,-2.0037,-1.9528,-1.9274,-1.8758,-1.8248,-1.7738,-1.7228,-1.6967,-1.5945,-1.4922,-1.3898,-1.2873,-1.1846,-1.1076,-1.0048,-0.9023,-0.824,-0.7446,-0.6653,-0.5858,-0.5547,-0.524,-0.5222,-0.5456,-0.5694,-0.5933,-0.5929,-0.5682,-0.5429,-0.5183,-0.4443,-0.3949,-0.3949,-0.3955,-0.4212,-0.4475,-0.4991,-0.5269,-0.5559,-0.6096,-0.6628,-0.6633,-0.6391,-0.6147,-0.5619,-8.1916,-8.0513,-7.9114,-7.7134,-7.519,-7.404,-7.3502,-7.3451,-7.2436,-7.1729,-7.0954,-6.9524,-6.7798,-6.5923,-6.3737,-6.1955,-6.0307,-5.8742,-5.7344,-5.6302,-5.5345,-5.4487,-5.4058,-5.4118,-5.4041,-5.3939,-5.3884,-5.3451,-5.2083,-5.0921,-4.9754,-4.9269,-4.8345,-4.7653,-4.6453,-4.5741,-4.4548,-4.311,-4.1906,-4.1195,-4.071,-4.0481,-4.0481,-4.0481,-4.0481,-4.0481,-4.0481,-4.0481,-4.0481,-4.0225,-3.9739,-3.9009,-3.6796,-3.4817,-3.1599,-2.9106,-2.7361,-2.5601,-2.3834,-2.2822,-2.2316,-2.1555,-2.1047,-2.0539,-2.0539,-2.0539,-2.0539,-2.0539,-2.0539,-2.0539,-2.0285,-2.0037,-1.9776,-1.9522,-1.9267,-1.8758,-1.8248,-1.7993,-1.7222,-1.6201,-1.5434,-1.441,-1.3642,-1.2616,-1.1333,-1.0305,-0.9271,-0.8734,-0.7949,-0.6899,-0.6333,-0.6012,-0.5998,-0.6237,-0.6467,-0.6703,-0.6685,-0.6676,-0.6178,-0.5429,-0.4691,-0.4196,-0.3949,-0.4202,-0.4206,-0.4711,-0.5224,-0.575,-0.6276,-0.6802,-0.7323,-0.732,-0.7335,-0.6853,-0.6337,-8.2284,-8.0859,-7.82,-7.6219,-7.5088,-7.4037,-7.3228,-7.3011,-7.2343,-7.1696,-7.1089,-7.0102,-6.8437,-6.6187,-6.4316,-6.2268,-6.0169,-5.8639,-5.7246,-5.621,-5.5332,-5.4722,-5.4183,-5.4395,-5.4301,-5.4146,-5.4338,-5.414,-5.3238,-5.2083,-5.1387,-5.0921,-5.0004,-4.8596,-4.7637,-4.6691,-4.5264,-4.359,-4.2629,-4.1423,-4.071,-4.0481,-4.0481,-4.0481,-4.0481,-4.0481,-4.0481,-4.0481,-4.0481,-4.0238,-3.9253,-3.7776,-3.5568,-3.3594,-3.135,-2.9106,-2.7361,-2.5601,-2.434,-2.3075,-2.2316,-2.1809,-2.1047,-2.0793,-2.0539,-2.0539,-2.0539,-2.0539,-2.0539,-2.0539,-2.0539,-2.0285,-2.0285,-2.0031,-2.0031,-1.9776,-1.9274,-1.9013,-1.8497,-1.7732,-1.6967,-1.6201,-1.5178,-1.4154,-1.2873,-1.1846,-1.1076,-1.0295,-0.9525,-0.8472,-0.7404,-0.7083,-0.6802,-0.7037,-0.7261,-0.7239,-0.7468,-0.7197,-0.669,-0.5939,-0.5186,-0.4444,-0.3949,-0.4196,-0.4447,-0.495,-0.5703,-0.6222,-0.6994,-0.7506,-0.7519,-0.7772,-0.7511,-0.7025,-0.652,-8.2509,-8.1031,-7.7843,-7.5878,-7.4916,-7.4015,-7.3143,-7.2835,-7.2323,-7.177,-7.1065,-7.0069,-6.8468,-6.6076,-6.4244,-6.2508,-6.0186,-5.8726,-5.7673,-5.664,-5.5548,-5.525,-5.4919,-5.469,-5.4616,-5.4723,-5.4501,-5.4387,-5.3928,-5.3238,-5.2546,-5.2083,-5.0938,-4.977,-4.858,-4.7164,-4.5756,-4.4309,-4.311,-4.1906,-4.0953,-4.071,-4.0481,-4.0481,-4.0481,-4.0481,-4.0481,-4.0481,-4.0481,-4.0238,-3.9253,-3.7776,-3.5802,-3.3841,-3.1599,-2.9356,-2.7612,-2.6113,-2.4592,-2.3581,-2.2822,-2.2062,-2.1301,-2.1047,-2.0539,-2.0539,-2.0539,-2.0539,-2.0539,-2.0539,-2.0539,-2.0285,-2.0285,-2.0285,-2.0285,-2.0031,-2.0031,-1.9776,-1.9267,-1.8758,-1.7993,-1.7738,-1.6717,-1.5689,-1.441,-1.3129,-1.2616,-1.159,-1.0562,-0.9795,-0.8972,-0.7914,-0.788,-0.7585,-0.7549,-0.778,-0.7764,-0.7488,-0.6966,-0.6197,-0.5194,-0.4446,-0.3949,-0.4196,-0.4443,-0.5431,-0.5939,-0.6451,-0.7192,-0.7698,-0.7711,-0.7727,-0.7465,-0.7207,-0.646,-8.2534,-8.0686,-7.7843,-7.5878,-7.5036,-7.3976,-7.3252,-7.2751,-7.2201,-7.1587,-7.1017,-6.9645,-6.8028,-6.6301,-6.4427,-6.2545,-6.0655,-5.9141,-5.8112,-5.7222,-5.6154,-5.572,-5.545,-5.5224,-5.4986,-5.4943,-5.491,-5.4809,-5.4616,-5.3928,-5.3468,-5.3025,-5.2083,-5.0921,-4.9269,-4.7873,-4.6469,-4.4787,-4.359,-4.2374,-4.1423,-4.0953,-4.0724,-4.0481,-4.0481,-4.0481,-4.0481,-4.0481,-4.0481,-3.9996,-3.9253,-3.7776,-3.606,-3.4088,-3.2096,-2.9855,-2.8114,-2.6607,-2.5357,-2.434,-2.3581,-2.2822,-2.2062,-2.1555,-2.1047,-2.0793,-2.0793,-2.0539,-2.0539,-2.0539,-2.0539,-2.0539,-2.0539,-2.0539,-2.0539,-2.0539,-2.0539,-2.0285,-2.0031,-1.9528,-1.9274,-1.8764,-1.7993,-1.7228,-1.6201,-1.4922,-1.3642,-1.2616,-1.159,-1.108,-1.0282,-0.9493,-0.896,-0.8659,-0.8365,-0.8085,-0.8074,-0.7788,-0.7261,-0.622,-0.5446,-0.4696,-0.4196,-0.4196,-0.4689,-0.5429,-0.5923,-0.6427,-0.7162,-0.7658,-0.7422,-0.7194,-0.669,-0.6433,-0.5927,-8.2001,-7.9466,-7.7718,-7.627,-7.4985,-7.4345,-7.3433,-7.2346,-7.2063,-7.1511,-7.0641,-6.986,-6.8597,-6.7029,-6.5305,-6.3413,-6.1409,-5.9758,-5.8304,-5.7435,-5.6426,-5.6248,-5.602,-5.5689,-5.5469,-5.5407,-5.5247,-5.5283,-5.5073,-5.4616,-5.4387,-5.4158,-5.2546,-5.1387,-5.0455,-4.905,-4.718,-4.5741,-4.4055,-4.2855,-4.1906,-4.1195,-4.0724,-4.0481,-4.0481,-4.0481,-4.0481,-4.0481,-4.0481,-3.9996,-3.9253,-3.8033,-3.6305,-3.4571,-3.2592,-3.0603,-2.8865,-2.7361,-2.6104,-2.5097,-2.434,-2.3581,-2.2822,-2.2316,-2.1809,-2.1301,-2.1047,-2.0539,-2.0539,-2.0539,-2.0539,-2.0539,-2.0539,-2.0539,-2.0539,-2.0539,-2.0539,-2.0539,-2.0285,-2.0031,-1.9783,-1.9528,-1.9274,-1.8248,-1.7483,-1.6456,-1.5689,-1.4661,-1.2873,-1.236,-1.1594,-1.0816,-1.0292,-0.9271,-0.8475,-0.8418,-0.839,-0.8101,-0.7544,-0.648,-0.5696,-0.4943,-0.4691,-0.4444,-0.4444,-0.5185,-0.5676,-0.6169,-0.6664,-0.716,-0.6418,-0.6173,-0.592,-0.5664,-0.5407]}]]